[[{"header":{"parameterUnit":"m.s-1","parameterCategory":1,"la1":30.6,"la2":29.2853,"lo1":-89.7004,"lo2":-87.6739,"dy":0.0162,"dx":0.0183,"nx":112,"ny":82,"refTime":"2023-09-10T18:00:00:Z","depth":0,"parameterNumber":2,"parameterNumberName":"U-component_of_WINDS"},"data":[0.0,0.0,0.0,0.0,0.0,0.0,0.0,0.0,0.0,0.0,0.0,0.0,0.0,0.0,0.0,0.0,0.0,0.0,0.0,0.0,0.0,0.0,0.0,0.0,0.0,0.0,0.0,0.0,0.0,0.0,0.0,0.0,0.0,0.0,0.0,0.0,0.0,0.0,0.0,0.0,0.0,0.0,0.0,0.0,0.0,0.0,0.0,0.0,0.0,0.0,0.0,0.0,0.0,0.0,0.0,0.0,0.0,0.0,0.0,0.0,0.0,0.0,0.0,0.0,0.0,0.0,0.0,0.0,0.0,0.0,0.0,0.0,0.0,0.0,0.0,0.0,0.0,0.0,0.0,0.0,0.0,0.0,0.0,0.0,0.0,0.0,0.0,0.0,0.0,0.0,-3.4774,-3.6315,-3.6967,-3.7508,-3.8003,-3.7571,-3.6648,-3.527,0.0,0.0,0.0,0.0,0.0,0.0,0.0,0.0,0.0,0.0,0.0,0.0,0.0,0.0,0.0,0.0,0.0,0.0,0.0,0.0,0.0,0.0,0.0,0.0,0.0,0.0,0.0,0.0,0.0,0.0,0.0,0.0,0.0,0.0,0.0,0.0,0.0,0.0,0.0,0.0,0.0,0.0,0.0,0.0,0.0,0.0,0.0,0.0,0.0,0.0,0.0,0.0,0.0,0.0,0.0,0.0,0.0,0.0,0.0,0.0,0.0,0.0,0.0,0.0,0.0,0.0,0.0,0.0,0.0,0.0,0.0,0.0,0.0,0.0,0.0,0.0,0.0,0.0,0.0,0.0,0.0,0.0,0.0,0.0,0.0,0.0,0.0,0.0,0.0,0.0,0.0,0.0,0.0,0.0,0.0,0.0,0.0,0.0,0.0,0.0,0.0,0.0,0.0,0.0,-3.3781,-3.5258,-3.6001,-3.6557,-3.69,-3.6161,-3.5495,-3.5148,0.0,0.0,0.0,0.0,0.0,0.0,0.0,0.0,0.0,0.0,0.0,0.0,0.0,0.0,0.0,0.0,0.0,0.0,0.0,0.0,0.0,0.0,0.0,0.0,0.0,0.0,0.0,0.0,0.0,0.0,0.0,0.0,0.0,0.0,0.0,0.0,0.0,0.0,0.0,0.0,0.0,0.0,0.0,0.0,0.0,0.0,0.0,0.0,0.0,0.0,0.0,0.0,0.0,0.0,0.0,0.0,0.0,0.0,0.0,0.0,0.0,0.0,0.0,0.0,0.0,0.0,0.0,0.0,0.0,0.0,0.0,0.0,0.0,0.0,0.0,0.0,0.0,0.0,0.0,0.0,0.0,0.0,0.0,0.0,0.0,0.0,0.0,0.0,0.0,0.0,0.0,0.0,0.0,0.0,0.0,0.0,0.0,0.0,0.0,0.0,0.0,0.0,0.0,-3.3788,-3.4491,-3.513,-3.5304,-3.5564,-3.6058,-3.5495,-3.4997,-3.4625,-3.3062,0.0,0.0,0.0,0.0,0.0,0.0,0.0,0.0,0.0,0.0,0.0,0.0,0.0,0.0,0.0,0.0,0.0,0.0,0.0,0.0,0.0,0.0,0.0,0.0,0.0,0.0,0.0,0.0,0.0,0.0,0.0,0.0,0.0,0.0,0.0,0.0,0.0,0.0,0.0,0.0,0.0,0.0,0.0,0.0,0.0,0.0,0.0,0.0,0.0,0.0,0.0,0.0,0.0,0.0,0.0,0.0,0.0,0.0,0.0,0.0,0.0,0.0,0.0,0.0,0.0,0.0,0.0,0.0,0.0,0.0,0.0,0.0,0.0,0.0,0.0,0.0,0.0,0.0,0.0,0.0,0.0,0.0,0.0,0.0,0.0,0.0,0.0,0.0,0.0,0.0,0.0,0.0,0.0,0.0,0.0,0.0,0.0,0.0,0.0,0.0,0.0,0.0,-3.4735,-3.5219,-3.5141,-3.4851,-3.4889,-3.5493,-3.5066,-3.4572,-3.4221,-3.238,0.0,0.0,0.0,0.0,0.0,0.0,0.0,0.0,0.0,0.0,0.0,0.0,0.0,0.0,0.0,0.0,0.0,0.0,0.0,0.0,0.0,0.0,0.0,0.0,0.0,0.0,0.0,0.0,0.0,0.0,0.0,0.0,0.0,0.0,0.0,0.0,0.0,0.0,0.0,0.0,0.0,0.0,0.0,0.0,0.0,0.0,0.0,0.0,0.0,0.0,0.0,0.0,0.0,0.0,0.0,0.0,0.0,0.0,0.0,0.0,0.0,0.0,0.0,0.0,0.0,0.0,0.0,0.0,0.0,0.0,0.0,0.0,0.0,0.0,0.0,0.0,0.0,0.0,0.0,0.0,0.0,0.0,0.0,0.0,0.0,0.0,0.0,0.0,0.0,0.0,0.0,0.0,0.0,0.0,0.0,0.0,0.0,0.0,0.0,0.0,0.0,0.0,-3.4285,-3.507,-3.4926,-3.4674,-3.4757,-3.5374,-3.4515,-3.4054,-3.4185,-3.1923,0.0,0.0,0.0,0.0,0.0,0.0,0.0,0.0,0.0,0.0,0.0,0.0,0.0,0.0,0.0,0.0,0.0,0.0,0.0,0.0,0.0,0.0,0.0,0.0,0.0,0.0,0.0,0.0,0.0,0.0,0.0,0.0,0.0,0.0,0.0,0.0,0.0,0.0,0.0,0.0,0.0,0.0,0.0,0.0,0.0,0.0,0.0,0.0,0.0,0.0,0.0,0.0,0.0,0.0,0.0,0.0,0.0,0.0,0.0,0.0,0.0,0.0,0.0,0.0,0.0,0.0,0.0,0.0,0.0,0.0,0.0,0.0,0.0,0.0,0.0,0.0,0.0,0.0,0.0,0.0,0.0,0.0,0.0,0.0,0.0,0.0,0.0,0.0,0.0,0.0,0.0,0.0,0.0,0.0,0.0,0.0,0.0,0.0,0.0,0.0,0.0,0.0,-3.4337,-3.519,-3.4945,-3.4812,-3.4722,-3.4649,-3.429,-3.3925,-3.3548,0.0,0.0,0.0,0.0,0.0,0.0,0.0,0.0,0.0,0.0,0.0,0.0,0.0,0.0,0.0,0.0,0.0,0.0,0.0,0.0,0.0,0.0,0.0,0.0,0.0,0.0,0.0,0.0,0.0,0.0,0.0,0.0,0.0,0.0,0.0,0.0,0.0,0.0,0.0,0.0,0.0,0.0,0.0,0.0,0.0,0.0,0.0,0.0,0.0,0.0,0.0,0.0,0.0,0.0,0.0,0.0,0.0,0.0,0.0,0.0,0.0,0.0,0.0,0.0,0.0,0.0,0.0,0.0,0.0,0.0,0.0,0.0,0.0,0.0,0.0,0.0,0.0,0.0,0.0,0.0,0.0,0.0,0.0,0.0,0.0,0.0,0.0,0.0,0.0,0.0,0.0,0.0,0.0,0.0,0.0,0.0,0.0,0.0,0.0,0.0,0.0,0.0,-3.3014,-3.4397,-3.5254,-3.4926,-3.487,-3.4672,-3.4245,-3.4197,-3.3817,-3.2907,0.0,0.0,0.0,0.0,0.0,0.0,0.0,0.0,0.0,0.0,0.0,0.0,0.0,0.0,0.0,0.0,0.0,0.0,0.0,0.0,0.0,0.0,0.0,0.0,0.0,0.0,0.0,0.0,0.0,0.0,0.0,0.0,0.0,0.0,0.0,0.0,0.0,0.0,0.0,0.0,0.0,0.0,0.0,0.0,0.0,0.0,0.0,0.0,0.0,0.0,0.0,0.0,0.0,0.0,0.0,0.0,0.0,0.0,0.0,0.0,0.0,0.0,0.0,0.0,0.0,0.0,0.0,0.0,0.0,0.0,0.0,0.0,0.0,0.0,0.0,0.0,0.0,0.0,0.0,0.0,0.0,0.0,0.0,0.0,0.0,0.0,0.0,0.0,0.0,0.0,0.0,0.0,0.0,0.0,0.0,0.0,0.0,0.0,0.0,0.0,0.0,0.0,-3.3014,-3.4351,-3.5203,-3.4926,-3.4851,-3.4651,-3.4245,-3.4197,-3.3647,0.0,0.0,0.0,0.0,0.0,0.0,0.0,0.0,0.0,0.0,0.0,0.0,0.0,0.0,0.0,0.0,0.0,0.0,0.0,0.0,0.0,0.0,0.0,0.0,0.0,0.0,0.0,0.0,0.0,0.0,0.0,0.0,0.0,0.0,0.0,0.0,0.0,0.0,0.0,0.0,0.0,0.0,0.0,0.0,0.0,0.0,0.0,0.0,0.0,0.0,0.0,0.0,0.0,0.0,0.0,0.0,0.0,0.0,0.0,0.0,0.0,0.0,0.0,0.0,0.0,0.0,0.0,0.0,0.0,0.0,0.0,0.0,0.0,0.0,0.0,0.0,0.0,0.0,0.0,0.0,0.0,0.0,0.0,0.0,0.0,0.0,0.0,0.0,0.0,0.0,0.0,0.0,0.0,0.0,0.0,0.0,0.0,0.0,0.0,0.0,0.0,0.0,0.0,-3.3093,-3.4453,-3.5364,-3.5136,-3.4982,-3.4772,-3.4517,-3.4316,-3.3938,-3.3342,0.0,0.0,0.0,0.0,0.0,0.0,0.0,0.0,0.0,0.0,0.0,0.0,0.0,0.0,0.0,0.0,0.0,0.0,0.0,0.0,0.0,0.0,0.0,0.0,0.0,0.0,0.0,0.0,0.0,0.0,0.0,0.0,0.0,0.0,0.0,0.0,0.0,0.0,0.0,0.0,0.0,0.0,0.0,0.0,0.0,0.0,0.0,0.0,0.0,0.0,0.0,0.0,0.0,0.0,0.0,0.0,0.0,0.0,0.0,0.0,0.0,0.0,0.0,0.0,0.0,0.0,0.0,0.0,0.0,0.0,0.0,0.0,0.0,0.0,0.0,0.0,0.0,0.0,0.0,0.0,0.0,0.0,0.0,0.0,0.0,0.0,0.0,0.0,0.0,0.0,0.0,0.0,0.0,0.0,0.0,0.0,0.0,0.0,0.0,0.0,0.0,0.0,-3.3122,-3.4212,-3.4937,-3.4734,-3.4217,-3.3961,-3.4078,-3.3832,-3.3438,-3.2852,0.0,0.0,0.0,0.0,0.0,0.0,0.0,0.0,0.0,0.0,0.0,0.0,0.0,0.0,0.0,0.0,0.0,0.0,0.0,0.0,0.0,0.0,0.0,0.0,0.0,0.0,0.0,0.0,0.0,0.0,0.0,0.0,0.0,0.0,0.0,0.0,0.0,0.0,0.0,0.0,0.0,0.0,0.0,0.0,0.0,0.0,0.0,0.0,0.0,0.0,0.0,0.0,0.0,0.0,0.0,0.0,0.0,0.0,0.0,0.0,0.0,0.0,0.0,0.0,0.0,0.0,0.0,0.0,0.0,0.0,0.0,0.0,0.0,0.0,0.0,0.0,0.0,0.0,0.0,0.0,0.0,0.0,0.0,0.0,0.0,0.0,0.0,0.0,0.0,0.0,0.0,0.0,0.0,0.0,0.0,0.0,0.0,0.0,0.0,0.0,0.0,0.0,-3.3248,-3.3857,-3.428,-3.4146,-3.3124,-3.2674,-3.3291,-3.3011,-3.2445,-3.1568,0.0,0.0,0.0,0.0,0.0,0.0,0.0,0.0,0.0,0.0,0.0,0.0,0.0,0.0,0.0,0.0,0.0,0.0,0.0,0.0,0.0,0.0,0.0,0.0,0.0,0.0,0.0,0.0,0.0,0.0,0.0,0.0,0.0,0.0,0.0,0.0,0.0,0.0,0.0,0.0,0.0,0.0,0.0,0.0,0.0,0.0,0.0,0.0,0.0,0.0,0.0,0.0,0.0,0.0,0.0,0.0,0.0,0.0,0.0,0.0,-4.2183,0.0,0.0,0.0,0.0,0.0,0.0,0.0,0.0,0.0,0.0,0.0,0.0,0.0,0.0,0.0,0.0,0.0,0.0,0.0,0.0,0.0,0.0,0.0,0.0,0.0,0.0,0.0,0.0,0.0,0.0,0.0,0.0,0.0,0.0,0.0,0.0,0.0,0.0,0.0,0.0,0.0,-3.4112,-3.4303,-3.458,-3.5111,-3.3652,-3.2901,-3.3545,-3.2802,-3.2101,-3.1668,-3.0643,0.0,0.0,0.0,0.0,0.0,0.0,0.0,0.0,0.0,0.0,0.0,0.0,0.0,0.0,0.0,0.0,0.0,0.0,0.0,0.0,0.0,0.0,0.0,0.0,0.0,0.0,0.0,0.0,0.0,0.0,0.0,0.0,0.0,0.0,0.0,0.0,0.0,0.0,0.0,0.0,0.0,0.0,0.0,0.0,0.0,0.0,0.0,0.0,0.0,0.0,0.0,0.0,0.0,0.0,0.0,0.0,0.0,0.0,0.0,0.0,-4.4295,0.0,0.0,0.0,0.0,0.0,0.0,0.0,0.0,0.0,0.0,0.0,0.0,0.0,0.0,0.0,0.0,0.0,0.0,0.0,0.0,0.0,0.0,0.0,0.0,0.0,0.0,0.0,0.0,0.0,0.0,0.0,0.0,0.0,0.0,0.0,0.0,0.0,0.0,0.0,0.0,-3.4447,-3.407,-3.3925,-3.4309,-3.2576,-3.1714,-3.249,-3.1826,-3.1297,-3.1076,-3.0375,0.0,0.0,0.0,0.0,0.0,0.0,0.0,0.0,0.0,0.0,0.0,0.0,0.0,0.0,0.0,0.0,0.0,0.0,0.0,0.0,0.0,0.0,0.0,0.0,0.0,0.0,0.0,0.0,0.0,0.0,0.0,0.0,0.0,0.0,0.0,0.0,0.0,0.0,0.0,0.0,0.0,0.0,0.0,0.0,0.0,0.0,0.0,0.0,0.0,0.0,0.0,0.0,0.0,-4.8845,-4.9316,-4.9857,-4.9395,-4.905,-4.8763,-4.8399,-4.8377,-4.8509,-4.6952,0.0,0.0,0.0,0.0,0.0,0.0,0.0,0.0,0.0,0.0,0.0,0.0,0.0,0.0,0.0,0.0,0.0,0.0,0.0,0.0,0.0,0.0,0.0,0.0,-4.1777,-4.1531,0.0,0.0,0.0,0.0,0.0,0.0,0.0,0.0,0.0,0.0,0.0,0.0,-3.4742,-3.3796,-3.317,-3.3316,-3.1379,-3.0419,-3.1249,-3.0827,-3.0443,-3.0268,-3.0134,-3.0099,0.0,0.0,0.0,0.0,0.0,0.0,0.0,0.0,0.0,0.0,0.0,0.0,0.0,0.0,0.0,0.0,0.0,0.0,0.0,0.0,0.0,0.0,0.0,0.0,0.0,0.0,0.0,0.0,0.0,0.0,0.0,0.0,-3.7285,-3.8136,0.0,0.0,0.0,0.0,0.0,0.0,0.0,0.0,0.0,0.0,0.0,0.0,0.0,-4.6334,-4.6555,-4.8172,-4.9097,-4.9348,-5.0829,-5.1194,-5.0595,-5.125,-5.0828,-4.9627,-5.0984,0.0,-4.8608,-4.7625,0.0,0.0,0.0,0.0,0.0,0.0,0.0,0.0,0.0,0.0,0.0,0.0,0.0,0.0,0.0,0.0,0.0,0.0,0.0,0.0,0.0,0.0,-4.3776,-4.1613,-4.1772,-4.1872,0.0,-3.8943,-3.8355,-3.812,-3.5722,0.0,0.0,0.0,0.0,0.0,0.0,0.0,-3.5626,-3.4241,-3.3449,-3.4158,-3.1951,-3.0687,-3.1331,-3.0701,-3.0083,-2.9644,-2.9605,-3.0116,-3.1304,-2.9982,0.0,0.0,0.0,0.0,0.0,0.0,0.0,0.0,0.0,0.0,0.0,0.0,0.0,0.0,0.0,0.0,0.0,0.0,0.0,0.0,0.0,0.0,0.0,0.0,0.0,0.0,0.0,0.0,0.0,-3.6345,-3.8748,-3.7784,-3.7839,-3.6904,0.0,0.0,0.0,0.0,0.0,0.0,0.0,0.0,0.0,-4.5147,-4.6577,-4.7795,-4.8795,-4.9583,-4.9948,-4.9948,-5.0818,-5.076,-4.9932,-5.0426,-5.0024,-4.8963,-4.9769,-4.9555,-4.8593,-4.874,-4.8024,-4.6708,0.0,0.0,0.0,0.0,-4.4696,-4.4405,-4.5406,-4.5169,0.0,-4.2921,0.0,0.0,0.0,0.0,0.0,0.0,0.0,0.0,0.0,0.0,-4.2623,-4.1937,-4.1358,-4.0862,-4.0637,-3.9524,-3.8606,0.0,-3.7361,-3.6288,-3.617,0.0,0.0,0.0,0.0,-3.478,-3.5126,-3.3628,-3.2645,-3.2966,-3.1468,-3.0557,-3.0814,-3.0452,-3.0061,-2.9693,-2.9676,-3.0302,-3.1715,-3.1169,-3.1113,0.0,0.0,0.0,0.0,0.0,0.0,0.0,0.0,0.0,0.0,0.0,0.0,0.0,0.0,0.0,0.0,0.0,0.0,0.0,0.0,0.0,0.0,0.0,0.0,0.0,0.0,0.0,0.0,-3.7803,-4.0059,-3.8303,-3.9457,-3.9176,0.0,0.0,0.0,0.0,0.0,0.0,-4.2664,-4.4151,-4.5576,-4.6892,-4.7574,-4.8629,-5.0193,-5.0026,-4.9882,-4.9717,-4.9869,-4.9374,-4.8298,-4.8447,-4.8086,-4.7326,-4.7854,-4.7863,-4.759,-4.8774,-4.8536,-4.7311,-4.6434,-4.5325,-4.4333,-4.5386,-4.5371,-4.4942,-4.6027,-4.5839,-4.4958,-4.3934,-4.2997,-4.1877,-3.974,0.0,0.0,0.0,0.0,-4.1228,-4.1836,-4.1379,-4.0925,-4.152,-4.0535,-3.9513,-3.9725,-3.879,-3.8112,0.0,-3.8394,-3.7805,-3.7376,0.0,0.0,0.0,0.0,-3.4591,-3.4325,-3.2947,-3.1955,-3.1922,-3.1042,-3.0433,-3.0432,-3.0348,-3.0196,-2.992,-2.9916,-3.0487,-3.1732,-3.1938,-3.1957,-3.1826,0.0,0.0,0.0,0.0,0.0,0.0,0.0,0.0,0.0,0.0,0.0,0.0,0.0,0.0,0.0,0.0,0.0,0.0,0.0,0.0,0.0,0.0,0.0,0.0,0.0,0.0,0.0,0.0,0.0,-4.1821,-4.3353,0.0,0.0,0.0,0.0,-4.1001,-4.2488,-4.348,-4.3642,-4.5256,-4.6312,-4.6538,-4.7609,-4.8749,-4.991,-4.9358,-4.8754,-4.8121,-4.8121,-4.7241,-4.5611,-4.5611,-4.5243,-4.4697,-4.6301,-4.6148,-4.4943,-4.6766,-4.7476,-4.7301,-4.6435,-4.6018,-4.5803,-4.5123,-4.4832,-4.4686,-4.3953,-4.3179,-4.261,-4.3351,-4.2967,-4.2007,-4.0993,-4.0703,0.0,0.0,-4.0929,-4.1026,-4.1125,-4.052,-3.9884,-3.9923,-3.9227,-3.8118,-3.6508,-3.6095,-3.6791,0.0,-3.7832,-3.6387,-3.7166,0.0,-3.4765,-3.4766,-3.4722,-3.4398,-3.3578,-3.255,-3.1941,-3.1994,-3.1146,-3.0557,-3.0501,-3.0559,-3.0472,-3.0196,-3.0247,-3.0606,-3.1403,-3.1498,-3.1479,-3.134,-3.1408,0.0,0.0,0.0,0.0,0.0,0.0,0.0,0.0,0.0,0.0,0.0,0.0,0.0,0.0,0.0,0.0,0.0,0.0,0.0,0.0,0.0,0.0,0.0,0.0,0.0,0.0,0.0,0.0,-4.2867,-4.4236,0.0,-4.1792,-4.2285,-4.2613,-4.225,-4.3668,-4.4596,-4.4596,-4.548,-4.5785,-4.5419,-4.6115,-4.6497,-4.6479,-4.6335,-4.5903,-4.522,-4.4712,-4.3857,-4.2751,-4.2278,-4.1952,-4.1807,-4.253,-4.285,-4.2912,-4.3682,-4.4967,-4.6404,-4.5539,-4.522,-4.5191,-4.4919,-4.4443,-4.3928,-4.3664,-4.2946,-4.2044,-4.1228,-4.0733,-4.0296,-3.946,-3.9936,-4.0568,-3.9479,-3.9604,-3.9991,-3.9446,-3.868,-3.8079,-3.8116,-3.6635,-3.5209,-3.5139,-3.4245,-3.3902,-3.5423,-3.5424,-3.5267,-3.5577,-3.5116,-3.4512,-3.3945,-3.2947,-3.2137,-3.1763,-3.0427,-2.9732,-3.0269,-2.9537,-2.9202,-2.9749,-2.9771,-2.9476,-2.8828,-2.9341,-2.9745,-2.9913,-3.0482,-3.0746,-3.0663,-3.1232,-3.109,0.0,0.0,0.0,0.0,0.0,0.0,0.0,0.0,0.0,0.0,0.0,0.0,0.0,0.0,0.0,0.0,0.0,0.0,0.0,0.0,0.0,0.0,0.0,0.0,0.0,-4.2014,-4.4025,-4.2722,-4.4403,-4.4765,-4.2413,-4.3063,-4.3638,-4.3635,-4.4418,-4.4726,-4.4415,-4.4765,-4.4635,-4.3934,-4.4321,-4.4522,-4.4438,-4.4256,-4.3731,-4.286,-4.2294,-4.135,-4.006,-3.9586,-3.9393,-3.9427,-3.9554,-3.9971,-4.0568,-4.0655,-4.1928,-4.3815,-4.3815,-4.3673,-4.3404,-4.3132,-4.2656,-4.2111,-4.1869,-4.1344,-4.0591,-3.9402,-3.9011,-3.8887,-3.8352,-3.8983,-3.9619,-3.8435,-3.8371,-3.848,-3.7564,-3.6764,-3.6091,-3.5541,-3.4133,-3.2913,-3.2907,-3.2249,-3.1625,-3.1617,-3.306,-3.4161,-3.3871,-3.406,-3.3867,-3.2695,-3.1579,-3.0749,-3.044,-2.8847,-2.8084,-2.8904,-2.8223,-2.8029,-2.8895,-2.9191,-2.8966,-2.8092,-2.8846,-2.9157,-2.8782,-2.9863,-3.0306,-2.9963,-3.0813,-3.0967,-3.0398,0.0,0.0,0.0,0.0,0.0,0.0,0.0,0.0,0.0,0.0,0.0,0.0,0.0,0.0,0.0,0.0,0.0,0.0,0.0,0.0,0.0,0.0,0.0,-3.8859,-4.2262,-4.3859,-4.1665,-4.4086,-4.5102,-4.2907,-4.4119,-4.5062,-4.5146,-4.4595,-4.3888,-4.2995,-4.3069,-4.281,-4.2079,-4.222,-4.2841,-4.3879,-4.3231,-4.2259,-4.1062,-4.0981,-3.9773,-3.7636,-3.7619,-3.76,-3.7615,-3.7615,-3.7702,-3.7851,-3.7851,-3.8469,-3.9565,-4.1304,-4.1478,-4.0653,-3.977,-3.946,-3.9344,-3.8457,-3.8156,-3.8141,-3.8048,-3.799,-3.7949,-3.7906,-3.7911,-3.7892,-3.7757,-3.7257,-3.654,-3.5541,-3.4845,-3.3971,-3.2252,-3.189,-3.1448,-2.9732,-2.9992,-3.0075,-2.8339,-3.0828,-3.2931,-3.2112,-3.2691,-3.2695,-3.0976,-3.0697,0.0,-2.9574,-2.793,-2.716,-2.8024,-2.7332,-2.7155,-2.7995,-2.8851,-2.8967,-2.8073,-2.8873,-2.897,-2.8105,-2.9648,-3.0145,-2.9373,-3.018,-3.0603,-3.0603,0.0,0.0,0.0,0.0,0.0,0.0,0.0,0.0,0.0,0.0,0.0,0.0,0.0,0.0,0.0,0.0,0.0,0.0,0.0,0.0,0.0,-3.815,-4.1182,-4.2458,-4.358,-4.4199,-4.4007,-4.4245,-4.394,-4.2796,-4.3026,-4.2771,-4.1602,-4.1391,-4.0708,-3.9391,-3.9372,-3.9369,-3.9306,-3.8838,-3.8841,-3.9364,-3.8665,-3.8204,-3.7922,-3.7328,-3.6784,-3.63,-3.5715,-3.5571,-3.5812,-3.5774,-3.6169,-3.6881,-3.6824,-3.6993,-3.7383,-3.8737,-3.9503,-3.976,-3.8935,-3.8625,-3.8498,-3.753,-3.7216,-3.7139,-3.644,-3.6625,-3.6876,-3.558,-3.5605,-3.5849,-3.4496,-3.4035,-3.3737,-3.2872,-3.2555,-3.2203,-3.1153,-3.0413,-2.9698,-2.8683,-2.8139,-2.7562,-2.6485,-2.7595,-2.8813,-2.9198,-3.0005,-3.0211,-2.9158,-2.8456,0.0,-2.6874,-2.5798,-2.5419,-2.6281,-2.5566,-2.563,-2.7107,-2.7983,-2.7841,-2.6384,-2.771,-2.8135,-2.7269,-2.8271,-2.9324,-3.0303,-3.0542,-3.0659,0.0,0.0,0.0,0.0,0.0,0.0,0.0,0.0,0.0,0.0,0.0,0.0,0.0,0.0,0.0,0.0,0.0,0.0,0.0,0.0,0.0,0.0,-3.8875,-4.1353,-4.2722,-4.3258,-4.346,-4.3315,-4.2399,-4.1546,-4.0899,-4.0641,-4.0105,-3.9247,-3.8942,-3.8401,-3.7448,-3.7122,-3.7027,-3.7145,-3.6739,-3.6612,-3.6796,-3.638,-3.6046,-3.58,-3.5321,-3.5055,-3.504,-3.4596,-3.4607,-3.4927,-3.4945,-3.5303,-3.588,-3.5515,-3.5362,0.0,0.0,0.0,0.0,0.0,-3.7123,-3.7035,-3.6466,-3.6003,-3.5605,-3.5042,-3.4942,-3.4851,-3.382,-3.3609,-3.3499,-3.2454,-3.1962,-3.1539,-3.0623,-3.0489,-3.022,-2.8647,-2.7939,-2.7295,-2.6132,-2.577,-2.5428,-2.4632,-2.5196,0.0,-2.6002,-2.7379,-2.8043,-2.685,-2.6249,-2.5722,-2.5214,-2.4081,-2.3649,-2.452,-2.3801,-2.3959,-2.5691,-2.6597,0.0,0.0,0.0,-2.7586,-2.742,-2.8242,0.0,0.0,0.0,-3.075,-3.075,0.0,0.0,0.0,-3.4903,-3.6398,0.0,0.0,0.0,0.0,0.0,0.0,0.0,0.0,0.0,0.0,0.0,0.0,0.0,0.0,0.0,0.0,-3.8911,-3.9751,-4.0641,-4.1409,-4.1544,-4.0659,-3.9494,-3.8548,-3.7875,-3.7554,-3.7363,-3.7398,-3.6922,-3.6504,-3.6281,0.0,0.0,0.0,0.0,-3.5435,-3.5557,-3.5467,-3.5064,-3.4425,-3.4292,-3.4089,-3.3808,-3.3809,-3.3999,-3.4384,-3.4485,-3.4624,-3.471,-3.3982,-3.3742,-3.3995,-3.5583,-3.5812,-3.5258,-3.5321,-3.5325,-3.5306,-3.5229,0.0,0.0,-3.3853,-3.3238,-3.2473,-3.2426,-3.1809,-3.1097,-3.1001,-3.0491,-2.9735,-2.8681,-2.8517,-2.8037,-2.562,-2.5052,-2.4643,-2.3002,-2.3261,-2.3578,-2.2755,-2.336,-2.3722,-2.2858,-2.4849,-2.6048,-2.4485,-2.4258,-2.4214,-2.4118,-2.275,-2.2104,-2.2862,0.0,0.0,-2.4248,-2.5147,-2.5645,-2.5703,-2.6451,-2.7225,-2.7941,-2.8895,-2.9771,-3.0555,-3.0728,-3.0801,-3.0801,-3.0795,-3.125,-3.2165,-3.4472,-3.6445,0.0,0.0,0.0,0.0,0.0,0.0,0.0,0.0,0.0,0.0,0.0,0.0,0.0,0.0,0.0,-3.7625,-3.8511,-3.8886,-3.8226,-3.739,-3.7201,-3.819,-3.7557,-3.647,-3.5118,-3.5069,-3.4884,-3.4286,-3.4305,-3.4089,-3.3583,-3.3437,-3.3731,-3.4564,-3.3908,-3.3952,-3.4787,-3.4001,-3.3556,-3.3448,0.0,0.0,-3.268,-3.2125,-3.2027,-3.2344,-3.2322,-3.243,-3.2598,-3.2505,-3.2617,-3.2972,-3.3996,-3.4666,-3.4992,-3.4429,-3.4213,-3.411,-3.3474,-3.3149,-3.303,-3.303,-3.2436,-3.158,-3.0835,-3.0018,0.0,-2.8479,-2.8156,-2.7828,-2.6921,-2.6294,-2.5573,-2.4358,-2.3596,-2.2901,-2.1947,-2.187,-2.1763,-2.0969,-2.152,-2.1868,-2.1041,-2.2539,-2.3738,-2.3396,-2.3352,-2.3096,-2.2389,-2.2,-2.1852,-2.2028,-2.1909,-2.2514,-2.4253,-2.5189,-2.5699,-2.5702,-2.6503,-2.705,-2.7206,-2.8672,-2.957,-2.9726,-3.0447,-3.0796,-3.0796,-3.0792,-3.1255,-3.2109,-3.2629,-3.341,0.0,0.0,0.0,0.0,0.0,0.0,0.0,0.0,0.0,0.0,0.0,-3.6158,-3.6802,0.0,-3.6967,-3.7711,-3.7697,-3.718,-3.5918,-3.5362,-3.5331,-3.6129,-3.507,-3.3984,-3.3117,-3.3059,-3.2958,-3.2612,-3.2844,-3.2913,-3.2659,-3.2641,-3.2867,-3.3372,-3.2983,-3.2852,-3.306,-3.2541,-3.2099,-3.175,-3.1416,-3.1366,-3.1556,-3.1247,-3.1279,-3.1589,-3.1635,-3.1749,-3.1864,-3.1555,-3.1524,-3.1713,-3.2183,-3.2952,-3.3808,-3.3455,-3.3353,-3.323,-3.2388,-3.1546,-3.083,-3.0723,-2.9783,-2.8692,-2.8619,-2.7985,-2.7138,-2.6363,-2.5834,-2.5319,-2.4509,-2.4018,-2.3543,-2.2707,-2.2163,-2.1624,-2.0811,-2.064,-2.0535,-2.0164,-2.0474,-2.0693,-2.0301,-2.1055,-2.1721,-2.1788,-2.1802,-2.1636,-2.1204,-2.1145,-2.1152,-2.1145,-2.1147,-2.187,-2.3605,-2.4958,-2.5702,-2.5702,-2.6523,-2.6991,-2.7009,-2.8199,-2.8862,-2.8901,-2.9716,-3.0142,-3.0142,-3.0596,-3.1016,-3.1398,-3.1422,-3.215,0.0,0.0,0.0,0.0,0.0,0.0,0.0,-3.5856,-3.6075,-3.6802,-3.6979,-3.7323,-3.8309,-3.7069,-3.6262,-3.731,-3.6396,-3.5122,-3.3885,-3.3746,-3.3825,-3.3873,-3.2779,-3.1901,-3.165,-3.1523,-3.1511,-3.1551,-3.174,-3.1987,-3.2249,-3.2213,-3.2229,-3.2387,-3.2281,-3.1927,-3.1394,-3.1235,-3.0847,-3.0211,-3.0115,-3.0196,-3.0402,-3.033,-3.0513,-3.0864,-3.1009,-3.1127,-3.1166,-3.0704,-3.0484,-3.0406,-3.0317,-3.0921,-3.1835,-3.2073,-3.2165,-3.2027,-3.0854,-2.9527,-2.8308,-2.7991,-2.6884,-2.5794,-2.6458,-2.6015,-2.5159,-2.4666,-2.3926,-2.3136,-2.2533,-2.2256,-2.1985,-2.1329,-2.1015,-2.067,-1.9943,-1.9811,-1.9823,-1.9862,-1.9922,-1.9993,-2.0049,-2.0153,-2.027,-2.0445,-2.0467,-2.0477,-2.0483,-2.0483,-2.0483,-2.05,-2.0503,-2.1201,-2.2925,-2.4514,-2.5486,-2.5644,-2.6319,-2.6612,-2.6468,-2.7388,-2.7856,-2.7735,-2.8684,-2.9205,-2.9208,-3.0063,-3.0369,-3.0158,-3.036,-3.1234,-2.7806,-2.8856,-3.0885,-3.4856,-3.4409,-3.4463,0.0,-3.9479,-3.8213,-3.9926,-3.9753,-3.909,-3.821,-3.7148,-3.6276,-3.5784,-3.4093,-3.268,-3.2285,-3.1304,-3.0704,-3.0956,-3.1368,-3.1364,-3.0734,-3.0692,-3.0747,-3.073,-3.0441,-3.0622,-3.1476,-3.111,-3.1219,-3.1949,-3.1377,-3.1045,-3.0958,-3.0328,-2.9977,-2.9922,-2.9288,-2.911,-2.9343,-2.8517,-2.8433,-2.8916,-2.9113,-2.9172,-2.914,-2.9376,-2.9425,-2.9295,-2.8726,-2.854,-2.8708,-2.957,-2.9945,-2.9717,-2.7481,-2.6586,-2.6298,-2.5622,-2.5139,-2.487,-2.5013,-2.4437,-2.3716,-2.3589,-2.3013,-2.2429,-2.2327,-2.1783,-2.1217,-2.1136,-2.0557,-1.9987,-1.9828,-1.9809,-1.9809,-1.9821,-1.9832,-1.9847,-1.9914,-1.9934,-2.0031,-2.0282,-2.0328,-2.0338,-2.0405,-2.0415,-2.0433,-2.0497,-2.05,-2.1188,-2.2868,-2.3844,-2.4702,-2.5467,-2.5551,-2.526,-2.4549,-2.6021,-2.6517,-2.5742,-2.7268,-2.812,-2.8175,-2.8983,-2.8974,-2.822,-2.8946,-2.9457,-2.7748,-2.8849,-3.0236,-3.308,-3.381,-3.451,-3.7504,-3.7515,-3.7251,-3.8455,-3.7679,-3.6723,-3.6224,-3.4712,-3.3427,-3.345,-3.2194,-3.128,-3.1254,-3.0602,-2.9927,-2.9377,-3.008,-3.0473,-3.0049,-3.0172,-3.0284,-3.0293,-3.0325,-3.0493,-3.0801,-3.0677,-3.0621,-3.0714,-3.0439,-3.0052,-2.9682,-2.9368,-2.9015,-2.8605,-2.8351,-2.8252,-2.8323,-2.7959,-2.7685,-2.7513,-2.8076,-2.7813,-2.7054,-2.7683,-2.7645,-2.7136,-2.6944,-2.6603,-2.6395,-2.7681,-2.7935,-2.7398,-2.5884,-2.4771,-2.3922,-2.3507,-2.2966,-2.2557,-2.2992,-2.2856,-2.2471,-2.2032,-2.167,-2.1326,-2.0899,-2.0532,-2.0157,-1.9612,-1.9606,-1.9563,-1.8944,-1.9242,-1.9623,-1.963,-1.9701,-1.9763,-1.9774,-1.9813,-1.988,-1.9982,-2.0077,-2.0134,-2.0158,-2.0173,-2.0195,-2.0263,-2.0789,-2.1413,-2.2069,-2.3405,-2.4361,-2.4721,-2.5154,-2.5243,-2.4919,-2.5561,-2.5774,-2.5406,-2.6588,-2.6975,-2.6497,-2.7323,-2.7323,-2.6528,-2.7323,-2.744,-2.6406,-2.7461,-2.8379,-3.0537,-3.1959,-3.3107,-3.418,-3.4834,-3.5338,-3.6009,-3.5065,-3.3948,-3.3651,-3.2134,-3.0933,-3.1102,-3.0317,-2.9774,-2.9965,-2.9503,-2.8951,-2.8352,-2.8857,-2.9278,-2.9425,-2.9605,-2.9722,-2.9733,-2.9756,-2.9852,-2.9972,-2.9852,-2.9688,-2.9482,-2.9302,-2.8905,-2.8285,-2.7952,-2.7698,-2.7444,-2.7278,-2.7355,-2.7672,-2.7502,-2.6992,-2.6223,-2.6845,-2.6486,-2.549,-2.618,-2.6039,-2.5394,-2.5387,-2.4956,-2.4433,-2.5465,-2.5571,-2.5032,-2.4028,-2.2938,-2.1928,-2.1559,-2.1119,-2.08,-2.1068,-2.1136,-2.0993,-2.0468,-2.0033,-1.9619,-1.9305,-1.9072,-1.8729,-1.8042,-1.837,-1.8629,-1.7904,-1.8452,-1.9088,-1.9081,-1.917,-1.9225,-1.9229,-1.9083,-1.9045,-1.9275,-1.9416,-1.9617,-1.9925,-1.9964,-1.9984,-2.0041,-2.0704,-2.1196,-2.1346,-2.2805,-2.381,-2.4058,-2.4857,-2.5213,-2.4992,-2.5186,-2.5062,-2.4608,-2.5678,-2.5697,-2.4589,-2.5716,-2.5725,-2.472,-2.5504,-2.539,-2.2776,-2.3322,-2.4201,-2.7518,-2.8511,-2.9368,-3.1972,-3.2731,-3.3013,-3.3438,-3.2853,-3.1902,-3.0768,-3.0163,-2.9679,-2.9075,-2.832,-2.7896,-2.8119,-2.738,-2.7025,-2.7629,-2.7609,-2.7876,-2.867,-2.8982,-2.9044,-2.8779,-2.8108,-2.8061,-2.8904,-2.8318,-2.81,-2.8453,-2.798,-2.7483,-2.6951,-2.5843,-2.5832,-2.6808,-2.6043,-2.6347,-2.7582,-2.6854,-2.593,-2.4859,-2.5086,-2.5051,-2.4849,-2.5005,-2.4896,-2.4602,-2.4205,-2.3571,-2.2835,-2.2545,-2.2652,-2.2703,-2.1309,-2.0751,-2.0541,-1.9822,-1.9926,-2.0187,-1.9504,-1.9202,-1.9104,-1.9137,-1.8058,-1.7095,-1.7841,-1.7475,-1.689,-1.6849,-1.6867,-1.6886,-1.6849,-1.7475,-1.8042,-1.8042,-1.8048,-1.8052,-1.8042,-1.7398,-1.716,-1.7942,-1.817,-1.8663,-1.9756,-1.989,-1.9893,-1.9918,-1.9918,-2.0229,-2.0951,-2.1907,-2.2816,-2.3657,-2.4588,-2.4758,-2.3976,-2.4619,-2.4258,-2.2616,-2.4207,-2.4233,-2.26,-2.4319,-2.4297,-2.2702,-2.3455,-2.3354,-1.9485,-2.0964,-2.2359,-2.3625,-2.5082,-2.6505,-2.7536,-2.825,-2.8879,-2.9454,-2.836,-2.7223,-2.695,-2.6658,-2.6585,-2.6902,-2.6777,-2.6989,-2.7959,-2.7181,-2.6651,-2.6984,-2.7491,-2.7682,-2.742,-2.809,-2.8606,-2.8685,-2.8372,-2.8247,-2.8317,-2.8122,-2.7557,-2.6498,-2.6493,-2.5983,-2.4906,-2.4647,-2.471,-2.5092,-2.479,-2.4949,-2.5483,-2.521,-2.4637,-2.3825,-2.4403,-2.3973,-2.2916,-2.3388,-2.3244,-2.2622,-2.1955,-2.1513,-2.1103,-1.9739,-1.952,-1.9943,-2.0372,-2.012,-1.9502,-1.8859,-1.8709,-1.863,-1.7899,-1.8016,-1.8398,-1.8315,-1.8315,-1.8276,-1.8003,-1.773,-1.7257,-1.6145,-1.636,-1.6625,-1.5944,-1.6537,-1.7158,-1.6977,-1.701,-1.7074,-1.707,-1.7288,-1.7576,-1.79,-1.8502,-1.9107,-1.9572,-1.9675,-1.9701,-1.9695,-1.9769,-1.9918,-2.0114,-2.0998,-2.184,-2.2585,-2.3479,-2.3846,-2.3585,-2.4308,-2.4016,-2.2457,-2.3524,-2.3259,-2.1639,-2.2224,-2.1942,-2.0897,-2.1669,-2.1905,-1.6376,-1.7932,-1.9385,-1.9975,-2.1427,-2.2745,-2.2942,-2.4059,-2.523,-2.554,-2.497,-2.4437,-2.4377,-2.4451,-2.452,-2.4478,-2.486,-2.5327,-2.5903,-2.5297,-2.4954,-2.5371,-2.6002,-2.635,-2.6228,-2.6914,-2.76,-2.8253,-2.8204,-2.7902,-2.7444,-2.7408,-2.6641,-2.4996,-2.4945,-2.4515,-2.351,-2.327,-2.3293,-2.357,-2.3964,-2.4058,-2.39,-2.3838,-2.3391,-2.2752,-2.3129,-2.2477,-2.1239,-2.1638,-2.1419,-2.081,-2.0402,-2.0046,-1.9625,-1.8583,-1.8054,-1.7946,-1.879,-1.8806,-1.8429,-1.8038,-1.7877,-1.763,-1.6693,-1.6781,-1.7141,-1.6904,-1.6976,-1.7086,-1.6886,-1.6617,-1.6135,-1.5041,-1.5239,-1.5516,-1.4876,-1.5428,-1.6025,-1.5855,-1.5873,-1.5938,-1.5954,-1.6677,-1.7172,-1.69,-1.7944,-1.8812,-1.8886,-1.8915,-1.9041,-1.9265,-1.9419,-1.9476,-1.9387,-2.0308,-2.1087,-2.1548,-2.2395,-2.2922,-2.298,-2.3412,-2.3105,-2.1896,-2.2655,-2.226,-2.0596,-2.0927,-2.0668,-1.9866,-2.0356,-2.0608,-1.3417,-1.4361,-1.522,-1.6509,-1.7465,-1.8081,-1.8263,-2.0275,-2.2013,-2.1853,-2.2677,-2.3272,-2.2745,-2.328,-2.3362,-2.1982,-2.2609,-2.3068,-2.2405,-2.2062,-2.226,-2.3096,-2.3447,-2.4019,-2.5149,-2.5425,-2.6105,-2.7369,0.0,-2.6994,-2.6312,-2.6149,-2.5385,-2.3836,-2.3407,-2.3033,-2.2601,-2.1681,-2.1553,-2.2247,-2.3227,-2.3403,-2.277,-2.2552,-2.2128,-2.1519,-2.1258,-2.0653,-1.9812,-1.9798,-1.9578,-1.9273,-1.9578,-1.9123,-1.8374,-1.8703,-1.7931,-1.6684,-1.6562,-1.6889,-1.7338,-1.7277,-1.7294,-1.7104,-1.5798,-1.5465,-1.5473,-1.502,-1.4344,-1.3897,-1.4688,-1.434,-1.3736,-1.3715,-1.3713,-1.3698,-1.3698,-1.4254,-1.4742,-1.4725,-1.4675,-1.4659,-1.4779,-1.559,-1.5952,-1.5127,-1.6554,-1.7738,-1.7796,-1.7776,-1.803,-1.8646,-1.886,-1.8931,-1.8789,-1.9773,-2.0466,-2.0562,-2.1393,-2.1962,-2.2135,-2.2032,-2.1615,-2.0872,-2.1625,-2.1189,-1.9485,-2.0396,-2.0399,-1.9567,-1.9509,-1.9532,-1.0887,-1.1923,-1.2822,-1.3121,-1.4067,-1.4874,-1.4754,-1.6203,-1.7592,-1.7763,-1.8159,-1.8401,-1.8302,-1.9767,-2.1028,-2.1103,-2.2481,-2.3538,-2.3521,-2.2825,-2.2635,-2.348,-2.362,-2.396,-2.4787,-2.4882,-2.5019,-2.5292,-2.5596,-2.548,-2.4897,-2.4819,-2.3966,-2.2155,-2.2207,-2.1532,-1.9971,-1.9768,-1.9824,-2.0091,-1.997,-1.9927,-2.0001,-1.9563,-1.9249,-1.9076,-1.903,-1.8889,-1.8749,-1.9232,-1.9123,-1.861,-1.839,-1.7945,-1.7239,-1.5672,-1.5132,-1.5106,-1.4296,-1.5146,-1.6442,-1.5656,-1.5337,-1.511,-1.4264,-1.4418,-1.4863,-1.4831,-1.5055,-1.5228,-1.4916,-1.4707,-1.4445,-1.3837,-1.3746,-1.3731,-1.3573,-1.3792,-1.3914,-1.3667,-1.3667,-1.3922,-1.4468,-1.5002,-1.5222,-1.4897,-1.5902,-1.6951,-1.7705,-1.7709,-1.7946,-1.8699,-1.8734,-1.8697,-1.866,-1.8949,-1.9417,-2.0046,-2.0299,-2.0789,-2.157,-2.1571,-2.1223,-2.0464,-2.0847,-2.0492,-1.935,-1.9685,-1.9685,-1.9394,-1.9409,-1.938,-0.8667,-0.9573,-1.0417,-1.0854,-1.1754,-1.2511,-1.2395,-1.3774,-1.5093,-1.5084,-1.5625,-1.6097,-1.6366,-1.8205,-1.9714,-1.9814,-2.1707,-2.3011,-2.2631,-2.2006,-2.1661,-2.1848,-2.1865,-2.212,-2.2685,-2.3204,-2.3284,-2.2807,-2.3998,-2.4518,-2.3844,-2.3717,-2.2887,-2.1178,-2.0992,-2.0103,-1.8415,-1.8615,-1.8649,-1.842,-1.85,-1.8478,-1.8329,-1.811,-1.8005,-1.8005,0.0,-1.7712,-1.7439,-1.7721,-1.7629,-1.7219,-1.706,-1.666,-1.607,-1.4841,-1.4296,-1.4068,-1.3247,-1.3759,-1.4687,-1.4341,-1.4221,-1.4075,-1.3475,-1.3634,-1.401,-1.3914,-1.4188,-1.4408,-1.4021,-1.4042,-1.4007,-1.343,-1.3379,-1.3379,-1.3193,-1.3159,-1.3124,-1.2961,-1.3033,-1.3239,-1.3728,-1.4332,-1.4641,-1.4213,-1.5245,-1.6256,-1.673,-1.7188,-1.7683,-1.8305,-1.8353,-1.8353,-1.841,-1.845,-1.8704,-1.9243,-1.9298,-1.9589,-2.0188,-2.0206,-2.0029,-1.965,-1.9788,-1.9605,-1.9082,-1.9148,-1.9148,-1.9049,-1.9064,-1.9031,-0.6838,-0.7368,-0.8106,-0.9259,-1.0046,-1.0561,-1.0624,-1.2157,-1.3465,-1.3209,-1.41,-1.5034,-1.5555,-1.7317,-1.8664,-1.8436,-2.0553,-2.1856,-2.0878,-2.0463,-2.0133,-1.9589,-1.9583,-1.9713,-2.012,-2.1027,-2.1243,-2.0457,-2.2331,-2.3272,-2.2791,-2.263,-2.1932,-2.0552,-1.9659,-1.8673,-1.7502,-1.7784,-1.7629,-1.7011,-1.7758,-1.7753,-1.7104,-1.7272,-1.7339,-1.7339,-1.7164,0.0,-1.607,-1.5998,-1.5852,-1.5693,-1.573,-1.5367,-1.4844,-1.4892,-1.4193,-1.3176,-1.2781,-1.262,-1.2677,-1.3208,-1.3446,-1.3458,-1.3001,-1.299,-1.3062,-1.2748,-1.2684,-1.2703,-1.2781,-1.2964,-1.3053,-1.2832,-1.285,-1.2852,-1.2703,-1.2572,-1.2498,-1.2572,-1.2646,-1.2741,-1.2852,-1.3657,-1.4055,-1.3344,-1.4636,-1.5592,-1.5432,-1.6426,-1.7317,-1.7704,-1.7844,-1.7941,-1.8061,-1.8082,-1.817,-1.8395,-1.8432,-1.8544,-1.8763,-1.8676,-1.8695,-1.8839,-1.8824,-1.8789,-1.8752,-1.877,-1.8752,-1.8678,-1.8678,-1.8659,-0.5814,-0.586,-0.5905,-0.7629,-0.7818,-0.7783,-0.8672,-0.9831,-1.0763,-1.0833,-1.193,-1.2922,-1.3225,-1.4844,-1.6487,-1.7627,-1.9155,-2.027,-2.0786,-2.0232,-1.972,-1.975,-1.9571,-1.9583,-2.0,-2.0074,-2.0072,-1.9935,-1.9623,-1.9762,-2.0513,-2.1017,-2.0756,-1.9579,-1.8083,-1.7154,-1.6846,-1.6321,-1.5888,-1.5472,-1.5479,-1.5329,-1.509,-1.4988,-1.4943,-1.4994,-1.4962,0.0,-1.4949,-1.5515,-1.5495,-1.5046,-1.5015,-1.4352,-1.3413,-1.2977,-1.2365,-1.1786,-1.1859,-1.1702,-1.1572,-1.2097,-1.2259,-1.2229,-1.218,-1.2192,-1.2276,-1.2487,-1.2537,-1.2556,-1.2689,-1.2708,-1.2706,-1.2722,-1.2556,-1.2427,-1.2443,-1.2439,-1.2435,-1.251,-1.2607,-1.2703,-1.2722,-1.2969,-1.3129,-1.2975,-1.4107,-1.4972,-1.4924,-1.583,-1.6714,-1.7412,-1.7408,-1.7344,-1.7368,-1.7422,-1.7602,-1.7905,-1.7777,-1.8121,-1.907,-1.8579,-1.8565,-1.9109,-1.8903,-1.8715,-1.8544,-1.8659,-1.8659,-1.8544,-1.8584,-1.8545,-0.4275,-0.4498,-0.4827,-0.6063,-0.6499,-0.6832,-0.7326,-0.8397,-0.9397,-0.9946,-1.0773,-1.1694,-1.2473,-1.4052,-1.5508,-1.6392,-1.8319,-1.9788,-2.0157,-2.0096,-1.9799,-1.9414,-1.8872,-1.8544,-1.8562,-1.8834,-1.8814,-1.8363,-1.8307,-1.8694,-1.9658,-1.9277,-1.875,-1.8027,-1.6413,-1.5472,-1.5348,-1.4951,-1.4485,-1.3962,-1.4215,-1.4111,-1.3725,-1.3765,-1.3769,-1.3769,-1.3881,0.0,-1.4046,-1.4252,-1.4219,-1.3966,-1.3608,-1.3018,-1.2374,-1.1936,-1.1496,-1.1085,-1.1164,-1.1048,-1.092,-1.1187,-1.1392,-1.1564,-1.1659,-1.1659,-1.1696,-1.2009,-1.1978,-1.1991,-1.2513,-1.2654,-1.2688,-1.2909,-1.2724,-1.2352,-1.1836,-1.2133,-1.2414,-1.2146,-1.2411,-1.2661,-1.257,-1.2646,-1.2778,-1.285,-1.3573,-1.4195,-1.4458,-1.5154,-1.6039,-1.7085,-1.7142,-1.7142,-1.7248,-1.7175,-1.7272,-1.7566,-1.7502,-1.7723,-1.8291,-1.7969,-1.7952,-1.8308,-1.8194,-1.8149,-1.8184,-1.8249,-1.8307,-1.8342,-1.8225,-1.8163,-0.279,-0.3229,-0.384,-0.471,-0.542,-0.6077,-0.6406,-0.7379,-0.8495,-0.9402,-1.0194,-1.106,-1.2087,-1.3509,-1.4613,-1.5163,-1.7186,-1.8836,-1.926,-1.953,-1.9582,-1.9119,-1.8272,-1.7642,-1.7418,-1.7734,-1.7699,-1.7056,-1.747,-1.8076,-1.8888,-1.776,-1.6946,-1.6666,-1.5176,-1.4295,-1.4085,-1.3814,-1.3384,-1.2803,-1.324,-1.3192,-1.2673,-1.2906,-1.2998,-1.2998,-1.3148,0.0,0.0,-1.3012,-1.3,-1.3017,-1.2357,-1.1945,-1.1745,-1.1321,-1.0986,-1.0705,-1.0681,-1.0639,-1.0556,-1.055,-1.0753,-1.1038,-1.1132,-1.1132,-1.1118,-1.14,-1.1296,-1.1253,-1.1919,-1.2276,-1.2536,-1.2787,-1.2509,-1.1989,-1.1162,-1.1725,-1.2248,-1.1783,-1.2238,-1.2639,-1.2403,-1.2541,-1.2691,-1.2678,-1.312,-1.3597,-1.4084,-1.4603,-1.5369,-1.659,-1.6773,-1.6926,-1.7126,-1.7018,-1.7018,-1.7288,-1.7288,-1.7313,-1.7392,-1.7361,-1.7344,-1.7392,-1.7439,-1.7572,-1.7794,-1.7794,-1.7861,-1.8005,-1.7811,-1.7704,-0.1744,-0.1898,-0.2233,-0.3895,-0.4064,-0.4284,-0.5873,-0.6632,-0.7296,-0.8521,-0.9911,-1.0962,-1.1271,-1.2226,-1.3271,-1.4195,-1.4866,-1.5948,-1.8063,-1.8049,-1.8213,-1.916,-1.8477,-1.7874,-1.7712,-1.7223,-1.6965,-1.7011,-1.6569,-1.6569,-1.7276,-1.6681,-1.6238,-1.6162,-1.4963,-1.4222,-1.4085,-1.3118,-1.2556,-1.2449,-1.2209,-1.2064,-1.1982,-1.2079,-1.2175,-1.2295,-1.2307,-1.2354,0.0,-1.2378,-1.2484,-1.26,-1.1983,-1.1725,-1.1635,-1.1003,-1.0623,-1.0458,-1.0583,-1.0535,-1.0413,-1.034,-1.036,-1.0385,-1.0409,-1.0347,-1.0347,-1.0623,-1.0599,-1.0467,-1.0433,-1.1094,-1.1782,-1.1694,-1.1171,-1.0677,-1.0659,-1.1195,-1.1693,-1.1713,-1.2247,-1.2615,-1.2283,-1.2643,-1.2804,-1.2322,-1.2811,-1.3421,-1.3943,-1.4397,-1.4949,-1.5721,-1.6077,-1.6394,-1.6633,-1.6649,-1.6738,-1.7018,-1.6908,-1.6924,-1.7043,-1.7101,-1.7101,-1.7043,-1.7288,-1.7408,-1.7448,-1.7448,-1.7455,-1.7455,-1.7448,-1.7432,-0.096,-0.1419,-0.2123,-0.2977,-0.3624,-0.4336,-0.5328,-0.6308,-0.7301,-0.8435,-0.9256,-1.0045,-1.113,-1.1988,-1.2827,-1.3526,-1.4546,-1.5579,-1.649,-1.7054,-1.766,-1.839,-1.7954,-1.7624,-1.7707,-1.7073,-1.6161,-1.4924,-1.4101,-1.3603,-1.3452,-1.4266,-1.471,-1.4605,-1.3668,-1.3,-1.2708,-1.2057,-1.1627,-1.1479,-1.0847,-1.057,-1.0685,-1.0712,-1.0902,-1.1191,-1.1376,-1.1619,0.0,-1.1752,-1.1763,-1.1813,-1.1168,-1.0876,-1.0747,-1.0247,-1.0034,-1.0021,-0.9919,-0.9926,-0.9968,-0.985,-0.979,-0.9865,-1.0338,-1.0276,-1.0148,-1.0417,-1.0134,-0.9804,-1.0123,-1.0762,-1.12,-1.0663,-1.0619,-1.0476,-0.9743,-1.0293,-1.0813,-1.0442,-1.087,-1.1372,-1.1519,-1.1813,-1.216,-1.252,-1.2758,-1.316,-1.3847,-1.4026,-1.4472,-1.5433,-1.5868,-1.6163,-1.634,-1.6394,-1.6543,-1.6873,-1.6596,-1.657,-1.6873,-1.667,-1.6644,-1.6873,-1.6984,-1.7109,-1.7224,-1.7224,-1.7272,-1.7401,-1.724,-1.7142,-0.085,-0.132,-0.1983,-0.243,-0.3405,-0.4391,-0.4941,-0.6036,-0.7177,-0.8172,-0.8718,-0.9428,-1.0865,-1.1721,-1.2381,-1.3058,-1.4263,-1.5183,-1.5438,-1.639,-1.718,-1.7521,-1.7264,-1.7032,-1.6888,-1.6046,-1.4867,-1.3223,-1.2449,-1.1739,-1.1192,-1.2215,-1.2816,-1.2851,-1.2212,-1.1704,-1.1486,-1.0925,-1.0664,-1.0667,-0.9815,-0.9549,-0.9767,-0.9737,-0.9884,-1.0253,-1.0532,-1.0885,0.0,-1.1169,-1.1111,-1.1092,-1.0518,-1.0179,-1.0008,-0.9638,-0.9514,-0.954,-0.9461,-0.9556,-0.9674,-0.9527,-0.9513,-0.9643,-1.0149,-1.0107,-0.9929,-1.007,-0.9593,-0.9183,-0.982,-1.0072,-1.0091,-0.9857,-0.999,-0.9926,-0.9046,-0.9577,-1.0084,-0.9623,-1.0036,-1.0481,-1.0689,-1.0983,-1.1425,-1.2143,-1.2348,-1.2759,-1.3696,-1.3765,-1.4135,-1.5121,-1.5448,-1.5769,-1.6093,-1.6148,-1.6301,-1.6639,-1.6285,-1.6258,-1.6639,-1.6285,-1.6258,-1.6639,-1.6639,-1.6727,-1.6952,-1.6952,-1.7027,-1.7167,-1.6968,-1.6866,-0.1537,-0.149,-0.1632,-0.2486,-0.3244,-0.4015,-0.4889,-0.576,-0.6632,-0.7509,-0.8463,-0.9403,-1.0343,-1.1092,-1.1848,-1.2687,-1.3405,-1.4185,-1.498,-1.5988,-1.6657,-1.6716,-1.6655,-1.6157,-1.4935,-1.3717,-1.2913,-1.2538,-1.2004,0.0,-1.1517,-1.0864,-1.069,-1.1004,-1.0681,-1.0586,-1.0695,-0.986,-0.9706,-1.0215,-0.939,-0.9168,-0.9478,-0.9288,-0.9359,-0.9619,-0.9765,-1.0127,0.0,-1.0621,-1.0619,-1.0551,-1.0167,-0.9879,-0.967,-0.9419,-0.9166,-0.9058,-0.9378,-0.9595,-0.967,-0.9452,-0.9636,-0.9842,-0.9671,-0.9604,-0.959,-0.9442,-0.8912,-0.8583,-0.9322,-0.8734,-0.82,-0.935,-0.9158,-0.8728,-0.869,-0.9133,-0.9537,-0.9574,-1.0083,-1.0358,-0.988,-1.0312,-1.0768,-1.0999,-1.1425,-1.2167,-1.3432,-1.3603,-1.3899,-1.4738,-1.4746,-1.5058,-1.594,-1.5868,-1.5953,-1.6301,-1.5981,-1.5953,-1.6301,-1.5981,-1.5953,-1.6301,-1.6231,-1.634,-1.6623,-1.6623,-1.6623,-1.6623,-1.6623,-1.6554,-0.2477,-0.274,-0.3196,-0.3984,-0.467,-0.5332,-0.5869,-0.6578,-0.7295,-0.7735,-0.8584,-0.9584,-1.0627,-1.1871,-1.2783,-1.2977,-1.3559,-1.3727,-1.307,-1.3895,-1.4599,-1.4804,-1.5206,-1.507,-1.4042,-1.276,-1.18,-1.144,-1.0417,-0.976,-0.9542,-0.9252,-0.9429,-1.0275,-1.0187,-0.9935,-0.9614,-0.9286,-0.9123,-0.9182,-0.8553,-0.8365,-0.861,-0.8406,-0.8439,-0.8659,-0.8667,0.0,0.0,-0.9077,-0.9069,-0.9136,-0.891,-0.8797,-0.871,-0.8527,-0.8595,-0.8673,-0.8372,-0.8893,-0.9569,-0.8706,-0.8816,-0.9274,-0.9202,-0.9226,-0.9153,-0.86,-0.8227,-0.8056,-0.8338,-0.8099,-0.7891,-0.8319,-0.823,-0.8004,-0.7908,-0.8037,-0.8226,-0.8295,-0.8497,-0.8793,-0.9174,-0.9497,-0.9886,-1.0557,-1.1137,-1.1725,-1.2291,-1.2929,-1.348,-1.3927,-1.4163,-1.4429,-1.4816,-1.527,-1.5445,-1.5204,-1.5442,-1.574,-1.608,-1.5769,-1.5711,-1.5953,-1.5953,-1.5953,-1.5994,-1.6203,-1.6421,-1.6596,-1.6554,-1.6528,-0.3901,-0.4041,-0.4292,-0.4868,-0.5492,-0.6041,-0.6411,-0.7074,-0.7812,-0.8502,-0.9092,-0.9841,-1.0905,-1.1797,-1.2397,-1.2397,-1.2877,-1.292,-1.2038,-1.2934,-1.3686,-1.3667,-1.3601,-1.3325,-1.2589,-1.1477,-1.0643,-1.028,-0.9362,-0.8738,-0.8474,-0.8321,-0.8482,-0.9105,-0.9163,-0.9011,-0.8669,-0.8577,-0.8543,-0.8488,-0.8077,-0.8044,-0.825,-0.8036,-0.807,-0.8275,-0.8259,0.0,0.0,-0.8396,-0.8361,-0.8385,-0.8268,-0.8168,-0.8109,-0.8031,-0.8117,-0.8213,-0.8013,-0.8485,-0.907,-0.8445,-0.8487,-0.8755,-0.8772,-0.8795,-0.8778,-0.8589,-0.8119,-0.7734,-0.79,-0.7802,-0.7695,-0.7637,-0.7647,-0.7637,-0.749,-0.7519,-0.7598,-0.7656,-0.7715,-0.792,-0.8409,-0.859,-0.9042,-1.011,-1.0597,-1.1147,-1.1892,-1.2479,-1.2928,-1.3247,-1.3529,-1.3669,-1.3661,-1.4506,-1.5006,-1.4974,-1.5096,-1.5359,-1.5652,-1.5111,-1.4906,-1.508,-1.4873,-1.4943,-1.5308,-1.5859,-1.6219,-1.6367,-1.6301,-1.6258,0.0,-0.545,-0.5186,-0.5309,-0.5819,-0.6367,-0.6676,-0.7408,0.0,-0.9542,-0.9914,-1.0297,-1.1219,-1.1286,-1.1291,-1.1283,-1.1706,-1.1916,-1.1657,-1.2783,-1.35,-1.2996,-1.2089,-1.1305,-1.0661,-0.9976,-0.9465,-0.9211,-0.8784,-0.8474,-0.8221,-0.8008,-0.7836,-0.7694,-0.7812,-0.7928,-0.7963,-0.7848,-0.792,-0.8175,-0.7961,-0.8044,-0.8373,-0.807,-0.8111,0.0,0.0,0.0,0.0,-0.8286,-0.8167,-0.8036,-0.7995,-0.7843,-0.7705,-0.7705,-0.7656,-0.7666,-0.7966,-0.8149,-0.8279,-0.8408,-0.8368,-0.8231,-0.8206,-0.8266,-0.8506,-0.9084,-0.8395,-0.7537,-0.7828,-0.7743,-0.7549,-0.7292,-0.742,-0.7577,-0.7478,-0.7508,-0.7548,-0.7598,-0.7656,-0.7695,-0.7725,-0.7773,-0.8288,-0.9638,-0.9918,-1.0498,-1.1977,-1.2139,-1.2294,-1.2683,-1.2869,-1.2842,-1.2602,-1.3693,-1.461,-1.5197,-1.489,-1.478,-1.5031,-1.4218,-1.379,-1.3895,-1.3361,-1.3595,-1.4688,-1.551,-1.594,-1.594,-1.5885,-1.5784,-0.844,0.0,-0.6742,-0.73,-0.7503,-0.7551,0.0,-0.8629,-0.9459,-0.9857,-1.0984,-1.1943,-1.2003,-1.2367,-1.2357,-1.1518,-1.1702,-1.1678,-1.0766,-1.1588,-1.2209,-1.1715,-1.1641,-1.1183,-1.0137,-0.9595,-0.9263,-0.9211,-0.8639,-0.8321,-0.8374,-0.8062,-0.7911,-0.7846,-0.7801,-0.7685,-0.7529,-0.7682,-0.7741,-0.7795,-0.7753,-0.7836,-0.8002,-0.7731,-0.7572,0.0,0.0,0.0,-0.6827,-0.6711,-0.6671,-0.6653,-0.6554,-0.664,-0.6867,-0.6777,-0.6825,-0.6843,-0.6114,-0.6706,-0.7679,-0.7222,-0.6869,-0.6559,-0.6165,-0.7008,-0.8062,-0.786,-0.7534,-0.7244,-0.7054,-0.6868,-0.6885,-0.7588,-0.763,-0.763,-0.7944,-0.8038,-0.7973,-0.7724,-0.7715,-0.7802,-0.785,-0.7947,-0.8295,-0.9004,-0.9402,-0.9909,-1.068,-1.1286,-1.1689,-1.1788,-1.2151,-1.239,-1.2376,-1.3432,-1.3987,-1.3727,-1.4137,-1.4415,-1.4497,-1.4278,-1.4101,-1.3979,-1.3893,-1.4114,-1.4711,-1.5003,-1.527,-1.5463,-1.5433,-1.5477,-1.0265,-0.9192,-0.8136,-0.9193,-0.9172,-0.8958,-0.9405,-0.9971,-1.0576,-1.1064,-1.2086,-1.2647,-1.2135,-1.2552,-1.2476,-1.1109,-1.1261,-1.1276,-1.0573,-1.11,-1.1312,-1.0791,-1.0916,-1.0678,0.0,-0.9205,-0.8942,-0.8844,-0.8427,-0.8168,-0.8162,-0.7939,-0.7856,-0.7904,-0.7749,-0.7585,-0.7391,-0.7497,-0.7577,-0.7621,-0.7454,-0.7459,-0.7598,-0.7309,-0.7146,0.0,0.0,0.0,-0.6277,-0.6015,-0.5985,-0.6104,-0.6238,-0.6413,-0.6595,-0.6535,-0.6504,-0.6419,-0.5634,-0.5816,-0.6283,-0.571,-0.5472,-0.53,-0.4937,-0.5517,-0.6332,-0.6783,-0.6657,-0.6445,-0.6561,-0.6465,-0.6501,-0.7066,-0.7109,-0.7109,-0.7587,-0.771,-0.7732,-0.7826,-0.7917,-0.8046,-0.8262,-0.8436,-0.8711,-0.9266,-0.9586,-0.9959,-1.0474,-1.093,-1.1239,-1.1325,-1.1664,-1.1945,-1.2054,-1.2801,-1.3259,-1.3278,-1.3807,-1.4105,-1.4026,-1.376,-1.343,-1.2996,-1.3404,-1.3713,-1.4025,-1.4457,-1.4769,-1.4939,-1.4939,-1.4984,-1.1486,-1.0477,-0.9672,-1.079,-1.0672,-1.0394,-1.0971,-1.1293,-1.1719,-1.2547,-1.3083,-1.3093,-1.2248,-1.2445,-1.2215,-1.0685,-1.0726,-1.0875,-1.0824,-1.1032,-1.086,-1.009,-1.0284,0.0,-0.9078,-0.8819,-0.8495,-0.8146,-0.7988,-0.7817,-0.767,-0.7566,-0.7622,-0.7772,-0.763,-0.7486,-0.7326,-0.7439,-0.7485,-0.7482,-0.7189,-0.7113,-0.7214,-0.6911,-0.6765,-0.6669,0.0,0.0,-0.6104,-0.577,-0.5807,-0.6032,-0.6371,-0.6504,-0.6504,-0.6474,-0.63,-0.6021,-0.5613,-0.5094,-0.4542,-0.4205,-0.4146,-0.4152,-0.4002,-0.3915,-0.413,-0.5379,-0.5462,-0.5336,-0.5941,-0.5988,-0.6005,-0.6324,-0.6402,-0.6527,-0.704,-0.7143,-0.7292,-0.7831,-0.8047,-0.828,-0.8757,-0.8926,-0.921,-0.9848,-1.0011,-1.023,-1.0723,-1.0833,-1.0919,-1.1006,-1.1351,-1.159,-1.1712,-1.1997,-1.2472,-1.3085,-1.3501,-1.3695,-1.3615,-1.3116,-1.2607,-1.204,-1.2737,-1.3156,-1.3307,-1.3997,-1.4342,-1.442,-1.4452,-1.4483,-1.1969,-1.215,-1.2019,-1.1598,-1.1407,-1.1359,-1.1471,-1.2167,-1.2913,-1.3237,-1.3926,-1.4268,-1.3422,-1.2789,-1.2137,-1.1295,-1.1081,-1.1194,-1.182,-1.1666,-1.1016,-0.9635,0.0,-1.0179,-0.8264,-0.8039,-0.7705,-0.6927,-0.6612,-0.6483,-0.6531,-0.6694,-0.6871,-0.7111,-0.7063,-0.7033,-0.7052,-0.756,-0.7706,-0.7482,-0.7286,-0.7052,-0.689,-0.6785,-0.6337,-0.5732,0.0,-0.5687,-0.5363,-0.5415,-0.5677,-0.5996,-0.6075,-0.6083,-0.6083,-0.589,-0.554,-0.5046,-0.4587,-0.393,-0.3273,-0.3231,-0.2982,-0.2685,-0.2508,-0.2435,-0.2465,-0.2616,-0.3216,-0.3869,-0.4151,-0.4205,-0.4541,-0.5992,-0.6351,-0.6586,-0.7282,-0.7345,-0.737,-0.7671,-0.7703,-0.7977,-0.8882,-0.9052,-0.9313,-1.0047,-1.0021,-1.011,-1.057,-1.0697,-1.0736,-1.0659,-1.1136,-1.1384,-1.1233,-1.1322,-1.1514,-1.1864,-1.2555,-1.3047,-1.3267,-1.3179,-1.3124,-1.3137,-1.338,-1.3552,-1.3723,-1.3901,-1.3974,-1.4007,-1.417,-1.4319,-1.263,-1.3016,-1.3218,-1.3197,-1.3407,-1.3649,-1.377,-1.4162,-1.448,-1.4487,-1.4906,-1.4906,-1.3697,-1.3483,-1.3258,-1.2105,-1.159,-1.1349,-1.128,-1.1084,-1.0443,0.0,0.0,-0.9184,-0.7203,-0.7052,-0.6897,-0.6463,-0.6252,-0.6213,-0.6433,-0.6541,-0.669,-0.6844,-0.6919,-0.6989,-0.6979,-0.728,-0.7405,-0.7321,-0.6702,-0.6361,-0.6245,-0.6109,-0.571,-0.5132,0.0,-0.5535,-0.5341,-0.5282,-0.5524,-0.5937,-0.5777,-0.5787,-0.5786,-0.5349,-0.4795,-0.4204,-0.3785,-0.3147,-0.2492,-0.2384,-0.2163,-0.1903,-0.1805,-0.1676,-0.1556,-0.1567,-0.2296,-0.307,-0.3041,-0.3436,-0.4004,-0.4751,-0.5311,-0.5811,-0.6442,-0.6604,-0.6799,-0.7276,-0.7626,-0.804,-0.8745,-0.9171,-0.9581,-1.0074,-1.0066,-1.0097,-1.0408,-1.0495,-1.0611,-1.0736,-1.105,-1.126,-1.1271,-1.1304,-1.1427,-1.1536,-1.1838,-1.2257,-1.2849,-1.2682,-1.2839,-1.3391,-1.348,-1.3581,-1.3695,-1.3728,-1.3728,-1.3728,-1.3941,-1.4072,-1.2975,-1.3425,-1.4035,-1.4473,-1.4832,-1.5232,-1.5707,-1.577,-1.571,-1.566,-1.5835,-1.5458,-1.3827,-1.3775,-1.3464,-1.226,-1.1832,-1.1396,-1.0751,-1.0368,-0.9708,-0.8498,-0.8531,-0.8027,-0.6424,-0.6304,-0.6303,-0.609,-0.5974,-0.6012,-0.6276,-0.631,-0.6388,-0.6568,-0.6674,-0.6732,-0.6768,-0.6816,-0.6901,-0.7076,-0.6165,-0.5734,-0.5664,-0.5506,-0.5174,-0.4713,-0.5109,-0.5347,-0.5442,-0.5237,-0.5449,-0.5933,-0.5638,-0.5504,-0.5377,-0.4828,-0.4218,-0.363,-0.3241,-0.2697,-0.2157,-0.1838,-0.1644,-0.1495,-0.1464,-0.1279,-0.1111,-0.1179,-0.1742,-0.2335,-0.2263,-0.2787,-0.3429,-0.3727,-0.4256,-0.4889,-0.5531,-0.5808,-0.6144,-0.6898,-0.7438,-0.8014,-0.8649,-0.9217,-0.9674,-0.9971,-1.001,-1.0049,-1.0079,-1.0157,-1.0302,-1.0611,-1.0812,-1.0971,-1.1121,-1.1271,-1.1366,-1.1263,-1.124,-1.1653,-1.2614,-1.2256,-1.2498,-1.3446,-1.348,-1.3547,-1.3661,-1.3615,-1.3615,-1.3615,-1.3861,-1.3974,-1.2414,-1.3446,-1.4718,-1.4597,-1.4602,-1.4891,-1.6019,-1.5923,-1.5797,-1.6401,-1.6616,-1.6146,-1.4261,-1.2746,-1.1644,-1.1134,-1.1213,-1.1226,-1.0903,0.0,-0.9025,-0.8225,-0.7848,-0.7289,-0.6245,-0.6174,-0.599,-0.5498,-0.5264,-0.5239,-0.5379,-0.5397,-0.5652,-0.6208,-0.5944,-0.589,-0.6062,-0.6184,-0.6435,-0.6719,-0.6172,-0.5668,-0.5227,-0.5229,-0.4924,-0.4448,-0.479,-0.5131,-0.5392,-0.5308,-0.5615,-0.6039,-0.5729,-0.5219,-0.4625,-0.4221,-0.3909,-0.363,-0.3029,-0.2679,-0.2394,-0.1799,-0.1561,-0.1475,-0.1345,-0.1212,-0.1111,-0.1179,-0.1246,-0.1378,-0.1676,-0.1909,-0.2335,-0.3432,-0.3785,-0.4167,-0.5137,-0.5381,-0.5705,-0.6648,-0.7003,-0.7545,-0.8753,-0.9119,-0.9386,-0.9783,-0.9753,-0.9674,-0.9558,-0.9558,-0.9637,-0.9853,-1.0166,-1.0356,-1.0283,-1.0761,-1.0904,-1.0612,-1.0838,-1.1538,-1.2743,-1.2414,-1.2642,-1.3568,-1.3581,-1.3661,-1.3788,-1.3661,-1.3615,-1.3615,-1.3993,-1.417,-1.2204,-1.3455,-1.4614,-1.4191,-1.476,-1.5678,-1.6455,-1.6542,-1.6482,-1.682,-1.7054,-1.6575,-1.4803,-1.3213,-1.1996,-1.142,-1.1249,-1.1067,-1.0713,-0.9728,-0.8779,-0.7902,-0.7471,-0.6722,-0.5347,-0.5394,-0.5403,-0.5175,-0.514,-0.5211,-0.5522,-0.5545,-0.5631,-0.589,-0.5669,-0.5717,-0.5976,-0.5841,-0.5836,-0.5953,-0.5385,-0.4996,-0.484,-0.4904,-0.4615,-0.4094,-0.5167,-0.5578,-0.547,-0.547,-0.5721,-0.6022,-0.5334,-0.4643,-0.401,-0.3681,-0.3401,-0.3135,-0.2747,-0.2424,-0.2159,-0.1879,-0.1667,-0.1516,-0.1546,-0.1412,-0.1246,-0.141,-0.1444,-0.1444,-0.1343,-0.1654,-0.2051,-0.2487,-0.3227,-0.3985,-0.4403,-0.5071,-0.571,-0.6066,-0.6678,-0.7291,-0.7694,-0.8415,-0.903,-0.927,-0.9545,-0.9674,-0.9625,-0.9655,-0.9686,-0.9677,-1.004,-1.0369,-1.0491,-1.0699,-1.0795,-1.0761,-1.0791,-1.1294,-1.2306,-1.1894,-1.2198,-1.3319,-1.3399,-1.3547,-1.3788,-1.3808,-1.3775,-1.3741,-1.3947,-1.4078,-1.2297,-1.3522,-1.465,-1.4114,-1.4763,-1.5752,-1.6546,-1.672,-1.6857,-1.7138,-1.6648,-1.5859,-1.4662,-1.3198,-1.1884,-1.1307,-1.1188,-1.0899,-1.003,-0.9043,-0.8112,-0.7264,-0.6736,-0.5994,-0.5016,-0.5167,-0.5318,-0.5374,-0.539,-0.5526,-0.5826,-0.568,-0.5631,-0.5717,-0.5453,-0.5404,-0.5669,-0.5418,-0.5261,-0.5189,-0.4716,-0.4566,-0.4635,-0.4792,-0.4682,-0.4438,-0.5468,-0.5844,-0.5733,-0.5663,-0.5672,-0.5621,-0.4807,-0.415,-0.3593,-0.3273,-0.3006,-0.2754,-0.2522,-0.2235,-0.1968,-0.1858,-0.1724,-0.1581,-0.1711,-0.1577,-0.1412,-0.1575,-0.1609,-0.1548,-0.1339,-0.1595,-0.1911,-0.1982,-0.2676,-0.3417,-0.3735,-0.4436,-0.5126,-0.5508,-0.6167,-0.6755,-0.7105,-0.7841,-0.8496,-0.8901,-0.9248,-0.9515,-0.9554,-0.9536,-0.9487,-0.9439,-0.9843,-1.0293,-1.0724,-1.0691,-1.0825,-1.1134,-1.1114,-1.1391,-1.209,-1.1688,-1.2029,-1.3319,-1.3399,-1.3547,-1.3788,-1.3854,-1.3854,-1.3788,-1.3947,-1.4032,-1.2555,-1.3636,-1.4793,-1.4396,-1.4443,-1.4897,-1.6067,-1.6412,-1.665,-1.7349,-1.533,-1.356,-1.3814,-1.2326,-1.0842,-1.0363,-1.0756,-1.0505,-0.8853,-0.7828,-0.703,-0.6294,-0.555,-0.5185,-0.537,-0.5643,-0.5932,-0.6165,-0.607,-0.6051,-0.6196,-0.5626,-0.5453,-0.5793,-0.5145,-0.484,-0.5005,-0.4924,-0.4794,-0.458,-0.4387,-0.4438,-0.4721,-0.4923,-0.5228,-0.5596,-0.5515,-0.5776,-0.6152,-0.5837,-0.5392,-0.484,-0.4228,-0.3808,-0.3444,-0.303,-0.2739,-0.2477,-0.2338,-0.2175,-0.1981,-0.1778,-0.1709,-0.1709,-0.1845,-0.1778,-0.1609,-0.1676,-0.1642,-0.1629,-0.1683,-0.1635,-0.1709,-0.2112,-0.2158,-0.2342,-0.321,-0.3499,-0.3957,-0.5087,-0.5384,-0.5936,-0.7266,-0.7482,-0.7807,-0.8659,-0.8918,-0.9056,-0.9279,-0.903,-0.8869,-0.8975,-0.9435,-1.0031,-1.0838,-1.0726,-1.0901,-1.1652,-1.1828,-1.1993,-1.221,-1.186,-1.2311,-1.3568,-1.3741,-1.3788,-1.3788,-1.3788,-1.3788,-1.3821,-1.3947,-1.4065,-1.3213,-1.4148,-1.4962,-1.4435,-1.5062,-1.5765,-1.5713,-1.576,-1.5808,-1.5901,-1.4852,-1.3785,-1.3294,-1.2051,-1.1015,-1.0529,-0.9999,-0.9454,-0.8771,-0.7592,-0.6667,-0.6205,-0.5665,-0.53,-0.5249,-0.5475,-0.5624,-0.5718,-0.5795,-0.5832,-0.5863,-0.5491,-0.527,-0.5226,-0.4709,-0.4604,-0.4841,-0.4656,-0.456,-0.4618,-0.4603,-0.4581,-0.4554,-0.4622,-0.4746,-0.4914,-0.5175,-0.5352,-0.5493,-0.5487,-0.5166,-0.4641,-0.4228,-0.3773,-0.331,-0.2798,-0.2573,-0.2477,-0.2245,-0.2081,-0.1981,-0.1878,-0.1778,-0.1709,-0.1845,-0.1845,-0.1811,-0.1878,-0.1911,-0.1818,-0.1503,-0.1635,-0.188,-0.1841,-0.2058,-0.2305,-0.261,-0.3282,-0.3997,-0.4657,-0.5298,-0.5942,-0.6611,-0.7118,-0.7655,-0.83,-0.8594,-0.8967,-0.9506,-0.9297,-0.9177,-0.9475,-0.9466,-0.9771,-1.0631,-1.0719,-1.0903,-1.1318,-1.1654,-1.1855,-1.1932,-1.2142,-1.2516,-1.3104,-1.3412,-1.3674,-1.3788,-1.3894,-1.3947,-1.3947,-1.3967,-1.4065,-1.3942,-1.4711,-1.5263,-1.5204,-1.5569,-1.5634,-1.4794,-1.4989,-1.5271,-1.5146,-1.407,-1.3021,-1.2683,-1.1528,0.0,-1.0302,-0.9579,-0.8873,-0.8229,-0.7187,-0.6369,-0.5903,-0.5579,-0.5379,-0.5381,-0.5455,-0.5575,-0.562,-0.5705,-0.5736,-0.5723,-0.5448,-0.5183,-0.5019,-0.4552,-0.4413,-0.4587,-0.4424,-0.4428,-0.4519,-0.4501,-0.4482,-0.4479,-0.4593,-0.4751,-0.49,-0.508,-0.5138,-0.5116,-0.5078,-0.4862,-0.4514,-0.4092,-0.3654,-0.3203,-0.2696,-0.2477,-0.238,-0.215,-0.2014,-0.1947,-0.1947,-0.1878,-0.1811,-0.2014,-0.2014,-0.1981,-0.2014,-0.1878,-0.165,-0.1375,-0.1327,-0.1366,-0.1491,-0.1782,-0.2035,-0.216,-0.2598,-0.3202,-0.3818,-0.4509,-0.5158,-0.5787,-0.6435,-0.7027,-0.7641,-0.83,-0.8958,-0.9545,-0.9506,-0.9426,-0.9545,-0.9496,-0.9844,-1.07,-1.058,-1.0765,-1.1473,-1.1583,-1.1659,-1.1773,-1.2467,-1.2926,-1.3107,-1.3604,-1.3895,-1.4012,-1.3967,-1.3947,-1.3947,-1.4,-1.4065,-1.4702,-1.5103,-1.5441,-1.6321,-1.5843,-1.4849,-1.3606,-1.4003,-1.4685,-1.4603,-1.2983,-1.1674,-1.1941,-1.0725,-0.9693,-0.9784,-0.9191,-0.8403,-0.7327,-0.6694,-0.6105,-0.5457,-0.5405,-0.5449,-0.5553,-0.554,-0.558,-0.5674,-0.5626,-0.5583,-0.5615,-0.5275,-0.5019,-0.4898,-0.4484,-0.425,-0.4274,-0.4271,-0.4307,-0.4391,-0.4212,-0.4215,-0.4382,-0.4666,-0.4954,-0.5168,-0.5054,-0.4979,-0.4914,-0.4672,-0.453,-0.4402,-0.3831,-0.3448,-0.311,-0.2693,-0.2414,-0.2217,-0.207,-0.1937,-0.1878,-0.1968,-0.194,-0.1947,-0.2183,-0.2183,-0.2083,-0.2047,-0.1709,-0.1286,-0.121,-0.0753,-0.0465,-0.1029,-0.1342,-0.1592,-0.1731,-0.1691,-0.1876,-0.2786,-0.3318,-0.3942,-0.4899,-0.5529,-0.6142,-0.6894,-0.8047,-0.8941,-0.9439,-0.9652,-0.964,-0.9421,-0.9627,-1.0178,-1.1079,-1.0545,-1.0666,-1.1861,-1.1568,-1.1427,-1.1608,-1.272,-1.334,-1.3416,-1.4048,-1.4362,-1.429,-1.4015,-1.3848,-1.3762,-1.3921,-1.4006,-1.5437,-1.5019,-1.4555,-1.5673,-1.4932,-1.3784,-1.2954,-1.2521,-1.2256,-1.2327,-1.1832,-1.1281,-1.1001,-0.9739,-0.8747,-0.8751,-0.7756,-0.6814,-0.633,-0.5993,-0.5697,-0.5444,-0.5515,-0.5429,-0.506,-0.5086,-0.4969,-0.4666,-0.4622,-0.453,-0.4299,-0.4308,-0.4224,-0.3917,-0.3975,-0.3983,-0.4,-0.4095,-0.4202,0.0,-0.3981,-0.3896,-0.4091,-0.4156,-0.4247,-0.4361,-0.434,-0.4318,-0.4291,-0.4459,-0.435,-0.4097,-0.3894,-0.349,-0.2952,-0.2789,-0.2311,-0.1797,-0.2194,-0.1932,-0.1495,-0.1878,-0.194,-0.1914,-0.2014,-0.2083,-0.2047,-0.1709,-0.154,-0.1276,-0.0545,-0.0439,-0.058,-0.07,-0.0895,-0.1139,-0.1417,-0.1612,-0.1951,-0.2687,-0.2996,-0.35,-0.4687,-0.4957,-0.5556,-0.693,-0.8047,-0.8918,-0.9439,-0.9899,-1.0183,-1.0164,-1.045,-1.0899,-1.15,-1.1425,-1.1339,-1.1388,-1.1504,-1.1236,-1.0426,-1.2425,-1.3506,-1.3415,-1.4076,-1.4326,-1.4219,-1.396,-1.3441,-1.2749,-1.3552,-1.3579,-1.4554,-1.4328,-1.402,-1.4482,-1.4026,-1.3276,-1.2262,-1.1461,-1.0863,-1.0541,-1.0225,-0.9894,-0.9541,-0.8469,-0.7578,-0.7439,-0.6643,-0.5941,-0.5797,-0.5392,-0.5071,-0.4989,-0.5035,-0.4923,-0.4554,-0.4542,-0.4482,-0.4224,-0.4224,-0.418,-0.4089,-0.418,-0.4057,-0.3762,-0.3975,-0.403,-0.391,-0.3962,-0.4004,-0.3993,-0.3672,-0.3438,-0.3298,-0.3667,-0.3896,-0.3993,-0.3993,-0.4026,-0.4058,-0.4215,-0.4151,-0.3914,-0.3651,-0.3267,-0.2789,-0.2631,-0.2185,-0.1736,-0.2084,-0.1763,-0.1265,-0.1552,-0.1635,-0.1609,-0.1744,-0.1981,-0.2117,-0.1676,-0.1371,-0.1004,-0.0302,0.0,0.0075,-0.0071,-0.056,-0.11,-0.1521,-0.1711,-0.1914,-0.2257,-0.2592,-0.3161,-0.4081,-0.4787,-0.561,-0.6803,-0.7716,-0.8456,-0.8958,-0.9596,-1.0059,-1.0242,-1.0453,-1.0873,-1.1528,-1.1352,-1.1223,-1.1241,-1.1182,-1.0882,-1.0251,-1.1787,-1.2591,-1.2498,-1.3108,-1.3569,-1.3766,-1.3483,-1.3192,-1.2946,-1.3406,-1.338,-1.3423,-1.3577,-1.3528,-1.287,-1.2829,-1.2571,-1.13,-1.0361,-0.9654,-0.9012,-0.868,-0.8404,-0.8173,-0.7201,-0.6374,-0.6182,-0.5734,-0.5338,-0.5293,-0.4864,-0.4526,-0.4486,-0.4427,-0.4256,-0.4016,-0.3957,-0.3913,-0.3869,-0.3869,-0.3873,-0.3921,-0.4008,-0.3904,-0.3598,-0.3929,-0.4005,-0.38,-0.3846,-0.3798,-0.3635,-0.3274,-0.2911,-0.251,-0.3138,-0.3532,-0.3686,-0.3691,-0.3793,-0.3928,-0.3928,-0.3839,-0.3689,-0.3339,-0.2914,-0.2547,-0.2324,-0.1943,-0.1569,-0.1761,-0.1394,-0.0901,-0.1092,-0.1129,-0.1138,-0.1375,-0.1688,-0.187,-0.1392,-0.0922,-0.0447,0.0035,0.0536,0.0841,0.0524,-0.0236,-0.104,-0.1532,-0.1668,-0.1685,-0.1774,-0.2273,-0.2862,-0.3476,-0.4661,-0.5798,-0.6641,-0.7342,-0.7998,-0.8553,-0.9318,-0.9903,-1.0149,-1.0282,-1.0673,-1.1378,-1.1031,-1.0849,-1.1127,-1.073,-1.0392,-1.0259,-1.0835,-1.1175,-1.1105,-1.2084,-1.285,-1.3406,-1.2937,-1.2908,-1.3272,-1.3011,-1.2944,-1.3839,-1.3613,-1.2928,-1.1109,-1.0855,-1.0703,-0.9177,-0.8424,-0.7934,-0.7438,-0.7815,-0.8054,-0.7506,-0.657,-0.5726,-0.5325,-0.4938,-0.4632,-0.4404,-0.4313,-0.431,-0.4459,-0.404,-0.3718,-0.3653,-0.3341,-0.3078,-0.2907,-0.2907,-0.2776,-0.2509,-0.2865,-0.2854,-0.2346,-0.2983,-0.3379,-0.3464,-0.3647,-0.3597,-0.336,-0.2735,-0.2441,-0.2408,-0.2335,-0.2501,-0.286,-0.2929,-0.3196,-0.3565,-0.3635,-0.3402,-0.3025,-0.3099,-0.2668,-0.1996,-0.1957,-0.133,-0.0561,-0.0914,-0.0546,0.0033,-0.0443,-0.0613,-0.0639,-0.0773,-0.0727,-0.0574,-0.0072,0.0259,0.0613,0.0998,0.1044,0.0932,0.073,0.0235,-0.0316,-0.0898,-0.1115,-0.1312,-0.1652,-0.2138,-0.2771,-0.3473,-0.422,-0.5265,-0.6725,-0.7391,-0.8088,-0.9079,-0.9794,-1.0247,-1.0335,-1.052,-1.084,-1.1302,-1.1152,-1.0851,-1.046,-1.039,-0.9978,-0.9237,-0.9406,-0.9533,-0.9591,-1.1937,-1.3406,-1.384,-1.279,-1.2296,-1.2263,-1.156,-1.152,-1.2881,-1.2349,-1.1503,-1.0572,-1.0159,-0.9749,-0.8809,-0.8057,-0.7378,-0.6939,-0.6784,-0.6646,-0.6542,-0.5823,-0.5019,-0.4267,-0.4122,-0.3877,-0.3213,-0.3245,-0.3388,-0.3358,-0.3158,-0.2946,-0.2898,-0.2724,-0.2637,-0.2687,-0.2687,-0.2642,-0.2509,-0.2773,-0.2742,-0.233,-0.2912,-0.3156,-0.3062,-0.2984,-0.2772,-0.2402,-0.1937,-0.1738,-0.1705,-0.1507,-0.1771,-0.2368,-0.2468,-0.2636,-0.2834,-0.2867,-0.2709,-0.2435,-0.2234,-0.1917,-0.1563,-0.1478,-0.0999,-0.0414,-0.0775,-0.0352,0.0301,-0.0065,0.0,0.014,-0.007,-0.0145,-0.0076,0.0302,0.0538,0.0704,0.1059,0.1039,0.095,0.0896,0.0692,0.038,-0.0275,-0.0816,-0.1311,-0.1691,-0.2207,-0.2896,-0.373,-0.426,-0.5048,-0.6441,-0.7027,-0.7592,-0.8366,-0.9045,-0.9624,-1.0065,-1.0202,-1.0427,-1.0821,-1.0718,-1.046,-1.0066,-0.9961,-0.9641,-0.9041,-0.9248,-0.9439,-0.9619,-1.1005,-1.1963,-1.2424,-1.2035,-1.1966,-1.2151,-1.1641,-1.1515,-1.174,-1.0884,-1.0128,-0.9922,-0.9371,-0.8746,-0.8163,-0.7279,-0.6523,-0.6141,-0.5497,-0.5023,-0.5244,-0.489,-0.427,-0.3435,-0.3378,-0.314,-0.2415,-0.2401,-0.2445,-0.2418,-0.2297,-0.2237,-0.2237,-0.2192,-0.2237,-0.2595,-0.2595,-0.2595,-0.2553,-0.2684,-0.26,-0.2262,-0.2609,-0.2757,-0.2692,-0.2419,-0.2106,-0.1742,-0.134,-0.1173,-0.1173,-0.0974,-0.1208,-0.1771,-0.2004,-0.2139,-0.2208,-0.2175,-0.2034,-0.1825,-0.1481,-0.1228,-0.1077,-0.0928,-0.0593,-0.0251,-0.0464,-0.0032,0.0538,0.0403,0.0518,0.0713,0.0542,0.0451,0.0431,0.0674,0.0844,0.1054,0.1381,0.1206,0.102,0.1404,0.1232,0.0787,0.0165,-0.0678,-0.1422,-0.1782,-0.2146,-0.2804,-0.3942,-0.4299,-0.4918,-0.6319,-0.6781,-0.7266,-0.7957,-0.8456,-0.902,-0.9712,-0.9738,-0.9897,-1.0277,-1.0179,-1.0013,-0.9769,-0.9641,-0.9427,-0.9033,-0.9248,-0.9478,-0.9658,-1.0244,-1.0819,-1.1345,-1.141,-1.1676,-1.2043,-1.148,-1.1275,-1.0491,-0.9848,-0.9103,-0.8576,-0.7962,-0.7234,-0.632,-0.5389,-0.4562,-0.4372,-0.3914,-0.3574,-0.3674,-0.3605,-0.3379,-0.2986,-0.2774,-0.2601,-0.2432,-0.2089,-0.1896,-0.2084,-0.1742,-0.1612,-0.2062,-0.1837,-0.1835,-0.2279,-0.2324,-0.2284,-0.2243,-0.2154,-0.1971,-0.1652,-0.1712,-0.1962,-0.2335,-0.2078,-0.1904,-0.1878,-0.1107,-0.0874,-0.111,-0.0908,-0.0808,-0.0807,-0.1306,-0.1676,-0.1911,-0.1776,-0.1554,-0.1224,-0.116,-0.0885,-0.0516,-0.0313,-0.003,0.0299,0.0471,0.0769,0.1076,0.1043,0.0978,0.0887,0.0933,0.1169,0.1422,0.1363,0.164,0.2049,0.2662,0.1835,0.1241,0.2565,0.1893,0.0749,0.0206,-0.065,-0.1431,-0.1884,-0.1792,-0.2233,-0.3989,-0.4081,-0.4604,-0.6568,-0.695,-0.7391,-0.8513,-0.8675,-0.8895,-0.9462,-0.9341,-0.9368,-0.9709,-0.9667,-0.9624,-0.9606,-0.9606,-0.9427,-0.9033,-0.9016,-0.9016,-0.9056,-1.0137,-1.0933,-1.1409,-1.1211,-1.1327,-1.1681,-1.022,-1.0085,-1.0376,-0.9325,-0.8212,-0.7949,-0.7163,-0.6203,-0.5133,-0.4609,-0.4172,-0.3745,-0.3297,-0.2886,-0.2623,-0.2765,-0.269,-0.1971,-0.1511,-0.0976,-0.0319,-0.0152,-0.0195,-0.0429,-0.0375,-0.0599,-0.1393,-0.0985,-0.0984,-0.1657,-0.1386,-0.1252,-0.1478,-0.1569,-0.1614,-0.1614,-0.1719,-0.1701,-0.161,-0.1358,-0.1174,-0.1007,-0.0639,-0.0538,-0.0706,-0.0639,-0.0605,-0.0571,-0.0873,-0.1074,-0.1209,-0.1176,-0.1038,-0.0798,-0.0706,-0.0571,-0.0404,-0.0269,0.0,0.0315,0.0385,0.0744,0.1211,0.141,0.141,0.1312,0.1406,0.1539,0.1603,0.1462,0.1691,0.2018,0.2059,0.1629,0.1364,0.1959,0.1609,0.1012,0.0478,-0.0398,-0.1208,-0.1748,-0.1884,-0.2326,-0.3646,-0.3953,-0.4522,-0.5959,-0.6441,-0.6907,-0.7739,-0.807,-0.8357,-0.8814,-0.8975,-0.9116,-0.9254,-0.923,-0.923,-0.923,-0.923,-0.917,-0.9024,-0.9128,-0.9128,-0.9016,-0.9913,-1.0399,-1.0456,-1.0915,-1.1159,-1.1173,-1.074,-1.0844,-1.0053,-0.868,-0.7433,-0.7345,-0.6384,-0.5272,-0.4366,-0.3958,-0.3628,-0.3209,-0.2539,-0.2023,-0.1736,-0.1587,-0.136,-0.0928,-0.0396,0.0221,0.0866,0.0995,0.0913,0.0743,0.0635,0.0286,-0.0505,-0.0183,-0.0273,-0.1031,-0.0671,0.0,-0.1164,-0.1119,-0.1208,-0.1433,-0.1546,-0.1459,-0.1087,-0.0959,-0.0719,-0.037,-0.0235,-0.0269,-0.0437,-0.037,-0.0403,-0.0504,-0.0639,-0.0706,-0.0706,-0.0739,-0.0625,-0.0476,-0.0349,-0.0306,-0.0289,-0.0166,0.0113,0.0446,0.0552,0.1006,0.157,0.1927,0.1921,0.1806,0.1761,0.171,0.1649,0.1308,0.1695,0.219,0.2188,0.216,0.2086,0.1684,0.1565,0.1343,0.058,-0.0268,-0.1119,-0.1749,-0.2018,-0.246,-0.3649,-0.3997,-0.4522,-0.5744,-0.619,-0.6666,-0.7454,-0.7704,-0.807,-0.8683,-0.9013,-0.9161,-0.9073,-0.9136,-0.9161,-0.9065,-0.9016,-0.9016,-0.9016,-0.9128,-0.9128,-0.9016,-0.9677,-0.9864,-0.9619,-1.0635,-1.1024,-1.0711,-1.1377,-1.1902,0.0,0.0,0.0,-0.6741,-0.562,-0.4451,-0.3891,-0.3299,-0.2817,-0.2527,-0.1606,-0.0898,-0.1066,0.0,0.0729,0.0168,0.0448,0.0782,0.095,0.1249,0.1382,0.1274,0.1182,0.0992,0.0574,0.0572,0.0328,-0.0315,-0.0314,-0.0583,-0.1208,-0.0895,-0.0805,-0.1074,-0.1203,-0.1152,-0.0906,-0.0898,-0.0604,-0.0101,0.0034,-0.0034,-0.0269,-0.0134,-0.0235,-0.0504,-0.0639,-0.0605,-0.0504,-0.0437,-0.037,-0.0303,-0.0168,-0.0097,-0.0092,-0.0031,0.0296,0.0762,0.108,0.159,0.2191,0.2583,0.2567,0.2329,0.1952,0.1773,0.1579,0.1084,0.1738,0.2711,0.3213,0.3485,0.334,0.1951,0.1826,0.1657,0.049,-0.0357,-0.1119,-0.1928,-0.2103,-0.2586,-0.4081,-0.4208,-0.4552,-0.5959,-0.6276,-0.6702,-0.7614,-0.7739,-0.807,-0.9073,-0.9426,-0.9512,-0.9246,-0.9443,-0.9503,-0.9238,-0.9082,-0.8992,-0.8992,-0.9024,-0.9016,-0.9016,-0.939,-0.9399,-0.9033,-1.0409,-1.0826,-1.0382,-1.1921,-1.3079,-0.9591,0.0,0.0,0.0,0.0,0.0,-0.3157,-0.2714,-0.2214,-0.1599,-0.0804,-0.023,-0.0169,0.0504,0.1175,0.1512,0.1903,0.2183,0.2347,0.2494,0.2619,0.2501,0.2423,0.2118,0.1491,0.1734,0.1657,0.0,0.126,0.1153,0.0493,-0.0134,-0.0582,-0.0808,-0.0818,-0.0795,-0.0744,-0.0419,-0.0217,-0.0178,0.0206,0.0303,0.0134,0.0269,0.0202,-0.0067,-0.0168,-0.0269,-0.037,-0.0538,-0.0538,-0.0437,-0.0303,-0.0227,-0.0154,-0.0092,0.0296,0.0819,0.111,0.1683,0.2408,0.3075,0.2871,0.2414,0.2548,0.2143,0.1652,0.1736,0.2221,0.29,0.3548,0.3437,0.302,0.2505,0.2174,0.1748,0.076,-0.0045,-0.0937,-0.2012,-0.2326,-0.2546,-0.2943,-0.3686,-0.4382,-0.4778,-0.5572,-0.619,-0.6483,-0.7287,-0.7939,-0.8242,-0.9093,-0.9636,-0.9573,-0.962,-0.9636,-0.9573,-0.9401,-0.9292,-0.9292,-0.912,-0.9016,-0.9016,-0.9096,-0.9429,-1.0003,-1.0196,-1.0567,-1.1084,-1.2799,-1.3891,-0.9627,-0.7926,-0.6415,-0.6502,0.0,0.0,-0.3069,-0.264,-0.2209,-0.1298,-0.0626,-0.0057,0.0337,0.0895,0.151,0.224,0.2465,0.2689,0.2854,0.3077,0.3219,0.3155,0.3153,0.2895,0.2376,0.2573,0.2484,0.2001,0.2158,0.1962,0.1166,0.0447,-0.009,-0.0494,-0.0438,-0.0472,-0.059,-0.0199,0.0,-0.0036,0.0459,0.0584,0.0471,0.0571,0.0471,0.0168,0.0067,-0.0034,-0.0067,-0.0437,-0.0538,-0.0437,-0.0235,-0.0227,-0.0246,0.0062,0.0436,0.0838,0.1212,0.1939,0.2817,0.3278,0.3118,0.2812,0.2943,0.242,0.1855,0.2026,0.2657,0.3412,0.4148,0.3818,0.3158,0.2851,0.2235,0.1524,0.076,0.0045,-0.0803,-0.1834,-0.2281,-0.2593,-0.2815,-0.3605,-0.4299,-0.4565,-0.5399,-0.6182,-0.6718,-0.7392,-0.7994,-0.8536,-0.9313,-0.9752,-0.9606,-0.996,-1.0162,-1.0055,-1.018,-1.0144,-0.9847,-0.9696,-0.9453,-0.9164,-0.9453,-1.0095,-1.112,-1.0721,-1.124,-1.2624,-1.3676,-1.4305,-0.969,-0.84,-0.7239,-0.6509,-0.5851,0.0,-0.3266,-0.2876,-0.2501,-0.1354,-0.0675,-0.0056,0.0559,0.1229,0.19,0.2508,0.2561,0.2679,0.2858,0.3193,0.3408,0.345,0.3561,0.3517,0.3139,0.3129,0.3039,0.2796,0.2633,0.2195,0.13,0.0939,0.0492,-0.0045,-0.0179,-0.0265,-0.034,-0.0084,0.0121,0.0257,0.0694,0.0851,0.0773,0.0841,0.0706,0.0403,0.0168,0.0202,0.0303,-0.0168,-0.0336,-0.0303,-0.0134,-0.0195,-0.0277,0.0277,0.0627,0.0898,0.1374,0.227,0.3226,0.3315,0.3354,0.3325,0.3208,0.2705,0.2199,0.2222,0.3083,0.4143,0.4876,0.4461,0.3683,0.3117,0.2233,0.1343,0.0672,0.0,-0.0716,-0.1389,-0.2014,-0.264,-0.3176,-0.37,-0.4264,-0.4787,-0.5491,-0.6365,-0.7504,-0.7589,-0.8034,-0.919,-0.9596,-0.9715,-0.9549,-1.0328,-1.075,-1.0558,-1.1109,-1.117,-1.0696,-1.057,-1.0273,-0.9667,-1.0352,-1.1188,-1.22,-1.1767,-1.2497,-1.4297,-1.4398,-1.4444,-1.0272,-0.8974,-0.7757,-0.6782,-0.585,0.0,-0.3116,-0.264,-0.2209,-0.1298,-0.0172,0.0635,0.0505,0.1566,0.2609,0.3074,0.3166,0.3094,0.2905,0.3023,0.3319,0.3764,0.4018,0.4108,0.3918,0.3862,0.3696,0.3316,0.3112,0.2706,0.2105,0.1383,0.0937,0.0671,0.009,-0.0179,-0.0089,0.0257,0.041,0.0465,0.0856,0.1099,0.1179,0.1313,0.1246,0.1009,0.0739,0.0672,0.0672,0.0067,-0.0034,0.0101,-0.037,-0.0292,0.0062,-0.0185,0.0322,0.1184,0.1674,0.2427,0.3278,0.3663,0.3699,0.3616,0.3588,0.318,0.2856,0.3393,0.4038,0.4728,0.5275,0.5092,0.4522,0.351,0.276,0.2008,0.1032,0.0134,-0.0626,-0.0985,-0.1703,-0.2288,-0.2422,-0.3255,-0.3997,-0.4081,-0.4961,-0.575,-0.6174,-0.6509,-0.7148,-0.8183,-0.8792,-0.9318,-0.9837,-1.0066,-1.037,-1.0806,-1.0841,-1.1091,-1.1611,-1.143,-1.133,-1.1416,-1.2101,-1.2645,-1.3005,-1.3015,-1.3199,-1.3626,-1.4552,-1.4915,-1.0824,-0.957,0.0,-0.7181,-0.6379,0.0,0.0,-0.2991,-0.2673,-0.1581,-0.0738,0.0,0.0617,0.1454,0.2227,0.2957,0.3222,0.3311,0.3103,0.338,0.3736,0.4182,0.4328,0.443,0.4426,0.4372,0.4188,0.377,0.3602,0.3236,0.2553,0.2094,0.155,0.0938,0.0502,0.0183,-0.009,0.0308,0.0547,0.0666,0.0919,0.1201,0.1444,0.1481,0.1415,0.1246,0.0942,0.0808,0.0739,0.0034,-0.0101,0.0067,-0.0235,-0.0259,-0.0153,-0.0089,0.0402,0.1059,0.1448,0.2294,0.3233,0.3451,0.3514,0.3596,0.3732,0.3565,0.3461,0.4173,0.4603,0.5021,0.5674,0.5184,0.4395,0.373,0.2716,0.1787,0.1121,0.0179,-0.0626,-0.076,-0.1569,-0.2199,-0.2241,-0.3164,-0.3906,-0.3906,-0.4874,-0.5799,-0.6265,-0.6764,-0.7424,-0.8333,-0.8926,-0.9387,-0.9762,-1.0138,-1.0438,-1.0812,-1.1219,-1.1495,-1.161,-1.1454,-1.1631,-1.2158,-1.2534,-1.3212,-1.4137,-1.3637,-1.3648,-1.4125,-1.4391,-1.4351,0.0,0.0,0.0,0.0,0.0,-0.6023,0.0,0.0,0.0,-0.1973,-0.1458,-0.0783,0.0609,0.1107,0.1654,0.2672,0.0,0.0,0.0,0.3751,0.0,0.4597,0.4654,0.4755,0.4849,0.4759,0.4575,0.431,0.4266,0.3927,0.3033,0.277,0.2166,0.1129,0.0794,0.042,0.0,0.0314,0.0602,0.0821,0.0981,0.1236,0.1567,0.152,0.1456,0.1333,0.1014,0.088,0.082,0.0034,-0.0168,-0.0067,-0.0168,-0.029,-0.0361,0.0116,0.0565,0.0945,0.1331,0.2185,0.3146,0.3177,0.3295,0.3506,0.3805,0.3798,0.3846,0.4624,0.4883,0.5094,0.586,0.5191,0.4216,0.377,0.2625,0.1521,0.1164,0.0134,-0.0671,-0.0671,-0.1478,-0.2199,-0.2281,-0.3161,-0.3906,-0.3906,-0.4923,-0.5892,-0.6621,-0.7025,-0.7557,-0.8439,-0.8903,-0.9277,-0.9444,-1.0064,-1.0525,-1.0753,-1.1534,-1.1832,-1.151,-1.1544,-1.1827,-1.2368,-1.25,-1.3191,-1.4628,-1.3732,-1.3752,-1.4673,-1.4129,-1.3647,0.0,0.0,0.0,0.0,-0.7214,0.0,0.0,0.0,-0.2977,-0.2296,0.0,-0.0609,-0.0054,0.0,0.0,0.25,0.2658,0.0,0.3152,0.3846,0.4394,0.4735,0.5125,0.5311,0.5078,0.5097,0.5115,0.4976,0.5195,0.4939,0.4055,0.3166,0.2445,0.1888,0.0713,0.0234,0.0584,0.0494,0.0559,0.0903,0.1101,0.1262,0.1408,0.1545,0.1583,0.1544,0.1271,0.1142,0.1117,0.048,0.0168,0.0,-0.0706,-0.0629,-0.0142,-0.006,0.05,0.1325,0.1828,0.241,0.3005,0.3334,0.3533,0.3704,0.3849,0.3798,0.3818,0.4396,0.4766,0.5061,0.5487,0.5376,0.4865,0.3763,0.2932,0.214,0.1297,0.0134,-0.0671,-0.0537,-0.1433,-0.2201,-0.2199,-0.3164,-0.3906,-0.3906,-0.4831,-0.5624,-0.5906,-0.5734,-0.5957,-0.7008,-0.7505,-0.8075,-0.8835,-0.9399,-0.9976,-1.06,-1.1049,-1.1543,-1.207,-1.2425,-1.2541,-1.2387,-1.2541,-1.2715,-1.2899,-1.2861,-1.3351,-1.4269,-1.3695,-1.3362,0.0,0.0,0.0,0.0,0.0,0.0,-0.5046,0.0,-0.4009,0.0,0.0,0.0,0.0,0.0,0.0,0.0,0.2606,0.2832,0.0,0.0,0.4389,0.4642,0.0,0.0,0.537,0.51,0.483,0.4415,0.4518,0.4263,0.3607,0.3029,0.2384,0.157,0.0915,0.052,0.0418,0.05,0.0741,0.102,0.1155,0.1263,0.1416,0.1547,0.1556,0.1454,0.1172,0.0972,0.0798,0.0206,-0.0099,-0.0224,-0.064,-0.0577,-0.0252,-0.0055,0.0514,0.1251,0.1759,0.2328,0.2903,0.3256,0.3538,0.3672,0.3499,0.3536,0.377,0.4346,0.4734,0.5006,0.5111,0.4834,0.42,0.297,0.2226,0.1654,0.0987,0.009,-0.0582,-0.0626,-0.1478,-0.2199,-0.2239,-0.3161,-0.3906,-0.3906,-0.4977,-0.5773,-0.5742,-0.6061,-0.6421,-0.6783,-0.764,-0.8323,-0.8738,-0.9302,-0.9829,-1.0411,-1.0673,-1.0942,-1.1217,-1.1661,-1.1955,-1.2061,-1.2138,-1.2384,-1.2735,-1.2178,-1.2295,-1.2919,-1.289,-1.2783,-1.3173,0.0,0.0,0.0,0.0,0.0,0.0,0.0,0.0,0.0,0.0,0.0,0.0,0.0,0.0722,0.1727,0.0,0.2523,0.2479,0.3317,0.4068,0.4515,0.0,0.0,0.0,0.4987,0.4556,0.4108,0.412,0.388,0.3178,0.2901,0.2307,0.1237,0.1024,0.0718,0.0281,0.041,0.0615,0.0923,0.0923,0.1078,0.1296,0.1455,0.1455,0.1348,0.1121,0.0845,0.0545,0.0105,-0.0266,-0.0472,-0.0403,-0.0329,-0.0257,0.0134,0.0701,0.1332,0.1729,0.2336,0.2983,0.3276,0.3563,0.3705,0.327,0.3502,0.3996,0.4322,0.4811,0.5225,0.5107,0.4504,0.3628,0.262,0.1828,0.121,0.0943,0.0134,-0.0537,-0.0582,-0.1433,-0.2196,-0.2281,-0.3073,-0.3778,-0.3909,-0.4955,-0.5729,-0.5652,-0.6192,-0.6573,-0.6457,-0.7671,-0.8552,-0.8698,-0.951,-1.0219,-1.0613,-1.0731,-1.0776,-1.0776,-1.1165,-1.1376,-1.1475,-1.156,-1.1801,-1.215,-1.1501,-1.1368,-1.171,-1.2017,-1.2107,0.0,0.0,0.0,-1.1116,0.0,0.0,0.0,0.0,-0.5774,0.0,0.0,0.0,0.0,0.0,0.0197,0.123,0.1437,0.0,0.0,0.2591,0.3302,0.428,0.4538,0.0,0.0,0.4788,0.4485,0.4481,0.4743,0.4375,0.3266,0.2895,0.2256,0.1339,0.0839,0.0583,0.0496,0.0045,0.0044,0.0421,0.036,0.0587,0.1016,0.1203,0.1318,0.1315,0.1275,0.1019,0.0583,0.0437,-0.0035,-0.0633,0.0031,0.0123,-0.0061,0.0484,0.1113,0.1725,0.1983,0.261,0.3313,0.3511,0.3785,0.3896,0.3425,0.3995,0.4676,0.4328,0.4998,0.5832,0.5556,0.4696,0.3774,0.3287,0.223,0.1299,0.1299,0.0358,-0.0492,-0.0403,-0.1254,-0.2062,-0.2279,-0.2812,-0.3432,-0.4001,-0.4622,-0.5145,-0.5448,-0.555,-0.5551,-0.5636,-0.7158,-0.8292,-0.8482,-1.0075,-1.1209,-1.1531,-1.1516,-1.146,-1.146,-1.1501,-1.1259,-1.0769,-1.0871,-1.082,-1.0565,-1.082,-1.0922,-1.0922,-1.1217,-1.1326,0.0,0.0,-1.2511,-1.1408,0.0,0.0,0.0,0.0,0.0,0.0,0.0,0.0,0.0,0.0,-0.0938,0.0611,0.0775,0.1073,0.0,0.3055,0.3727,0.3972,0.4353,0.457,0.0,0.0,0.4105,0.3559,0.3559,0.3076,0.1995,0.1895,0.1606,0.0904,0.0411,0.0151,0.0151,-0.0383,-0.0417,0.0091,0.0255,0.0533,0.0862,0.1156,0.1281,0.1226,0.0999,0.0839,0.0693,0.0073,-0.0173,-0.019,-0.0248,0.0031,0.0579,0.1196,0.1514,0.1715,0.2336,0.2825,0.3208,0.3501,0.3534,0.3452,0.3441,0.3739,0.4132,0.4336,0.4935,0.5398,0.4909,0.4164,0.3372,0.2583,0.1654,0.0898,0.0898,0.009,-0.0582,-0.0492,-0.1299,-0.2062,-0.2196,-0.233,-0.2771,-0.3913,-0.4727,-0.5261,-0.5468,-0.5676,-0.5769,-0.5758,-0.6633,-0.7571,-0.8354,-0.9969,-1.0961,-1.0989,-1.1123,-1.12,-1.1103,-1.12,-1.1077,-1.0718,-1.082,-1.0769,-1.0522,-1.0522,-1.0503,-1.0524,-1.0409,-1.0631,-1.4098,-1.3769,0.0,-1.211,-1.1823,0.0,-1.0281,0.0,-0.9252,0.0,0.0,0.0,0.0,0.0,-0.0971,0.0328,0.0547,0.0984,0.0,0.3285,0.382,0.341,0.3931,0.4263,0.4023,0.3989,0.3761,0.3116,0.2963,0.2476,0.0,0.0,0.1095,0.0324,0.0052,-0.0207,-0.0574,-0.0797,-0.0724,-0.0238,0.0133,0.0426,0.0756,0.0973,0.103,0.0941,0.076,0.0593,0.0474,0.0,-0.0138,-0.0063,-0.0063,0.0313,0.0882,0.1331,0.1612,0.1923,0.269,0.306,0.3274,0.3555,0.3564,0.3425,0.3335,0.3853,0.4416,0.4181,0.5003,0.5732,0.4717,0.4077,0.3456,0.2406,0.1566,0.0988,0.0809,0.0045,-0.0582,-0.0492,-0.1254,-0.1928,-0.2154,-0.2109,-0.2462,-0.3869,-0.45,-0.4938,-0.5338,-0.5745,-0.5903,-0.5763,-0.6569,-0.765,-0.8858,-0.9936,-1.0568,-1.0638,-1.0887,-1.0859,-1.0606,-1.0859,-1.082,-1.033,-1.0602,-1.0602,-1.0229,-1.0509,-1.0554,-1.0434,-1.0467,-1.0731]},{"header":{"parameterUnit":"m.s-1","parameterCategory":1,"la1":30.6,"la2":29.2853,"lo1":-89.7004,"lo2":-87.6739,"dy":0.0162,"dx":0.0183,"nx":112,"ny":82,"refTime":"2023-09-10T18:00:00:Z","depth":0,"parameterNumber":3,"parameterNumberName":"V-component_of_WINDS"},"data":[0.0,0.0,0.0,0.0,0.0,0.0,0.0,0.0,0.0,0.0,0.0,0.0,0.0,0.0,0.0,0.0,0.0,0.0,0.0,0.0,0.0,0.0,0.0,0.0,0.0,0.0,0.0,0.0,0.0,0.0,0.0,0.0,0.0,0.0,0.0,0.0,0.0,0.0,0.0,0.0,0.0,0.0,0.0,0.0,0.0,0.0,0.0,0.0,0.0,0.0,0.0,0.0,0.0,0.0,0.0,0.0,0.0,0.0,0.0,0.0,0.0,0.0,0.0,0.0,0.0,0.0,0.0,0.0,0.0,0.0,0.0,0.0,0.0,0.0,0.0,0.0,0.0,0.0,0.0,0.0,0.0,0.0,0.0,0.0,0.0,0.0,0.0,0.0,0.0,0.0,-0.543,-0.6731,-0.7858,-0.9005,-1.045,-1.1846,-1.352,-1.5427,0.0,0.0,0.0,0.0,0.0,0.0,0.0,0.0,0.0,0.0,0.0,0.0,0.0,0.0,0.0,0.0,0.0,0.0,0.0,0.0,0.0,0.0,0.0,0.0,0.0,0.0,0.0,0.0,0.0,0.0,0.0,0.0,0.0,0.0,0.0,0.0,0.0,0.0,0.0,0.0,0.0,0.0,0.0,0.0,0.0,0.0,0.0,0.0,0.0,0.0,0.0,0.0,0.0,0.0,0.0,0.0,0.0,0.0,0.0,0.0,0.0,0.0,0.0,0.0,0.0,0.0,0.0,0.0,0.0,0.0,0.0,0.0,0.0,0.0,0.0,0.0,0.0,0.0,0.0,0.0,0.0,0.0,0.0,0.0,0.0,0.0,0.0,0.0,0.0,0.0,0.0,0.0,0.0,0.0,0.0,0.0,0.0,0.0,0.0,0.0,0.0,0.0,0.0,0.0,-0.5577,-0.7253,-0.7981,-0.9115,-1.1106,-1.1575,-1.2919,-1.5557,0.0,0.0,0.0,0.0,0.0,0.0,0.0,0.0,0.0,0.0,0.0,0.0,0.0,0.0,0.0,0.0,0.0,0.0,0.0,0.0,0.0,0.0,0.0,0.0,0.0,0.0,0.0,0.0,0.0,0.0,0.0,0.0,0.0,0.0,0.0,0.0,0.0,0.0,0.0,0.0,0.0,0.0,0.0,0.0,0.0,0.0,0.0,0.0,0.0,0.0,0.0,0.0,0.0,0.0,0.0,0.0,0.0,0.0,0.0,0.0,0.0,0.0,0.0,0.0,0.0,0.0,0.0,0.0,0.0,0.0,0.0,0.0,0.0,0.0,0.0,0.0,0.0,0.0,0.0,0.0,0.0,0.0,0.0,0.0,0.0,0.0,0.0,0.0,0.0,0.0,0.0,0.0,0.0,0.0,0.0,0.0,0.0,0.0,0.0,0.0,0.0,0.0,0.0,-0.5654,-0.6392,-0.7387,-0.8313,-0.9446,-1.0852,-1.1791,-1.3085,-1.5145,-1.472,0.0,0.0,0.0,0.0,0.0,0.0,0.0,0.0,0.0,0.0,0.0,0.0,0.0,0.0,0.0,0.0,0.0,0.0,0.0,0.0,0.0,0.0,0.0,0.0,0.0,0.0,0.0,0.0,0.0,0.0,0.0,0.0,0.0,0.0,0.0,0.0,0.0,0.0,0.0,0.0,0.0,0.0,0.0,0.0,0.0,0.0,0.0,0.0,0.0,0.0,0.0,0.0,0.0,0.0,0.0,0.0,0.0,0.0,0.0,0.0,0.0,0.0,0.0,0.0,0.0,0.0,0.0,0.0,0.0,0.0,0.0,0.0,0.0,0.0,0.0,0.0,0.0,0.0,0.0,0.0,0.0,0.0,0.0,0.0,0.0,0.0,0.0,0.0,0.0,0.0,0.0,0.0,0.0,0.0,0.0,0.0,0.0,0.0,0.0,0.0,0.0,0.0,-0.6359,-0.7246,-0.771,-0.877,-0.984,-1.0767,-1.1903,-1.3271,-1.4703,-1.4332,0.0,0.0,0.0,0.0,0.0,0.0,0.0,0.0,0.0,0.0,0.0,0.0,0.0,0.0,0.0,0.0,0.0,0.0,0.0,0.0,0.0,0.0,0.0,0.0,0.0,0.0,0.0,0.0,0.0,0.0,0.0,0.0,0.0,0.0,0.0,0.0,0.0,0.0,0.0,0.0,0.0,0.0,0.0,0.0,0.0,0.0,0.0,0.0,0.0,0.0,0.0,0.0,0.0,0.0,0.0,0.0,0.0,0.0,0.0,0.0,0.0,0.0,0.0,0.0,0.0,0.0,0.0,0.0,0.0,0.0,0.0,0.0,0.0,0.0,0.0,0.0,0.0,0.0,0.0,0.0,0.0,0.0,0.0,0.0,0.0,0.0,0.0,0.0,0.0,0.0,0.0,0.0,0.0,0.0,0.0,0.0,0.0,0.0,0.0,0.0,0.0,0.0,-0.6742,-0.7936,-0.8546,-0.9372,-1.0296,-1.1408,-1.1884,-1.2817,-1.4687,-1.3964,0.0,0.0,0.0,0.0,0.0,0.0,0.0,0.0,0.0,0.0,0.0,0.0,0.0,0.0,0.0,0.0,0.0,0.0,0.0,0.0,0.0,0.0,0.0,0.0,0.0,0.0,0.0,0.0,0.0,0.0,0.0,0.0,0.0,0.0,0.0,0.0,0.0,0.0,0.0,0.0,0.0,0.0,0.0,0.0,0.0,0.0,0.0,0.0,0.0,0.0,0.0,0.0,0.0,0.0,0.0,0.0,0.0,0.0,0.0,0.0,0.0,0.0,0.0,0.0,0.0,0.0,0.0,0.0,0.0,0.0,0.0,0.0,0.0,0.0,0.0,0.0,0.0,0.0,0.0,0.0,0.0,0.0,0.0,0.0,0.0,0.0,0.0,0.0,0.0,0.0,0.0,0.0,0.0,0.0,0.0,0.0,0.0,0.0,0.0,0.0,0.0,0.0,-0.6364,-0.748,-0.8551,-0.9003,-0.9711,-1.1175,-1.139,-1.2264,-1.424,0.0,0.0,0.0,0.0,0.0,0.0,0.0,0.0,0.0,0.0,0.0,0.0,0.0,0.0,0.0,0.0,0.0,0.0,0.0,0.0,0.0,0.0,0.0,0.0,0.0,0.0,0.0,0.0,0.0,0.0,0.0,0.0,0.0,0.0,0.0,0.0,0.0,0.0,0.0,0.0,0.0,0.0,0.0,0.0,0.0,0.0,0.0,0.0,0.0,0.0,0.0,0.0,0.0,0.0,0.0,0.0,0.0,0.0,0.0,0.0,0.0,0.0,0.0,0.0,0.0,0.0,0.0,0.0,0.0,0.0,0.0,0.0,0.0,0.0,0.0,0.0,0.0,0.0,0.0,0.0,0.0,0.0,0.0,0.0,0.0,0.0,0.0,0.0,0.0,0.0,0.0,0.0,0.0,0.0,0.0,0.0,0.0,0.0,0.0,0.0,0.0,0.0,-0.5303,-0.6143,-0.7173,-0.8546,-0.8775,-0.9453,-1.0962,-1.1111,-1.181,-1.3546,0.0,0.0,0.0,0.0,0.0,0.0,0.0,0.0,0.0,0.0,0.0,0.0,0.0,0.0,0.0,0.0,0.0,0.0,0.0,0.0,0.0,0.0,0.0,0.0,0.0,0.0,0.0,0.0,0.0,0.0,0.0,0.0,0.0,0.0,0.0,0.0,0.0,0.0,0.0,0.0,0.0,0.0,0.0,0.0,0.0,0.0,0.0,0.0,0.0,0.0,0.0,0.0,0.0,0.0,0.0,0.0,0.0,0.0,0.0,0.0,0.0,0.0,0.0,0.0,0.0,0.0,0.0,0.0,0.0,0.0,0.0,0.0,0.0,0.0,0.0,0.0,0.0,0.0,0.0,0.0,0.0,0.0,0.0,0.0,0.0,0.0,0.0,0.0,0.0,0.0,0.0,0.0,0.0,0.0,0.0,0.0,0.0,0.0,0.0,0.0,0.0,0.0,-0.5303,-0.6289,-0.7322,-0.8546,-0.8851,-0.9528,-1.0962,-1.1111,-1.1586,0.0,0.0,0.0,0.0,0.0,0.0,0.0,0.0,0.0,0.0,0.0,0.0,0.0,0.0,0.0,0.0,0.0,0.0,0.0,0.0,0.0,0.0,0.0,0.0,0.0,0.0,0.0,0.0,0.0,0.0,0.0,0.0,0.0,0.0,0.0,0.0,0.0,0.0,0.0,0.0,0.0,0.0,0.0,0.0,0.0,0.0,0.0,0.0,0.0,0.0,0.0,0.0,0.0,0.0,0.0,0.0,0.0,0.0,0.0,0.0,0.0,0.0,0.0,0.0,0.0,0.0,0.0,0.0,0.0,0.0,0.0,0.0,0.0,0.0,0.0,0.0,0.0,0.0,0.0,0.0,0.0,0.0,0.0,0.0,0.0,0.0,0.0,0.0,0.0,0.0,0.0,0.0,0.0,0.0,0.0,0.0,0.0,0.0,0.0,0.0,0.0,0.0,0.0,-0.4651,-0.5457,-0.6395,-0.7548,-0.8318,-0.9155,-1.0143,-1.0738,-1.152,-1.2549,0.0,0.0,0.0,0.0,0.0,0.0,0.0,0.0,0.0,0.0,0.0,0.0,0.0,0.0,0.0,0.0,0.0,0.0,0.0,0.0,0.0,0.0,0.0,0.0,0.0,0.0,0.0,0.0,0.0,0.0,0.0,0.0,0.0,0.0,0.0,0.0,0.0,0.0,0.0,0.0,0.0,0.0,0.0,0.0,0.0,0.0,0.0,0.0,0.0,0.0,0.0,0.0,0.0,0.0,0.0,0.0,0.0,0.0,0.0,0.0,0.0,0.0,0.0,0.0,0.0,0.0,0.0,0.0,0.0,0.0,0.0,0.0,0.0,0.0,0.0,0.0,0.0,0.0,0.0,0.0,0.0,0.0,0.0,0.0,0.0,0.0,0.0,0.0,0.0,0.0,0.0,0.0,0.0,0.0,0.0,0.0,0.0,0.0,0.0,0.0,0.0,0.0,-0.4287,-0.4961,-0.5768,-0.6988,-0.79,-0.8783,-0.9691,-1.0586,-1.1351,-1.1957,0.0,0.0,0.0,0.0,0.0,0.0,0.0,0.0,0.0,0.0,0.0,0.0,0.0,0.0,0.0,0.0,0.0,0.0,0.0,0.0,0.0,0.0,0.0,0.0,0.0,0.0,0.0,0.0,0.0,0.0,0.0,0.0,0.0,0.0,0.0,0.0,0.0,0.0,0.0,0.0,0.0,0.0,0.0,0.0,0.0,0.0,0.0,0.0,0.0,0.0,0.0,0.0,0.0,0.0,0.0,0.0,0.0,0.0,0.0,0.0,0.0,0.0,0.0,0.0,0.0,0.0,0.0,0.0,0.0,0.0,0.0,0.0,0.0,0.0,0.0,0.0,0.0,0.0,0.0,0.0,0.0,0.0,0.0,0.0,0.0,0.0,0.0,0.0,0.0,0.0,0.0,0.0,0.0,0.0,0.0,0.0,0.0,0.0,0.0,0.0,0.0,0.0,-0.423,-0.4683,-0.5429,-0.6637,-0.7419,-0.8298,-0.9389,-1.0329,-1.0935,-1.1024,0.0,0.0,0.0,0.0,0.0,0.0,0.0,0.0,0.0,0.0,0.0,0.0,0.0,0.0,0.0,0.0,0.0,0.0,0.0,0.0,0.0,0.0,0.0,0.0,0.0,0.0,0.0,0.0,0.0,0.0,0.0,0.0,0.0,0.0,0.0,0.0,0.0,0.0,0.0,0.0,0.0,0.0,0.0,0.0,0.0,0.0,0.0,0.0,0.0,0.0,0.0,0.0,0.0,0.0,0.0,0.0,0.0,0.0,0.0,0.0,0.2303,0.0,0.0,0.0,0.0,0.0,0.0,0.0,0.0,0.0,0.0,0.0,0.0,0.0,0.0,0.0,0.0,0.0,0.0,0.0,0.0,0.0,0.0,0.0,0.0,0.0,0.0,0.0,0.0,0.0,0.0,0.0,0.0,0.0,0.0,0.0,0.0,0.0,0.0,0.0,0.0,0.0,-0.3736,-0.4288,-0.5014,-0.5797,-0.6618,-0.752,-0.8597,-0.9251,-0.9968,-1.0673,-1.1457,0.0,0.0,0.0,0.0,0.0,0.0,0.0,0.0,0.0,0.0,0.0,0.0,0.0,0.0,0.0,0.0,0.0,0.0,0.0,0.0,0.0,0.0,0.0,0.0,0.0,0.0,0.0,0.0,0.0,0.0,0.0,0.0,0.0,0.0,0.0,0.0,0.0,0.0,0.0,0.0,0.0,0.0,0.0,0.0,0.0,0.0,0.0,0.0,0.0,0.0,0.0,0.0,0.0,0.0,0.0,0.0,0.0,0.0,0.0,0.0,0.2321,0.0,0.0,0.0,0.0,0.0,0.0,0.0,0.0,0.0,0.0,0.0,0.0,0.0,0.0,0.0,0.0,0.0,0.0,0.0,0.0,0.0,0.0,0.0,0.0,0.0,0.0,0.0,0.0,0.0,0.0,0.0,0.0,0.0,0.0,0.0,0.0,0.0,0.0,0.0,0.0,-0.3545,-0.4108,-0.4617,-0.4975,-0.6111,-0.7103,-0.765,-0.8826,-0.9793,-1.0473,-1.1056,0.0,0.0,0.0,0.0,0.0,0.0,0.0,0.0,0.0,0.0,0.0,0.0,0.0,0.0,0.0,0.0,0.0,0.0,0.0,0.0,0.0,0.0,0.0,0.0,0.0,0.0,0.0,0.0,0.0,0.0,0.0,0.0,0.0,0.0,0.0,0.0,0.0,0.0,0.0,0.0,0.0,0.0,0.0,0.0,0.0,0.0,0.0,0.0,0.0,0.0,0.0,0.0,0.0,0.7082,0.6821,0.6896,0.6065,0.548,0.5233,0.4554,0.3914,0.3179,0.2358,0.0,0.0,0.0,0.0,0.0,0.0,0.0,0.0,0.0,0.0,0.0,0.0,0.0,0.0,0.0,0.0,0.0,0.0,0.0,0.0,0.0,0.0,0.0,0.0,0.1276,0.0997,0.0,0.0,0.0,0.0,0.0,0.0,0.0,0.0,0.0,0.0,0.0,0.0,-0.3345,-0.3925,-0.422,-0.4312,-0.5603,-0.6535,-0.6856,-0.826,-0.938,-1.0054,-1.045,-1.0955,0.0,0.0,0.0,0.0,0.0,0.0,0.0,0.0,0.0,0.0,0.0,0.0,0.0,0.0,0.0,0.0,0.0,0.0,0.0,0.0,0.0,0.0,0.0,0.0,0.0,0.0,0.0,0.0,0.0,0.0,0.0,0.0,1.2475,1.2575,0.0,0.0,0.0,0.0,0.0,0.0,0.0,0.0,0.0,0.0,0.0,0.0,0.0,0.8066,0.7582,0.7737,0.7886,0.7926,0.7937,0.7879,0.7787,0.7774,0.7143,0.6093,0.626,0.0,0.3719,0.3226,0.0,0.0,0.0,0.0,0.0,0.0,0.0,0.0,0.0,0.0,0.0,0.0,0.0,0.0,0.0,0.0,0.0,0.0,0.0,0.0,0.0,0.0,0.1051,0.0817,0.0638,0.0457,0.0,0.0425,0.0586,0.0582,-0.0156,0.0,0.0,0.0,0.0,0.0,0.0,0.0,-0.2882,-0.3448,-0.4033,-0.4497,-0.4633,-0.5135,-0.6374,-0.6526,-0.7222,-0.8851,-0.8981,-0.964,-1.1009,-1.047,0.0,0.0,0.0,0.0,0.0,0.0,0.0,0.0,0.0,0.0,0.0,0.0,0.0,0.0,0.0,0.0,0.0,0.0,0.0,0.0,0.0,0.0,0.0,0.0,0.0,0.0,0.0,0.0,0.0,1.1897,1.2965,1.2459,1.2478,1.2258,0.0,0.0,0.0,0.0,0.0,0.0,0.0,0.0,0.0,1.0735,0.99,0.9399,0.9374,0.9414,0.9483,0.9483,0.896,0.8722,0.858,0.7987,0.7253,0.6664,0.6221,0.5537,0.4786,0.4479,0.3674,0.255,0.0,0.0,0.0,0.0,0.0975,0.0872,0.0594,0.0788,0.0,0.0843,0.0,0.0,0.0,0.0,0.0,0.0,0.0,0.0,0.0,0.0,0.1675,0.1739,0.1535,0.1159,0.0798,0.0776,0.0758,0.0,0.0408,0.0238,0.0316,0.0,0.0,0.0,0.0,-0.1747,-0.2764,-0.309,-0.3503,-0.4121,-0.4423,-0.484,-0.5433,-0.5782,-0.6527,-0.7887,-0.7952,-0.8618,-1.0152,-0.9678,-0.9661,0.0,0.0,0.0,0.0,0.0,0.0,0.0,0.0,0.0,0.0,0.0,0.0,0.0,0.0,0.0,0.0,0.0,0.0,0.0,0.0,0.0,0.0,0.0,0.0,0.0,0.0,0.0,0.0,1.2832,1.3598,1.2816,1.349,1.3585,0.0,0.0,0.0,0.0,0.0,0.0,1.4795,1.3709,1.2961,1.2894,1.1751,1.1115,1.1013,1.0862,1.0603,1.0341,0.9581,0.9151,0.9061,0.8107,0.7401,0.7073,0.6406,0.5877,0.5527,0.5126,0.4353,0.3516,0.3451,0.2772,0.1936,0.1982,0.1882,0.1864,0.1607,0.1901,0.2356,0.211,0.2442,0.2837,0.2866,0.0,0.0,0.0,0.0,0.2251,0.2559,0.235,0.2055,0.2267,0.2036,0.1725,0.13,0.1185,0.0998,0.0,0.0586,0.0742,0.0734,0.0,0.0,0.0,0.0,-0.1132,-0.2475,-0.281,-0.3147,-0.3637,-0.4225,-0.4616,-0.4752,-0.5147,-0.587,-0.6976,-0.6907,-0.746,-0.88,-0.8334,-0.8339,-0.8752,0.0,0.0,0.0,0.0,0.0,0.0,0.0,0.0,0.0,0.0,0.0,0.0,0.0,0.0,0.0,0.0,0.0,0.0,0.0,0.0,0.0,0.0,0.0,0.0,0.0,0.0,0.0,0.0,0.0,1.5636,1.5886,0.0,0.0,0.0,0.0,1.4519,1.4942,1.5184,1.5134,1.5363,1.516,1.4451,1.3877,1.3062,1.1982,1.1168,1.0363,0.9463,0.9463,0.9183,0.8866,0.8866,0.8181,0.7079,0.7437,0.6897,0.5618,0.4606,0.4362,0.4555,0.4369,0.4431,0.4612,0.4544,0.4514,0.4401,0.3845,0.3493,0.326,0.3031,0.3193,0.3675,0.4037,0.4188,0.0,0.0,0.2952,0.2959,0.2335,0.1946,0.1741,0.1743,0.1541,0.1414,0.1594,0.1655,0.1365,0.0,0.0083,0.0079,0.0324,0.0,0.0228,0.0,-0.053,-0.1051,-0.1539,-0.2633,-0.3287,-0.3151,-0.3549,-0.4023,-0.4558,-0.4295,-0.4622,-0.587,-0.5606,-0.5811,-0.6603,-0.6337,-0.6333,-0.6805,-0.6676,0.0,0.0,0.0,0.0,0.0,0.0,0.0,0.0,0.0,0.0,0.0,0.0,0.0,0.0,0.0,0.0,0.0,0.0,0.0,0.0,0.0,0.0,0.0,0.0,0.0,0.0,0.0,0.0,1.6348,1.687,0.0,1.6043,1.6232,1.6465,1.6643,1.7201,1.7455,1.7455,1.6666,1.5989,1.5307,1.4099,1.3004,1.202,1.1553,1.102,1.0336,1.0015,0.9723,0.9478,0.8986,0.844,0.7749,0.7022,0.65,0.5935,0.4977,0.4726,0.4877,0.4887,0.4553,0.4252,0.4226,0.4279,0.4327,0.4012,0.4135,0.4512,0.4424,0.4461,0.4502,0.406,0.4197,0.4353,0.4062,0.3988,0.3851,0.3798,0.3384,0.283,0.2582,0.2161,0.1768,0.1611,0.1495,0.1258,0.0696,0.0618,0.0693,0.0776,0.0306,-0.0075,0.0,-0.0359,-0.0842,-0.1456,-0.1928,-0.234,-0.2715,-0.317,-0.3521,-0.3719,-0.3853,-0.4143,-0.476,-0.4647,-0.4844,-0.5477,-0.5512,-0.5698,-0.603,-0.6071,-0.6184,0.0,0.0,0.0,0.0,0.0,0.0,0.0,0.0,0.0,0.0,0.0,0.0,0.0,0.0,0.0,0.0,0.0,0.0,0.0,0.0,0.0,0.0,0.0,0.0,0.0,1.6868,1.7676,1.7044,1.794,1.8086,1.6921,1.7399,1.7853,1.7963,1.8059,1.8184,1.8171,1.7072,1.6246,1.5774,1.4401,1.3294,1.2533,1.2169,1.1411,1.0389,1.0154,0.9737,0.9157,0.8776,0.8373,0.8021,0.7152,0.6689,0.6425,0.5714,0.5334,0.5186,0.5186,0.4879,0.4466,0.4438,0.4483,0.4612,0.4308,0.4619,0.5164,0.5362,0.5483,0.5379,0.4964,0.4959,0.5216,0.5231,0.4967,0.4725,0.5112,0.427,0.3396,0.3188,0.2686,0.2229,0.2013,0.1902,0.1865,0.1657,0.1299,0.1118,0.1035,0.0372,-0.0148,-0.0071,-0.0413,-0.0872,-0.1329,-0.1512,-0.1841,-0.2402,-0.278,-0.3132,-0.3292,-0.3455,-0.3685,-0.3886,-0.399,-0.4163,-0.443,-0.4596,-0.48,-0.5081,-0.5087,-0.5113,-0.5087,0.0,0.0,0.0,0.0,0.0,0.0,0.0,0.0,0.0,0.0,0.0,0.0,0.0,0.0,0.0,0.0,0.0,0.0,0.0,0.0,0.0,0.0,0.0,1.7403,1.8596,1.9184,1.8009,1.9055,1.9261,1.7882,1.8275,1.855,1.824,1.7566,1.7067,1.6936,1.6532,1.6113,1.5837,1.5055,1.4334,1.373,1.2908,1.162,0.9763,0.9933,0.9274,0.8,0.8168,0.8164,0.791,0.791,0.7585,0.7015,0.7015,0.6437,0.5472,0.5438,0.5461,0.5442,0.5412,0.537,0.5355,0.5063,0.5108,0.536,0.5856,0.6102,0.635,0.6599,0.6685,0.6681,0.6658,0.5984,0.5379,0.5948,0.4665,0.3196,0.3319,0.3,0.2682,0.2797,0.2954,0.3095,0.3166,0.2088,0.1078,0.1051,0.0499,0.0,-0.0068,-0.0603,0.0,-0.0968,-0.1464,-0.1899,-0.2144,-0.2451,-0.2854,-0.3252,-0.316,-0.3172,-0.3261,-0.3481,-0.3493,-0.3326,-0.3575,-0.3701,-0.3737,-0.3572,-0.3487,-0.3487,0.0,0.0,0.0,0.0,0.0,0.0,0.0,0.0,0.0,0.0,0.0,0.0,0.0,0.0,0.0,0.0,0.0,0.0,0.0,0.0,0.0,2.1256,2.2593,2.0138,2.0091,1.991,1.8793,1.8781,1.8651,1.7946,1.8153,1.8155,1.7659,1.7357,1.6966,1.6316,1.6107,1.5906,1.5483,1.4909,1.4233,1.3458,1.2843,1.2046,1.1233,1.0969,1.0461,0.9642,0.9486,0.8951,0.8021,0.8013,0.7853,0.7504,0.7492,0.7442,0.7182,0.5876,0.5201,0.4882,0.4867,0.4828,0.4898,0.5358,0.5479,0.5468,0.6016,0.6211,0.6254,0.6514,0.6599,0.6563,0.6783,0.6385,0.5949,0.5796,0.5083,0.4383,0.3825,0.36,0.3318,0.2888,0.2833,0.2715,0.2492,0.2111,0.1762,0.153,0.0917,0.0461,0.0382,0.0186,0.0,-0.0235,-0.0394,-0.0721,-0.1205,-0.1732,-0.2186,-0.255,-0.2818,-0.2865,-0.2715,-0.2607,-0.2461,-0.2266,-0.2473,-0.2759,-0.2985,-0.2941,-0.2952,0.0,0.0,0.0,0.0,0.0,0.0,0.0,0.0,0.0,0.0,0.0,0.0,0.0,0.0,0.0,0.0,0.0,0.0,0.0,0.0,0.0,0.0,2.3128,2.4116,2.224,2.1922,2.1432,2.0198,1.9434,1.8715,1.8103,1.7671,1.7334,1.676,1.643,1.6103,1.5799,1.5567,1.5337,1.5102,1.475,1.433,1.3849,1.3512,1.312,1.259,1.2421,1.1814,1.0713,1.0494,0.976,0.8708,0.8551,0.8231,0.7708,0.7549,0.7516,0.0,0.0,0.0,0.0,0.0,0.53,0.537,0.5857,0.6025,0.6038,0.6416,0.6634,0.6695,0.6574,0.6533,0.6587,0.6824,0.6503,0.613,0.623,0.5582,0.4719,0.4281,0.3989,0.3654,0.3209,0.3107,0.301,0.2752,0.2426,0.0,0.1932,0.1136,0.0489,0.0527,0.0172,-0.0112,-0.022,-0.021,-0.0413,-0.0749,-0.1143,-0.1465,-0.1628,-0.2093,0.0,0.0,0.0,-0.2232,-0.2098,-0.2347,0.0,0.0,0.0,-0.2353,-0.2353,0.0,0.0,0.0,-0.1143,-0.0794,0.0,0.0,0.0,0.0,0.0,0.0,0.0,0.0,0.0,0.0,0.0,0.0,0.0,0.0,0.0,0.0,2.4196,2.4359,2.3939,2.3667,2.3028,2.1505,2.0232,1.9115,1.8269,1.7114,1.6343,1.6067,1.5388,1.512,1.54,0.0,0.0,0.0,0.0,1.4587,1.4547,1.451,1.4256,1.3647,1.3768,1.3,1.1476,1.123,1.0638,0.9616,0.9321,0.8713,0.7934,0.7611,0.7249,0.6994,0.732,0.7368,0.7253,0.6626,0.6388,0.6384,0.6371,0.0,0.0,0.6811,0.6989,0.7199,0.6671,0.6472,0.6539,0.6802,0.6481,0.6185,0.6952,0.5996,0.4755,0.4633,0.4249,0.3848,0.3592,0.358,0.3576,0.3401,0.2868,0.2441,0.2251,0.1302,0.0568,0.0588,-0.0053,-0.0476,-0.0368,-0.0397,-0.0482,-0.0649,0.0,0.0,-0.0688,-0.1208,-0.14,-0.101,-0.1676,-0.2083,-0.2199,-0.2274,-0.2343,-0.2338,-0.1812,-0.1547,-0.1547,-0.0605,0.0068,0.0421,-0.015,0.008,0.0,0.0,0.0,0.0,0.0,0.0,0.0,0.0,0.0,0.0,0.0,0.0,0.0,0.0,0.0,2.4434,2.5611,2.6105,2.4943,2.3935,2.2463,2.0199,1.9343,1.8683,1.7894,1.7294,1.6826,1.6538,1.6088,1.5625,1.504,1.4887,1.4754,1.4494,1.4393,1.4237,1.4055,1.4171,1.4071,1.3769,0.0,0.0,1.1975,1.1613,1.095,1.0043,1.0114,0.976,0.904,0.8862,0.8284,0.7385,0.7459,0.7685,0.7838,0.7397,0.7194,0.7017,0.681,0.6744,0.6645,0.6645,0.6526,0.6425,0.6554,0.6449,0.0,0.6706,0.663,0.6489,0.6587,0.601,0.5378,0.5177,0.4908,0.4503,0.387,0.3856,0.3788,0.3321,0.3072,0.283,0.2351,0.1873,0.1556,0.1687,0.1479,0.116,0.0782,0.072,0.0381,-0.0384,-0.0478,-0.0491,-0.0476,-0.055,-0.0449,-0.0224,-0.0173,-0.0118,-0.0178,0.0125,0.0194,0.0065,0.0332,0.0538,0.0538,0.0739,0.0955,0.1121,0.0712,0.0729,0.0,0.0,0.0,0.0,0.0,0.0,0.0,0.0,0.0,0.0,0.0,2.2594,2.3221,0.0,2.4934,2.5437,2.5667,2.5315,2.4113,2.3185,2.2185,2.0859,1.964,1.8741,1.8451,1.7578,1.6884,1.6617,1.6197,1.5698,1.5229,1.5221,1.5152,1.5033,1.4944,1.4713,1.4289,1.4403,1.4291,1.397,1.366,1.3233,1.2669,1.223,1.1539,1.0723,1.0585,1.0239,0.9742,0.9347,0.8891,0.8423,0.8323,0.7987,0.7495,0.7187,0.7013,0.6836,0.6663,0.649,0.6483,0.6881,0.6876,0.6822,0.7202,0.7238,0.7082,0.6879,0.6741,0.6548,0.6168,0.5877,0.5598,0.5399,0.5321,0.5142,0.4757,0.4718,0.4647,0.424,0.3887,0.3556,0.317,0.2725,0.2235,0.1715,0.1525,0.1371,0.1065,0.1062,0.0924,0.0554,0.0461,0.0477,0.0618,0.0381,0.0224,0.0224,0.0174,0.0236,0.0412,0.0492,0.0567,0.0568,0.0778,0.0921,0.0921,0.1336,0.1558,0.1714,0.1647,0.1544,0.0,0.0,0.0,0.0,0.0,0.0,0.0,2.208,2.2652,2.3221,2.4245,2.5175,2.5597,2.5477,2.5509,2.6125,2.5249,2.4139,2.318,2.2442,2.1966,2.1893,2.0186,1.9073,1.9111,1.8017,1.7198,1.7042,1.6435,1.6035,1.5903,1.5711,1.5632,1.5709,1.557,1.5314,1.489,1.4815,1.4631,1.4329,1.4123,1.3761,1.3298,1.2874,1.2173,1.131,1.0905,1.0566,1.0202,0.9461,0.9247,0.9369,0.9124,0.8285,0.7277,0.711,0.7057,0.6954,0.6558,0.6411,0.6405,0.6979,0.7203,0.7335,0.7712,0.783,0.7692,0.7015,0.6691,0.647,0.5932,0.5756,0.5634,0.5516,0.5484,0.549,0.5484,0.5448,0.5404,0.5183,0.4783,0.4387,0.4125,0.369,0.2984,0.1834,0.1566,0.1432,0.1343,0.1343,0.1343,0.1389,0.1344,0.1436,0.1704,0.1338,0.1057,0.1008,0.0689,0.0697,0.0924,0.0897,0.0912,0.1029,0.1252,0.1403,0.1339,0.2102,0.2457,0.2638,0.279,0.2664,1.6135,1.666,1.8375,2.0943,2.1816,2.281,0.0,2.7006,2.7383,2.6552,2.7194,2.7498,2.6507,2.6253,2.5995,2.5643,2.5343,2.485,2.3781,2.264,2.18,2.1475,2.0371,1.9503,1.9111,1.8808,1.8566,1.8556,1.7664,1.7149,1.7179,1.6541,1.6251,1.6455,1.5987,1.5648,1.5604,1.5204,1.4946,1.4837,1.4443,1.3963,1.3372,1.3298,1.2585,1.1536,1.103,1.0762,1.0678,0.9829,0.949,0.9448,0.8851,0.8657,0.8709,0.8689,0.8516,0.8172,0.7235,0.6876,0.674,0.6388,0.6619,0.7014,0.6937,0.6892,0.6857,0.6875,0.6545,0.6167,0.6244,0.5939,0.5636,0.5713,0.546,0.5169,0.5313,0.5308,0.5308,0.5265,0.5221,0.5087,0.4735,0.4648,0.4212,0.3167,0.2857,0.2632,0.2235,0.2146,0.1967,0.1433,0.1389,0.1621,0.2152,0.2401,0.2651,0.3014,0.2968,0.2934,0.296,0.331,0.3432,0.3332,0.3711,0.3827,0.3709,0.4138,0.4201,0.4092,0.4391,0.414,1.952,1.992,2.1073,2.3379,2.434,2.5304,2.6999,2.7382,2.7313,2.7178,2.7754,2.8051,2.7546,2.7488,2.7432,2.6846,2.607,2.4993,2.3659,2.2541,2.1544,2.0666,2.0194,1.9884,1.9889,1.9594,1.9386,1.9299,1.8583,1.8231,1.8325,1.7092,1.6626,1.7025,1.593,1.523,1.488,1.4722,1.4467,1.4107,1.3827,1.3627,1.3434,1.3336,1.291,1.225,1.2135,1.1806,1.1345,1.1044,1.082,1.0621,1.0141,0.988,0.9542,0.8595,0.7944,0.747,0.6936,0.6406,0.602,0.6299,0.6423,0.6575,0.7029,0.7206,0.7193,0.6894,0.6677,0.6469,0.6191,0.5985,0.5875,0.5996,0.5947,0.5888,0.5973,0.6067,0.6093,0.6002,0.5836,0.562,0.5437,0.5216,0.4957,0.4613,0.4085,0.3686,0.3554,0.3466,0.3334,0.3028,0.2645,0.2534,0.2954,0.2822,0.2883,0.3309,0.3312,0.3379,0.3447,0.3649,0.368,0.3627,0.3914,0.3971,0.3724,0.4022,0.4022,0.3787,0.4022,0.4162,2.1671,2.2138,2.3084,2.495,2.6111,2.6929,2.731,2.7585,2.7734,2.7506,2.8017,2.8486,2.8111,2.7934,2.773,2.7156,2.6123,2.4983,2.3729,2.2638,2.1619,2.0788,2.0488,2.0501,2.07,2.0442,2.0237,2.015,1.9695,1.9479,1.9651,1.8383,1.775,1.7978,1.6747,1.5776,1.5198,1.4784,1.4342,1.3983,1.3749,1.3639,1.3571,1.3339,1.3092,1.2932,1.2948,1.2704,1.2295,1.2208,1.2142,1.2044,1.1503,1.0981,1.0371,0.8831,0.7879,0.7296,0.6833,0.6307,0.5927,0.6437,0.6608,0.6708,0.7203,0.7485,0.7537,0.7148,0.6849,0.6612,0.6319,0.6151,0.6131,0.6212,0.6281,0.6369,0.6428,0.6579,0.6713,0.6617,0.6414,0.6247,0.6109,0.5789,0.5641,0.5893,0.5339,0.48,0.46,0.4517,0.443,0.4351,0.3931,0.3737,0.4004,0.3714,0.3611,0.3918,0.3993,0.3993,0.4014,0.4158,0.4194,0.4063,0.4297,0.43,0.406,0.4188,0.4132,0.386,0.4154,0.4477,2.1709,2.2719,2.3886,2.5216,2.6587,2.7386,2.6709,2.8705,3.0118,2.8182,2.8685,2.9105,2.7826,2.6921,2.6142,2.5498,2.5055,2.468,2.4336,2.2975,2.2179,2.2675,2.1765,2.1197,2.1506,2.125,2.1198,2.1588,2.1181,2.1049,2.129,2.0669,2.0136,1.9738,1.8873,1.8104,1.7419,1.5992,1.5216,1.5167,1.4734,1.4305,1.3752,1.3243,1.3212,1.3568,1.3059,1.3041,1.3422,1.3086,1.3168,1.3427,1.2466,1.1816,1.1323,1.0156,0.921,0.8376,0.7285,0.7044,0.7173,0.6681,0.7154,0.785,0.7341,0.7419,0.767,0.7587,0.7022,0.6477,0.6715,0.6577,0.6357,0.63,0.6306,0.6313,0.63,0.6577,0.679,0.679,0.6883,0.6929,0.679,0.6505,0.6416,0.6887,0.6613,0.6019,0.5201,0.4913,0.4822,0.4966,0.4966,0.509,0.5418,0.5462,0.553,0.5625,0.5676,0.5545,0.5096,0.5627,0.5712,0.5273,0.5589,0.565,0.5426,0.5447,0.5275,0.4981,0.5631,0.5715,2.3118,2.4011,2.4941,2.6009,2.6897,2.7567,2.7899,2.8374,2.8628,2.8319,2.8236,2.8068,2.7544,2.7365,2.7053,2.6321,2.6085,2.5612,2.4519,2.3837,2.3167,2.2443,2.2163,2.2019,2.1909,2.1848,2.1753,2.1714,2.1673,2.1773,2.2223,2.1,2.0021,1.9518,1.8038,1.6793,1.5867,1.5178,1.4848,1.478,1.4676,1.4404,1.4053,1.3902,1.3727,1.3617,1.3666,1.3632,1.3431,1.3708,1.376,1.366,1.3062,1.2735,1.2431,1.0717,1.0215,1.0162,0.8128,0.7423,0.7291,0.654,0.6671,0.7058,0.6559,0.6691,0.7062,0.7168,0.7168,0.7107,0.7001,0.6895,0.6711,0.6441,0.6321,0.634,0.6523,0.6514,0.6586,0.6989,0.6959,0.6855,0.681,0.6897,0.6968,0.7051,0.701,0.6719,0.6124,0.5922,0.5836,0.5787,0.5529,0.543,0.5673,0.5626,0.5801,0.6263,0.6401,0.639,0.6154,0.6627,0.6435,0.5599,0.592,0.5853,0.5245,0.5233,0.5066,0.4729,0.5202,0.5309,2.3939,2.4681,2.5377,2.6032,2.6579,2.6986,2.7101,2.7193,2.7293,2.7751,2.761,2.738,2.7433,2.7759,2.7594,2.6365,2.6543,2.6342,2.4797,2.4216,2.3784,2.3453,2.3106,2.3007,2.3205,2.3191,2.2955,2.2273,2.2334,2.2494,2.2623,2.1704,2.0815,2.0061,1.8627,1.7326,1.6309,1.5622,1.5126,1.4728,1.4685,1.4455,1.4148,1.4252,1.4124,1.3671,1.4104,1.4045,1.3662,1.4052,1.4244,1.4169,1.3761,1.3521,1.3237,1.1725,1.1281,1.116,0.9013,0.8422,0.8496,0.7937,0.7866,0.7942,0.7258,0.7253,0.7453,0.7263,0.7293,0.7385,0.7255,0.7139,0.6974,0.6697,0.6587,0.6586,0.6779,0.6788,0.6885,0.7267,0.7276,0.718,0.7145,0.7295,0.7333,0.7174,0.7204,0.7127,0.6874,0.6791,0.6789,0.6917,0.6592,0.6422,0.6628,0.6452,0.6447,0.6742,0.6847,0.679,0.6589,0.6991,0.6789,0.597,0.623,0.6121,0.5615,0.551,0.5345,0.5091,0.5454,0.557,2.4206,2.4749,2.533,2.5422,2.5772,2.5822,2.4681,2.5375,2.6351,2.6509,2.6788,2.7128,2.747,2.7991,2.7718,2.5738,2.6589,2.6891,2.5214,2.4182,2.4081,2.5539,2.4493,2.4124,2.5149,2.5204,2.4557,2.317,0.0,2.3157,2.2572,2.2731,2.236,2.1368,2.0527,1.9585,1.8549,1.7169,1.6021,1.5077,1.494,1.4553,1.4091,1.4437,1.4302,1.3841,1.4204,1.4261,1.4132,1.4252,1.4553,1.4923,1.4487,1.415,1.3783,1.3096,1.2324,1.1413,0.9902,0.9849,1.0469,1.0381,1.0391,1.0176,0.9121,0.8839,0.8665,0.7861,0.7427,0.7312,0.7484,0.7306,0.7113,0.7026,0.6987,0.7017,0.7017,0.7302,0.7592,0.7625,0.7762,0.7876,0.7817,0.7688,0.7523,0.7256,0.7284,0.7347,0.7462,0.7408,0.756,0.8204,0.8103,0.8036,0.8218,0.7889,0.75,0.7231,0.7158,0.6924,0.6557,0.6894,0.6919,0.6481,0.656,0.658,0.652,0.6236,0.6091,0.6076,0.6386,0.6441,2.4742,2.4997,2.5164,2.4678,2.4737,2.4877,2.4676,2.5433,2.6205,2.6089,2.667,2.7026,2.6383,2.7332,2.7905,2.7011,2.7762,2.7927,2.6469,2.5912,2.5584,2.54,2.5109,2.4812,2.4572,2.4559,2.4055,2.2874,2.3352,2.3451,2.2814,2.2842,2.2154,2.066,2.0083,1.905,1.7514,1.7033,1.6635,1.6342,1.5743,1.529,1.4868,1.4476,1.4243,1.4115,1.421,1.417,1.4129,1.4558,1.4541,1.428,1.4498,1.4211,1.3529,1.2299,1.2037,1.207,1.0626,1.0168,1.0026,0.8858,0.8589,0.8593,0.7907,0.7951,0.8154,0.7844,0.7879,0.797,0.7723,0.7575,0.74,0.7088,0.6966,0.6996,0.7255,0.7218,0.7321,0.7851,0.7812,0.7757,0.8061,0.7727,0.7507,0.7632,0.7627,0.7547,0.7425,0.7517,0.7757,0.8179,0.839,0.8521,0.8553,0.8387,0.8342,0.8509,0.8512,0.8399,0.8172,0.828,0.8041,0.7448,0.7127,0.6956,0.6852,0.6539,0.6539,0.6725,0.6683,0.6768,2.4819,2.4777,2.4689,2.4094,2.4233,2.4423,2.4066,2.4722,2.5496,2.5864,2.6134,2.6397,2.6576,2.8303,2.9227,2.7778,2.9202,2.9585,2.6852,2.6459,2.6161,2.5468,2.5375,2.5335,2.5305,2.4883,2.4323,2.3617,2.348,2.3165,2.2627,2.2704,2.2101,2.0721,2.0183,1.8993,1.7023,1.6688,1.6355,1.6083,1.5871,1.5505,1.5042,1.46,1.4386,1.4386,0.0,1.4407,1.4248,1.4673,1.4662,1.4513,1.47,1.4356,1.3664,1.2787,1.2372,1.2068,1.092,1.0463,1.0284,0.9719,0.9547,0.9449,0.8835,0.877,0.8797,0.8319,0.8316,0.8403,0.8136,0.7904,0.7725,0.7715,0.7608,0.7608,0.7888,0.7907,0.7964,0.8336,0.8223,0.8113,0.8249,0.7985,0.7744,0.7797,0.7936,0.8016,0.8114,0.8061,0.834,0.9027,0.9151,0.9151,0.9079,0.8999,0.8921,0.8922,0.8896,0.8824,0.8674,0.8681,0.845,0.8039,0.7745,0.7624,0.7565,0.7398,0.7398,0.7648,0.7558,0.7641,2.4655,2.4482,2.4227,2.381,2.4104,2.4288,2.3448,2.3859,2.467,2.5646,2.5569,2.578,2.7216,2.9694,3.0757,2.8526,3.0616,3.1214,2.7333,2.6789,2.6476,2.5761,2.5521,2.5691,2.6339,2.5621,2.4982,2.4597,2.3532,2.277,2.2396,2.2531,2.2124,2.1097,2.0358,1.9001,1.7049,1.644,1.5943,1.552,1.5711,1.5569,1.5066,1.4752,1.4614,1.4614,1.4789,0.0,1.4406,1.466,1.4847,1.4958,1.4862,1.4393,1.3722,1.3467,1.2667,1.1606,1.0868,1.0636,1.078,1.1331,1.1383,1.1094,1.0481,1.0149,0.9798,0.8968,0.8717,0.869,0.854,0.8259,0.8117,0.8533,0.8505,0.8467,0.869,0.8844,0.8915,0.8844,0.8773,0.8634,0.8467,0.8328,0.8156,0.7939,0.8281,0.8732,0.909,0.8919,0.9159,1.0273,1.0147,0.9894,0.9755,0.9716,0.9509,0.9022,0.899,0.8895,0.8749,0.8659,0.8618,0.8585,0.8381,0.8316,0.8398,0.8357,0.8398,0.8561,0.8561,0.8602,2.4937,2.4886,2.4835,2.4381,2.4424,2.4497,2.4154,2.4487,2.4902,2.5064,2.5878,2.6641,2.6819,2.8516,3.0052,3.0531,3.1258,3.1363,3.0103,2.8894,2.7774,2.669,2.5971,2.5521,2.5369,2.5236,2.4787,2.3863,2.3283,2.3036,2.3185,2.2836,2.2064,2.0813,1.9055,1.7998,1.7752,1.7199,1.6964,1.7108,1.6383,1.6013,1.5971,1.5119,1.4749,1.467,1.4703,0.0,1.4436,1.4918,1.4769,1.4278,1.4311,1.3619,1.2508,1.1944,1.1281,1.0612,1.0263,1.0353,1.0557,1.0195,1.0061,1.0036,0.9819,0.9741,0.9634,0.9031,0.886,0.8833,0.864,0.8612,0.8651,0.8662,0.8833,0.8946,0.8958,0.8996,0.9035,0.8965,0.8828,0.869,0.8662,0.8503,0.8364,0.8386,0.9117,0.9723,0.9972,0.9939,1.0142,1.0723,1.0878,1.0943,1.0905,1.0781,1.0524,1.0079,1.0264,1.0252,0.998,0.9569,0.951,0.9947,0.8865,0.848,0.8895,0.8602,0.8602,0.8895,0.8765,0.8846,2.5206,2.5187,2.5126,2.4777,2.4686,2.4637,2.4535,2.4561,2.4803,2.5576,2.617,2.6734,2.737,2.9132,3.0437,3.0348,3.189,3.245,3.0598,3.0076,2.9216,2.7344,2.6579,2.5998,2.5431,2.5108,2.4854,2.4704,2.3643,2.3188,2.3636,2.2372,2.138,2.0922,1.8389,1.7108,1.7271,1.7049,1.6884,1.6713,1.6498,1.6304,1.6069,1.549,1.5225,1.5225,1.5149,0.0,1.4996,1.5418,1.5315,1.4911,1.4657,1.3899,1.2813,1.2094,1.1346,1.0705,1.0594,1.0715,1.0873,1.057,1.0348,1.0186,1.0046,1.0046,1.0034,0.9595,0.9571,0.971,0.9776,0.9754,0.9869,1.0407,1.0724,1.0738,1.002,1.0454,1.0697,0.9705,0.9653,0.9584,0.9049,0.8773,0.8578,0.8505,0.9285,1.0032,1.0504,1.0909,1.1179,1.1201,1.1292,1.1292,1.1094,1.1207,1.1057,1.0659,1.0725,1.0702,1.0507,1.0322,1.0312,1.0517,0.9879,0.9549,0.9567,0.9399,0.9328,0.9346,0.9487,0.9607,2.5473,2.5381,2.5316,2.5109,2.4965,2.4834,2.4771,2.4519,2.4672,2.6009,2.6213,2.6537,2.7798,2.9473,3.0466,2.9758,3.1984,3.3124,3.1124,3.1255,3.0738,2.8614,2.7606,2.6781,2.5945,2.5326,2.516,2.5647,2.4268,2.3451,2.3534,2.1834,2.0834,2.0859,1.8167,1.6738,1.6712,1.6683,1.6455,1.6095,1.6496,1.651,1.6148,1.5938,1.5838,1.5838,1.5739,0.0,0.0,1.5926,1.5911,1.5721,1.4923,1.4173,1.3392,1.2409,1.1627,1.1085,1.1108,1.131,1.152,1.1313,1.1038,1.0753,1.0656,1.0656,1.0643,1.031,1.0396,1.0586,1.0638,1.0766,1.1091,1.1976,1.2239,1.2041,1.1017,1.1725,1.2141,1.0703,1.078,1.0795,0.9821,0.958,0.9348,0.8795,0.962,1.0481,1.0905,1.1668,1.2116,1.1888,1.1799,1.1579,1.1282,1.1479,1.1479,1.1067,1.1067,1.1029,1.0867,1.0954,1.0943,1.0867,1.0791,1.0611,1.0273,1.0273,1.0157,0.998,1.0283,1.0428,2.5742,2.5535,2.5527,2.5307,2.5301,2.5264,2.4943,2.4752,2.4829,2.5468,2.5819,2.6303,2.7211,2.7951,2.8787,2.9929,3.0994,3.2162,3.3441,3.3071,3.2355,3.1575,2.9426,2.7656,2.6759,2.6145,2.5754,2.5701,2.5033,2.3996,2.2514,2.174,2.0972,2.0137,1.8644,1.7485,1.6712,1.6418,1.6289,1.6371,1.6575,1.6681,1.6644,1.6549,1.6454,1.6316,1.6331,1.632,0.0,1.6351,1.627,1.5982,1.4345,1.3668,1.3384,1.1799,1.1244,1.1265,1.1201,1.1855,1.2576,1.1688,1.1355,1.1333,1.131,1.1341,1.1341,1.1001,1.1024,1.0934,1.0031,1.0808,1.1834,1.2057,1.172,1.1301,1.1183,1.1643,1.2004,1.1765,1.2087,1.2129,1.1255,1.1585,1.1378,0.9671,1.0893,1.177,1.1241,1.1921,1.26,1.3017,1.2731,1.2354,1.2029,1.2041,1.1884,1.1479,1.1675,1.1686,1.1442,1.1319,1.1319,1.1442,1.1067,1.0878,1.085,1.085,1.0802,1.0802,1.085,1.084,2.5861,2.5996,2.6242,2.5628,2.5387,2.5236,2.5065,2.4836,2.4848,2.5393,2.5605,2.5998,2.7037,2.7735,2.8475,2.9509,3.1016,3.2298,3.2895,3.2936,3.2526,3.1533,2.9588,2.7932,2.6879,2.629,2.5737,2.521,2.4672,2.3922,2.2836,2.1451,2.0528,2.0194,1.8726,1.7569,1.6787,1.738,1.7483,1.7018,1.7358,1.7505,1.7436,1.7396,1.7278,1.7069,1.6946,1.6827,0.0,1.6783,1.6416,1.5676,1.4621,1.3859,1.3212,1.2104,1.1696,1.1681,1.1768,1.2042,1.231,1.2003,1.1876,1.1915,1.2104,1.1926,1.1674,1.2036,1.197,1.1788,1.1696,1.2435,1.3114,1.2877,1.2939,1.2879,1.214,1.2825,1.3234,1.2118,1.2341,1.252,1.1928,1.1969,1.1897,1.1372,1.1949,1.2434,1.2468,1.2852,1.3203,1.3416,1.3022,1.2685,1.2425,1.2354,1.2186,1.176,1.2113,1.215,1.176,1.1945,1.1982,1.176,1.1564,1.1378,1.1132,1.1132,1.1057,1.0926,1.1142,1.1292,2.5963,2.6275,2.6684,2.5823,2.5437,2.5226,2.5124,2.4904,2.4823,2.5151,2.5318,2.5729,2.6723,2.7446,2.8139,2.882,3.0588,3.2011,3.2366,3.3054,3.3179,3.2269,3.0827,2.9205,2.7424,2.6314,2.5493,2.5,2.4433,2.3936,2.3464,2.1701,2.0711,2.0666,1.9638,1.855,1.7436,1.8454,1.8471,1.7492,1.7984,1.8149,1.7988,1.8027,1.7924,1.767,1.7528,1.7335,0.0,1.7199,1.6629,1.5623,1.4952,1.4139,1.3221,1.2447,1.2123,1.2102,1.2164,1.251,1.2837,1.236,1.2567,1.3031,1.299,1.2649,1.2316,1.2604,1.2334,1.2131,1.2972,1.3246,1.333,1.3382,1.3624,1.3599,1.274,1.3489,1.3943,1.2655,1.2904,1.3176,1.2626,1.2579,1.2578,1.2465,1.2675,1.2983,1.3342,1.3468,1.3591,1.3795,1.3547,1.3173,1.2743,1.2673,1.2508,1.2089,1.2496,1.2532,1.2089,1.2496,1.2532,1.2089,1.2089,1.1932,1.1542,1.1542,1.1431,1.1255,1.1553,1.17,2.6068,2.6247,2.6688,2.5818,2.5498,2.5348,2.5154,2.4949,2.4752,2.4561,2.4931,2.5489,2.6091,2.6778,2.7412,2.8002,2.9414,3.0947,3.2494,3.3899,3.4727,3.4656,3.3773,3.1882,2.8689,2.635,2.5073,2.5285,2.4611,0.0,2.4282,2.2776,2.1797,2.1596,2.1779,2.0889,1.8903,1.9352,1.8948,1.7693,1.8232,1.8388,1.8208,1.8328,1.827,1.809,1.8078,1.79,0.0,1.7589,1.6994,1.6017,1.5217,1.4374,1.3494,1.2613,1.2388,1.2467,1.2277,1.3452,1.4749,1.2832,1.3447,1.48,1.3876,1.3589,1.3383,1.2474,1.1773,1.1653,1.3191,1.2649,1.2044,1.3291,1.3139,1.27,1.2703,1.3227,1.3684,1.361,1.4136,1.4323,1.3536,1.3872,1.3844,1.2487,1.2971,1.3513,1.3609,1.3603,1.3778,1.4232,1.4365,1.398,1.2965,1.3022,1.2918,1.2508,1.2883,1.2918,1.2508,1.2883,1.2918,1.2508,1.2567,1.2425,1.2077,1.2077,1.2077,1.2077,1.2077,1.2138,2.5721,2.6067,2.6507,2.5511,2.5196,2.5084,2.4924,2.4766,2.4626,2.4532,2.4931,2.5463,2.5977,2.7466,2.888,2.9669,3.1184,3.2535,3.3393,3.4178,3.4393,3.3645,3.1351,2.8795,2.6134,2.5042,2.4601,2.4814,2.4392,2.4157,2.4224,2.3792,2.3048,2.191,2.1972,2.1185,1.9388,2.0258,1.9903,1.8316,1.866,1.8788,1.8677,1.877,1.8734,1.8569,1.8586,0.0,0.0,1.7624,1.6789,1.5744,1.4903,1.401,1.316,1.2883,1.2743,1.2738,1.2891,1.3437,1.3923,1.3092,1.3511,1.4145,1.3203,1.2875,1.2832,1.2811,1.2729,1.2768,1.3214,1.3087,1.294,1.3249,1.3236,1.3191,1.3226,1.3376,1.349,1.3471,1.3599,1.3735,1.386,1.3949,1.3988,1.3883,1.4448,1.4806,1.4648,1.4873,1.5037,1.5,1.4859,1.4241,1.2994,1.3216,1.3133,1.2477,1.3015,1.3207,1.2791,1.3173,1.3242,1.2918,1.2918,1.2918,1.2836,1.2603,1.2318,1.2113,1.2138,1.2174,2.5346,2.5878,2.6352,2.5337,2.503,2.4923,2.479,2.467,2.459,2.4691,2.4979,2.547,2.6327,2.7625,2.8856,2.9746,3.1281,3.2591,3.3301,3.4365,3.4745,3.3828,3.091,2.8094,2.5956,2.4754,2.4188,2.4365,2.4231,2.4172,2.4266,2.4339,2.3953,2.2968,2.2966,2.2164,2.0424,2.1096,2.0498,1.8733,1.8914,1.8949,1.8861,1.8931,1.8896,1.8807,1.8771,0.0,0.0,1.7505,1.6498,1.5205,1.4688,1.3935,1.3104,1.3106,1.3053,1.3016,1.314,1.3514,1.3835,1.3193,1.3258,1.3481,1.2883,1.2678,1.2832,1.3679,1.3646,1.3396,1.3684,1.3583,1.3396,1.3362,1.3379,1.343,1.3512,1.3496,1.3429,1.3396,1.3362,1.3446,1.379,1.3748,1.3923,1.4642,1.5064,1.5343,1.5568,1.5829,1.5894,1.5579,1.536,1.4787,1.3601,1.3826,1.369,1.2902,1.3474,1.3648,1.3251,1.3428,1.3422,1.3167,1.2929,1.2819,1.2902,1.2785,1.2615,1.2389,1.2508,1.2532,0.0,2.5638,2.6071,2.5249,2.4956,2.4842,2.47,2.4613,0.0,2.502,2.5168,2.5647,2.7085,2.7416,2.7773,2.8828,3.0298,3.166,3.2691,3.4651,3.5634,3.4759,3.1908,2.9259,2.7414,2.5165,2.3876,2.3996,2.4135,2.4266,2.4394,2.4465,2.4479,2.4402,2.4405,2.3524,2.1731,2.1711,2.0768,1.8914,1.8984,1.8949,1.8806,1.8896,1.8878,0.0,0.0,0.0,0.0,1.7276,1.6203,1.4572,1.4572,1.4076,1.3346,1.3346,1.3396,1.3413,1.3192,1.3765,1.4412,1.3262,1.2824,1.2796,1.2881,1.2913,1.3223,1.4752,1.4323,1.3598,1.4418,1.4042,1.3479,1.3642,1.3595,1.353,1.363,1.3614,1.3547,1.3429,1.3396,1.3396,1.3379,1.3329,1.3659,1.477,1.4913,1.5275,1.626,1.648,1.6389,1.6016,1.5892,1.551,1.4691,1.4684,1.442,1.3683,1.413,1.4273,1.3894,1.373,1.361,1.3418,1.279,1.2512,1.2545,1.2842,1.2965,1.2965,1.3094,1.3185,2.5042,0.0,2.4945,2.4645,2.4543,2.4508,0.0,2.4709,2.4967,2.5023,2.5721,2.6667,2.7771,2.8443,2.9467,3.1433,3.2592,3.3677,3.4941,3.5931,3.5457,3.2629,3.0929,2.8573,2.4932,2.4203,2.3976,2.3996,2.4228,2.4339,2.4321,2.4447,2.4168,2.3449,2.3484,2.2967,2.1865,2.1106,2.0167,1.9053,1.907,1.9036,1.8967,1.9016,1.9101,0.0,0.0,0.0,1.7902,1.7257,1.6305,1.521,1.4549,1.4079,1.3774,1.3818,1.4229,1.4674,1.423,1.4802,1.5486,1.4098,1.2717,1.1773,1.2639,1.2974,1.3156,1.3752,1.3733,1.3624,1.392,1.3926,1.3961,1.4347,1.4502,1.4502,1.4332,1.428,1.4092,1.3515,1.3362,1.3312,1.3261,1.3226,1.3471,1.4202,1.4829,1.5479,1.6212,1.6653,1.685,1.6757,1.6496,1.6219,1.5984,1.5316,1.4675,1.403,1.4449,1.4669,1.456,1.453,1.4539,1.4602,1.4387,1.4114,1.3779,1.3808,1.3689,1.3441,1.3475,1.3454,2.5407,2.5254,2.5039,2.5087,2.5199,2.5297,2.5155,2.5314,2.5533,2.5751,2.6215,2.6967,2.8076,2.9215,3.0496,3.2035,3.3654,3.4965,3.5693,3.6024,3.5076,3.2019,3.0404,2.837,0.0,2.4458,2.4077,2.4134,2.4303,2.4412,2.4393,2.4076,2.3651,2.312,2.2347,2.1721,2.1313,2.0737,1.9999,1.9102,1.9168,1.8935,1.8458,1.8554,1.8617,0.0,0.0,0.0,1.8103,1.687,1.6008,1.5397,1.4432,1.3991,1.3906,1.3934,1.4271,1.4588,1.3944,1.3869,1.4028,1.3701,1.2891,1.2263,1.3292,1.3654,1.3813,1.4141,1.4114,1.4062,1.4396,1.4268,1.4101,1.4329,1.4416,1.4416,1.4193,1.4127,1.4093,1.3974,1.3922,1.4006,1.431,1.4321,1.4498,1.5121,1.5566,1.6094,1.6762,1.7075,1.7224,1.7191,1.6892,1.667,1.6591,1.6022,1.5388,1.4747,1.4871,1.4994,1.5041,1.4756,1.4529,1.437,1.45,1.4451,1.4148,1.4269,1.42,1.3992,1.3992,1.3973,2.595,2.5932,2.5868,2.5888,2.6085,2.6218,2.6003,2.5971,2.6167,2.6755,2.6823,2.7296,2.8856,3.0044,3.121,3.2405,3.4545,3.6133,3.625,3.6085,3.4974,3.2247,3.0294,0.0,2.6743,2.5077,2.4155,2.4172,2.4225,2.4239,2.4143,2.3459,2.2947,2.2732,2.125,2.0429,2.0404,2.0301,1.9888,1.9115,1.9227,1.8776,1.7855,1.8121,1.8093,1.7837,0.0,0.0,1.7728,1.6294,1.5532,1.5215,1.431,1.3949,1.3949,1.3963,1.4149,1.427,1.3467,1.2687,1.2147,1.2845,1.3049,1.3169,1.4071,1.4359,1.4522,1.4982,1.4806,1.4561,1.5083,1.4728,1.4234,1.4373,1.4296,1.4239,1.4276,1.4094,1.4083,1.4727,1.4744,1.4861,1.5556,1.5617,1.5792,1.639,1.6497,1.6775,1.7412,1.7505,1.7474,1.7443,1.715,1.6942,1.6882,1.6512,1.6107,1.5664,1.5463,1.5344,1.5389,1.4891,1.4376,1.3912,1.4209,1.4357,1.427,1.4558,1.4658,1.461,1.4578,1.4547,2.6569,2.713,2.7316,2.605,2.5772,2.5815,2.5765,2.6092,2.6623,2.7443,2.7932,2.9092,3.2007,3.1655,3.2036,3.5553,3.7111,3.8096,3.8663,3.8159,3.6315,3.2529,0.0,2.8946,2.6209,2.4927,2.407,2.3574,2.3643,2.3376,2.259,2.242,2.1958,2.11,2.0807,2.028,1.9507,1.9315,1.9194,1.9115,1.9232,1.8861,1.8067,1.8897,1.8536,1.7256,0.0,1.7374,1.6144,1.5838,1.5184,1.4386,1.4226,1.4159,1.4159,1.4219,1.4818,1.5529,1.4773,1.4051,1.3375,1.2721,1.2541,1.2768,1.3698,1.3989,1.4162,1.5028,1.4971,1.4695,1.4841,1.4785,1.4971,1.6026,1.5719,1.5516,1.6747,1.5841,1.5028,1.5816,1.5365,1.5003,1.5462,1.5522,1.5731,1.6315,1.6514,1.6825,1.7505,1.7542,1.7519,1.7566,1.7314,1.7199,1.7298,1.6321,1.5994,1.6632,1.6215,1.5898,1.5741,1.5636,1.5503,1.5313,1.5257,1.5183,1.5108,1.5104,1.5117,1.5086,1.4932,1.4763,2.6629,2.6834,2.6953,2.6615,2.7186,2.7829,2.777,2.7944,2.8418,2.9376,2.9735,3.0562,3.2865,3.3796,3.5224,3.8391,3.8508,3.801,3.748,3.6254,3.4427,0.0,0.0,2.8477,2.6884,2.5427,2.4253,2.3503,2.3539,2.3186,2.2253,2.1732,2.1216,2.0756,2.0237,1.9737,1.9305,1.9214,1.9166,1.9198,1.8926,1.8342,1.7514,1.7995,1.7572,1.6526,0.0,1.6787,1.6439,1.545,1.5282,1.5567,1.4665,1.4598,1.4976,1.4598,1.4542,1.4541,1.3766,1.3365,1.3125,1.2708,1.2926,1.3539,1.4438,1.4709,1.4801,1.5232,1.5139,1.4922,1.4948,1.4882,1.4942,1.554,1.5316,1.5238,1.625,1.5847,1.5637,1.6835,1.6636,1.6484,1.707,1.7067,1.702,1.7187,1.726,1.74,1.767,1.7641,1.7572,1.7519,1.7345,1.7257,1.7273,1.6759,1.6319,1.6098,1.5926,1.5902,1.6009,1.5591,1.5437,1.561,1.5507,1.5418,1.5344,1.5314,1.5314,1.5314,1.5147,1.5025,2.6311,2.6347,2.6536,2.7078,2.8192,2.9261,2.9696,2.9817,3.0179,3.141,3.176,3.2227,3.3382,3.5423,3.75,3.9181,3.87,3.7567,3.6007,3.445,3.2772,3.0904,2.927,2.7993,2.7281,2.5763,2.4374,2.3339,2.3309,2.2835,2.1709,2.0966,2.0574,2.0517,1.9804,1.9413,1.938,1.9383,1.9353,1.9311,1.8697,1.7913,1.7053,1.733,1.6922,1.6041,1.6329,1.6704,1.7002,1.5651,1.5826,1.6754,1.5282,1.5019,1.5397,1.486,1.4354,1.3788,1.3,1.2965,1.3243,1.3075,1.3632,1.4533,1.5203,1.5396,1.5409,1.5404,1.5292,1.5173,1.5144,1.5037,1.5004,1.5375,1.5217,1.5272,1.6294,1.6176,1.6323,1.7854,1.7848,1.779,1.8444,1.8385,1.8194,1.7988,1.7966,1.7944,1.7905,1.7861,1.7755,1.7572,1.7472,1.7304,1.7044,1.7109,1.6693,1.5645,1.5613,1.582,1.6145,1.5408,1.5161,1.5536,1.5507,1.5448,1.5374,1.5389,1.5389,1.5389,1.5193,1.5117,2.5737,2.6248,2.6967,2.7166,2.7319,2.8006,3.0127,3.0751,3.1341,3.2896,3.3879,3.4429,3.4429,3.5745,3.6652,3.6136,3.7255,3.7598,3.5941,0.0,3.3392,3.0168,2.9036,2.7932,2.6521,2.5473,2.4252,2.2683,2.2578,2.1821,2.0073,1.9967,1.9876,1.9689,1.975,1.9725,1.9673,1.9614,1.9513,1.9376,1.8716,1.7975,1.7232,1.8087,1.7606,1.6177,1.7723,1.7892,1.71,1.6962,1.6904,1.682,1.5956,1.5265,1.4782,1.4841,1.4846,1.4695,1.3952,1.4282,1.4907,1.4144,1.4545,1.532,1.5371,1.5402,1.5409,1.5404,1.5399,1.5368,1.5299,1.5272,1.5627,1.706,1.6726,1.6715,1.9005,1.8165,1.743,1.8904,1.8483,1.7994,1.8351,1.8391,1.8322,1.8113,1.8151,1.8194,1.8166,1.8166,1.8125,1.8053,1.7878,1.7406,1.6536,1.6974,1.6952,1.6187,1.5918,1.588,1.6093,1.533,1.5067,1.5404,1.5418,1.5374,1.5313,1.5374,1.5389,1.5389,1.5072,1.4932,2.4883,2.6266,2.7777,2.683,2.8053,2.9799,3.1112,3.1441,3.2001,3.3735,3.4774,3.5544,3.5959,3.6801,3.7195,3.6497,3.6509,3.6198,3.504,3.3377,3.1657,3.0012,2.8631,2.7471,2.6577,2.565,2.4369,2.2639,2.2486,2.1707,1.9912,1.9825,1.9801,1.9725,1.977,1.9776,1.9699,1.9719,1.9701,1.9625,1.8327,1.7281,1.6472,1.7388,1.7224,1.627,1.7169,1.704,1.6232,1.6232,1.6497,1.6888,1.679,1.6325,1.5647,1.5185,1.503,1.4908,1.413,1.4486,1.512,1.4271,1.4632,1.5394,1.5352,1.5365,1.5399,1.5345,1.5342,1.5342,1.5351,1.5734,1.612,1.6157,1.6603,1.7261,1.8165,1.8132,1.8249,1.9386,1.9121,1.8749,1.8925,1.868,1.8413,1.8293,1.8239,1.8194,1.8197,1.8159,1.8121,1.8103,1.7927,1.7603,1.7119,1.7289,1.7276,1.6974,1.6303,1.6054,1.6405,1.5713,1.5404,1.5594,1.5551,1.5448,1.5313,1.5268,1.5298,1.5328,1.5088,1.4966,2.4663,2.6254,2.7846,2.6826,2.836,3.0421,3.1616,3.2119,3.273,3.4187,3.4515,3.4799,3.5616,3.6017,3.604,3.5324,3.4952,3.4306,3.3063,3.1278,2.9754,2.8866,2.7789,2.6759,2.5806,2.5118,2.3988,2.217,2.2026,2.1367,1.9826,1.9807,1.9801,1.9776,1.983,1.9823,1.977,1.9536,1.9296,1.9032,1.7602,1.6894,1.6855,1.6851,1.674,1.6564,1.6829,1.6619,1.6079,1.6104,1.6473,1.7046,1.7334,1.6961,1.6208,1.5398,1.5114,1.5043,1.4489,1.4734,1.5205,1.4609,1.4842,1.5368,1.5315,1.5329,1.5365,1.531,1.5306,1.5371,1.5705,1.6191,1.6452,1.5853,1.6899,1.7999,1.7955,1.8479,1.913,1.9693,1.9559,1.9343,1.9259,1.8929,1.8643,1.8454,1.8348,1.8277,1.8256,1.8222,1.8225,1.8229,1.8035,1.7918,1.7937,1.7706,1.7579,1.7732,1.6792,1.6344,1.6565,1.5867,1.5536,1.5594,1.5551,1.5448,1.5313,1.5253,1.5253,1.5313,1.5088,1.4982,2.532,2.6194,2.7105,2.7362,2.8042,2.9236,3.1533,3.2738,3.3579,3.4234,3.3064,3.2139,3.2943,3.2966,3.2641,3.1894,3.2381,3.2094,2.9888,2.8961,2.7938,2.6469,2.6395,2.5773,2.3976,2.3733,2.2937,2.1151,2.0996,2.0594,1.9652,1.9782,1.983,1.9713,1.9892,1.9969,1.9888,1.9041,1.8208,1.7395,1.6517,1.7009,1.859,1.6753,1.6332,1.7096,1.7101,1.7015,1.6903,1.6953,1.71,1.7305,1.7444,1.7001,1.6201,1.5408,1.5145,1.521,1.5192,1.5236,1.5302,1.5307,1.5295,1.5295,1.5299,1.5307,1.5306,1.5299,1.5303,1.5501,1.6359,1.6599,1.6611,1.6604,1.7898,1.9075,1.8929,1.9592,2.0122,1.9847,1.9748,1.9569,1.9178,1.9115,1.8964,1.8569,1.8489,1.8465,1.831,1.8413,1.8491,1.8505,1.8319,1.8378,1.8866,1.8118,1.7876,1.8467,1.7371,1.6659,1.6501,1.5739,1.5339,1.5404,1.5328,1.5313,1.5313,1.5313,1.5313,1.5283,1.5088,1.4951,2.6214,2.7469,2.8895,2.8485,2.9721,3.0942,3.0508,3.1098,3.2056,3.2967,3.2403,3.1703,3.151,3.119,3.068,2.9941,2.9669,2.9314,2.8689,2.7608,2.674,2.635,2.5291,2.4412,2.3923,2.3251,2.235,2.1155,2.1073,2.0678,1.9794,1.98,1.9839,1.9851,2.0,1.9744,1.9063,1.8848,1.8288,1.7385,1.6458,1.5977,1.5883,1.5986,1.6153,1.6327,1.6288,1.623,1.6183,1.6164,1.6638,1.7319,1.68,1.6508,1.6268,1.5472,1.5174,1.521,1.5246,1.5289,1.5302,1.5295,1.5307,1.5295,1.5299,1.5299,1.5303,1.5295,1.5291,1.5361,1.5611,1.6599,1.7517,1.7521,1.8794,1.9847,1.9179,1.961,2.0095,1.9972,1.9771,1.9587,1.9475,1.9295,1.9067,1.8753,1.8642,1.8487,1.826,1.8345,1.8406,1.8298,1.8281,1.8474,1.8984,1.8754,1.8603,1.8651,1.8118,1.7494,1.6727,1.626,1.5948,1.5826,1.5566,1.5388,1.5313,1.5163,1.5088,1.5088,1.5043,1.4951,2.7661,2.8717,2.9795,3.0,3.0888,3.1358,2.9834,3.0064,3.0797,3.1401,3.1235,3.0862,3.0431,3.0031,0.0,2.8695,2.8017,2.7511,2.7343,2.6362,2.5546,2.5317,2.4409,2.3534,2.2852,2.2291,2.1556,2.0615,2.0571,2.0339,1.9795,1.9811,1.9862,1.9945,1.9716,1.9307,1.8744,1.808,1.7435,1.6866,1.5959,1.5254,1.4765,1.5261,1.5662,1.5903,1.5518,1.5355,1.5403,1.5744,1.6282,1.6847,1.6412,1.6314,1.629,1.549,1.521,1.5245,1.5299,1.5298,1.5306,1.5306,1.5295,1.5303,1.5298,1.5298,1.5302,1.5298,1.5295,1.538,1.5721,1.6862,1.7858,1.7476,1.894,2.021,1.9333,1.9732,2.0217,2.0109,1.9926,1.9768,1.9695,1.9513,1.9308,1.9031,1.8753,1.8469,1.8239,1.826,1.8301,1.8239,1.8243,1.8612,1.9504,1.899,1.8931,1.9672,1.8901,1.8301,1.8042,1.716,1.662,1.6478,1.607,1.5844,1.5768,1.5309,1.5088,1.5088,1.5013,1.4951,2.9487,2.9964,3.0142,3.1689,3.1603,3.0786,2.9515,2.9523,2.9779,2.9776,2.9858,2.9828,2.9554,2.9269,2.8762,2.7822,2.7076,2.6451,2.5979,2.52,2.4485,2.3876,2.3648,2.2916,2.128,2.1041,2.0646,1.9788,1.9782,1.9794,1.9744,1.9858,1.9945,2.0015,1.923,1.8783,1.8697,1.6971,1.6074,1.597,1.5188,1.4822,1.4794,1.4687,1.5025,1.5674,1.4888,1.4563,1.4688,1.5523,1.5931,1.6007,1.6113,1.622,1.6188,1.547,1.524,1.5289,1.5211,1.5229,1.5295,1.5205,1.5248,1.5306,1.5294,1.5294,1.5308,1.5293,1.5295,1.5474,1.6283,1.7249,1.7767,1.6824,1.8604,2.023,1.9297,1.983,2.0422,2.014,2.0099,2.0046,1.9834,1.9769,1.9628,1.9335,1.8842,1.8434,1.8229,1.8249,1.8322,1.8391,1.8395,1.8943,2.0298,1.9121,1.9143,2.1071,1.9639,1.9018,1.9706,1.8251,1.7386,1.7327,1.6742,1.6448,1.6511,1.5634,1.5179,1.5151,1.5059,1.4954,3.1303,3.0964,3.0688,3.286,3.2022,3.0421,2.9615,2.9143,2.8874,2.8865,2.9471,2.9582,2.8288,2.7693,2.712,2.6153,2.5568,2.5209,2.5153,2.4492,2.3961,2.3819,2.2538,2.1573,2.1282,2.0592,2.0118,2.001,2.002,2.0021,2.0012,2.005,2.0088,2.015,1.9322,1.8542,1.7858,1.6733,1.5819,0.0,1.4988,1.493,1.4877,1.4859,1.4935,1.5085,1.4888,1.4813,1.4841,1.4934,1.5048,1.5159,1.5193,1.527,1.5364,1.5235,1.5236,1.5187,1.4463,1.4678,1.518,1.4508,1.4736,1.5311,1.5298,1.5308,1.5293,1.5295,1.5294,1.5357,1.5596,1.6772,1.7705,1.688,1.8631,2.0065,1.852,1.9406,2.0258,1.9424,1.9754,2.0108,1.9905,1.988,1.97,1.9301,1.8842,1.8489,1.8229,1.8715,1.9051,1.9016,1.955,2.0285,2.1181,2.0933,2.0668,2.044,1.9925,1.9268,1.8427,1.8335,1.8336,1.8379,1.7075,1.648,1.6649,1.5709,1.5125,1.4796,1.5052,1.4949,3.1034,3.0902,3.0764,3.2527,3.2067,3.0901,2.9972,2.9282,2.8863,2.8962,2.9075,2.8735,2.7514,2.686,2.6212,2.5316,2.5012,2.4746,2.4379,2.4071,2.3602,2.274,2.1809,2.1113,2.0756,2.0279,2.0012,2.0088,2.0088,2.0097,2.0096,2.0097,1.9943,1.9583,1.8703,1.7811,1.6937,1.6041,1.5345,1.4904,1.5006,1.5042,1.5033,1.4987,1.493,1.4904,1.4904,1.4895,1.4886,1.4822,1.4841,1.4865,1.4509,1.444,1.452,1.4549,1.4623,1.4663,1.4598,1.4896,1.5221,1.4762,1.493,1.5306,1.5311,1.5302,1.5303,1.5299,1.529,1.5319,1.5388,1.6367,1.7109,1.6289,1.8331,2.0146,1.8806,1.9554,2.034,1.9813,2.0028,2.0243,2.0058,1.9941,1.9726,1.9346,1.898,1.8662,1.8469,1.8631,1.8918,1.9263,1.9659,2.0343,2.1454,2.1238,2.0997,2.0921,2.0487,1.9938,1.928,1.9234,1.9023,1.8616,1.7634,1.7058,1.7,1.6069,1.5446,1.5091,1.5286,1.5257,3.0326,3.0856,3.1112,3.1854,3.1954,3.1511,3.0222,2.9462,2.9063,2.9248,2.8839,2.8147,2.7156,2.6642,2.6048,2.5029,2.4835,2.4583,2.3873,2.3645,2.3016,2.157,2.1283,2.0919,2.019,2.0122,2.0131,2.0139,2.0139,2.0159,2.0169,2.0152,1.9854,1.9177,1.8094,1.7176,1.6461,1.5426,1.4955,1.4995,1.5078,1.5153,1.5204,1.5087,1.5,1.4923,1.4942,1.4936,1.4921,1.4921,1.4844,1.466,1.4042,1.3857,1.3909,1.3889,1.4046,1.4328,1.4877,1.517,1.5286,1.5136,1.5192,1.5309,1.5329,1.5416,1.5513,1.5524,1.5637,1.5755,1.582,1.6378,1.6737,1.6007,1.8006,1.9836,1.8942,1.9558,2.0282,2.0274,2.0342,2.0366,2.0231,1.9991,1.9732,1.9423,1.9127,1.8842,1.866,1.8487,1.8625,1.929,1.944,2.0073,2.1512,2.1077,2.0952,2.1489,2.0947,2.0505,2.0244,1.9853,1.9258,1.8483,1.8,1.7606,1.7236,1.6264,1.5659,1.5403,1.5369,1.5426,3.1082,3.2265,3.2819,3.2035,3.175,3.1307,3.0015,2.9139,2.8608,2.8761,2.9166,2.9041,2.753,2.7367,2.6937,2.5325,2.4547,2.411,2.4053,2.2719,2.1665,2.1436,2.0783,2.0307,2.02,2.0234,2.0295,2.036,2.036,2.0398,2.0432,2.0386,2.0308,2.0196,1.8571,1.7588,1.7413,1.5795,1.4984,1.4999,1.5126,1.5196,1.5201,1.5173,1.5146,1.5063,1.5069,1.5035,1.4992,1.4995,1.4589,1.3933,1.3837,1.3887,1.3979,1.3926,1.447,1.5107,1.4424,1.4716,1.5254,1.4505,1.4772,1.5397,1.5391,1.5862,1.6435,1.6426,1.6971,1.7548,1.7569,1.7704,1.7788,1.7602,1.7967,1.8083,1.7144,1.8228,1.937,1.9363,1.9925,2.0359,2.0212,2.0069,1.9821,1.9394,1.913,1.8824,1.841,1.8814,1.9171,1.9235,1.9889,2.0714,2.1596,2.1652,2.1411,2.0865,2.0725,2.0123,1.8833,1.8662,1.851,1.8326,1.7698,1.7236,1.694,1.5654,1.5049,1.5076,1.4663,1.4744,2.9625,3.0758,3.1604,3.1145,3.1036,3.0921,3.0471,2.9809,2.932,2.9467,2.9383,2.9074,2.8337,2.7995,2.7415,2.6198,2.5311,2.448,2.361,2.2383,2.1393,2.0904,2.052,2.0315,2.0302,2.0346,2.0377,2.041,2.041,2.0416,2.0432,2.0379,2.0146,1.9687,1.8384,1.7451,1.6932,1.5715,1.5139,1.5163,1.5229,1.5253,1.5257,1.5297,1.5249,1.5168,1.5152,1.5143,1.5108,1.5101,1.4614,1.381,1.3349,1.3221,1.3209,1.2727,1.3439,1.4603,1.4198,1.4644,1.5349,1.4941,1.5391,1.6074,1.6074,1.6659,1.7324,1.7322,1.7609,1.7916,1.7957,1.7626,1.7396,1.7849,1.7604,1.7437,1.7986,1.8693,1.935,1.983,2.0153,2.0283,2.0126,2.0041,1.9877,1.9532,1.9308,1.903,1.8681,1.8753,1.899,1.9334,1.9703,2.0246,2.101,2.115,2.0865,2.0079,2.0088,1.9658,1.8538,1.8348,1.8229,1.809,1.7697,1.7326,1.7022,1.6339,1.5952,1.5836,1.5732,1.5848,2.8518,2.9502,3.0491,3.0538,3.065,3.0753,3.0731,3.0029,2.9422,2.9524,2.8955,2.8486,2.8645,2.8093,2.7344,2.6536,2.5657,2.4684,2.347,2.2372,2.1463,2.0817,2.0556,2.0425,2.0425,2.043,2.0425,2.0402,2.0402,2.0402,2.0427,2.039,2.0086,1.9478,1.8567,1.7657,1.6758,1.5713,1.5226,1.5292,1.5313,1.5326,1.5326,1.5379,1.5343,1.5249,1.522,1.5221,1.5231,1.5236,1.4704,1.3865,1.3257,1.3048,1.2963,1.2132,1.2936,1.4392,1.4172,1.4668,1.5401,1.5405,1.5812,1.6332,1.6554,1.7221,1.7944,1.8171,1.8399,1.8564,1.8582,1.7811,1.7294,1.8345,1.7613,1.7169,1.8905,1.9402,1.9714,2.0371,2.0415,2.0276,2.0046,2.0012,1.9909,1.9592,1.9416,1.9178,1.8859,1.8662,1.87,1.9164,1.9216,1.953,2.0279,2.0416,2.0193,1.9594,1.9658,1.9328,1.852,1.8348,1.8208,1.8069,1.7743,1.7399,1.706,1.6758,1.6598,1.6575,1.6472,1.6637,2.9021,2.9864,3.0731,3.0923,3.1066,3.1023,3.0385,2.9075,2.801,2.8,2.7417,2.7148,2.7904,2.7381,2.6563,2.5706,2.4826,2.4236,2.4155,2.2736,2.1675,2.1638,2.0963,2.0483,2.0482,2.0484,2.0465,2.04,2.0395,2.0439,2.0483,2.0493,2.0472,2.0422,1.9574,1.8667,1.7738,1.6057,1.5233,1.5295,1.5351,1.5385,1.539,1.5403,1.5409,1.5389,1.5315,1.5299,1.5291,1.5288,1.4782,1.3989,1.3956,1.3976,1.3916,1.3043,1.3848,1.5212,1.4387,1.4667,1.5392,1.5394,1.5438,1.5619,1.6438,1.7265,1.8069,1.8896,1.9737,2.0346,2.0216,1.9052,1.8317,1.9815,1.8399,1.7152,1.8846,1.9853,2.0458,2.05,2.0488,2.0386,2.0056,2.0058,1.9944,1.9489,1.9357,1.913,1.8679,1.8604,1.8544,1.8371,1.8432,1.879,1.958,1.971,1.9731,1.9696,1.9696,1.9328,1.852,1.8485,1.8485,1.8465,1.7827,1.7327,1.6994,1.616,1.6102,1.6761,1.5813,1.6061,2.8315,2.8699,2.9118,2.8664,2.873,2.8872,2.8744,2.8299,2.7913,2.7973,2.7341,2.6896,2.7237,2.7459,2.7309,2.6528,2.5619,2.4844,2.4334,2.3261,2.2343,2.1832,2.1501,2.1105,2.0558,2.0504,2.0484,2.048,2.0461,2.047,2.0494,2.0506,2.0503,2.0503,1.9651,1.8516,1.7112,1.5919,1.5346,1.5358,1.5397,1.5401,1.5394,1.5397,1.5398,1.54,1.5366,1.5353,1.5363,1.5365,1.4847,1.4059,1.4064,1.3758,1.3216,1.2341,1.3105,1.443,1.3569,1.4199,1.5382,1.5345,1.5718,1.6217,1.6483,1.7589,1.8799,1.9104,1.983,2.0487,2.0443,1.96,1.8916,1.9452,1.9367,1.9309,1.9897,2.0289,2.0492,2.0492,2.05,2.0415,2.0161,2.0103,1.9983,1.9643,1.9532,1.9372,1.9034,1.8896,1.877,1.8582,1.8505,1.8588,1.8869,1.8924,1.8924,1.8924,1.8924,1.8801,1.8502,1.8408,1.8408,1.8485,1.7975,1.7653,1.7574,1.6969,1.7183,1.8144,1.7699,1.8047,2.839,2.8615,2.8742,2.7897,2.7932,2.8103,2.7962,2.7727,2.7555,2.7627,2.699,2.6446,2.6486,2.6906,2.7075,2.6585,2.5954,2.5351,2.4809,2.3983,2.3244,2.2703,2.2374,2.1873,2.1029,2.0937,2.0818,2.0521,2.0497,0.0,2.0494,2.0497,2.0492,2.0497,1.9646,1.8536,1.7153,1.6261,1.5687,1.5406,1.5408,1.5408,1.5404,1.5406,1.5405,1.5402,1.5397,1.5394,1.5394,1.5392,1.5065,1.4543,1.4547,1.402,1.3239,1.2655,1.2968,1.3625,1.3309,1.3948,1.4937,1.5151,1.5644,1.6169,1.641,1.7357,1.8383,1.8704,1.9379,1.9998,1.9978,1.9726,1.9439,1.9243,1.988,2.0483,2.046,2.0486,2.0497,2.0511,2.0487,2.0399,2.018,2.0095,1.9983,1.9707,1.9633,1.9497,1.9168,1.9069,1.8896,1.8622,1.879,1.8783,1.85,1.8731,1.8783,1.8483,1.8485,1.8485,1.8485,1.8408,1.8408,1.8485,1.8103,1.798,1.809,1.7876,1.8167,1.9028,1.8935,1.914,0.0,0.0,0.0,2.8912,2.8912,2.8917,2.8131,2.736,2.6805,2.6854,2.6259,2.5726,2.5701,2.5703,2.5693,2.5703,2.5641,2.5593,2.5607,2.4871,2.4336,2.4303,2.3544,2.2713,2.1907,2.1848,2.1462,2.0603,2.0544,2.0539,2.0492,2.0508,2.0492,2.0499,1.967,1.8832,1.8044,1.7144,1.6278,1.5449,1.541,1.5391,1.5408,1.541,1.5408,1.5402,1.5397,1.5398,1.5402,1.5404,1.5406,1.5407,1.5409,1.4863,1.4101,1.4101,1.3551,1.2927,1.3727,1.3953,1.4029,1.4835,1.5135,1.5352,1.6191,1.6526,1.6781,1.7721,1.8473,1.8987,1.8948,1.9515,1.9957,1.9375,1.9877,2.048,2.0424,2.0446,2.0497,2.0495,2.0439,2.0324,2.0058,2.0012,1.9916,1.9643,1.9606,1.9464,1.9084,1.9034,1.8896,1.85,1.9219,1.9395,1.8545,1.9254,1.9377,1.8528,1.8518,1.854,1.854,1.8502,1.8485,1.8485,1.8232,1.8249,1.852,1.8683,1.8941,1.9321,1.9358,1.9119,2.9084,0.0,0.0,0.0,0.0,0.0,2.718,2.6953,2.6646,2.6142,2.6316,2.6386,2.582,2.5659,2.5637,2.5639,2.5613,2.5591,2.5537,2.5327,2.4921,2.4305,2.4058,2.3616,2.2744,2.2668,2.2302,0.0,2.1369,2.1121,2.0521,2.0507,2.0519,2.057,1.9729,1.9163,1.8931,1.7456,1.6581,1.6327,1.5702,1.5407,1.541,1.5408,1.5409,1.539,1.5409,1.5408,1.5406,1.5401,1.5401,1.5404,1.5407,1.4862,1.4101,1.4101,1.3551,1.2923,1.3725,1.3961,1.4013,1.4781,1.512,1.524,1.5436,1.6009,1.6774,1.763,1.8421,1.9117,1.9623,2.0,2.0205,2.0039,2.0255,2.0492,2.0474,2.0449,2.0428,2.0428,2.0415,2.0369,2.0296,2.0134,1.9974,1.9903,1.9757,1.9633,1.9518,1.9753,1.99,1.9777,2.0303,2.0548,2.0297,2.0513,2.0548,2.0297,1.9709,1.9371,1.9371,1.8803,1.8485,1.8485,1.8445,1.8606,1.9013,1.8488,1.8773,1.9894,2.0583,2.0691,2.7959,2.8103,2.8065,2.8165,0.0,0.0,2.6935,2.6804,2.6588,2.5846,2.6067,2.625,2.5759,2.5629,2.56,2.5605,2.5604,2.5582,2.5544,2.5518,2.5304,2.48,2.4781,2.4458,2.3592,2.3492,2.3148,2.2313,2.1906,2.1355,2.0533,2.0503,2.0527,2.056,2.0093,1.9662,1.9307,1.828,1.7422,1.6699,1.6185,1.5751,1.5403,1.54,1.5403,1.5409,1.539,1.5391,1.539,1.5404,1.5401,1.5404,1.5408,1.4862,1.4099,1.4101,1.3313,1.2374,1.3187,1.3376,1.3398,1.4197,1.4513,1.4635,1.4967,1.5278,1.5672,1.6497,1.7514,1.8636,1.9725,2.0109,2.0224,2.0289,2.0405,2.051,2.0494,2.0469,2.0433,2.0445,2.042,2.0383,2.0353,2.0188,2.0012,1.9973,1.9804,1.9758,1.9933,2.0173,2.0425,2.0607,2.1167,2.1398,2.1078,2.1238,2.1185,2.0846,2.0197,1.9908,2.0079,1.9237,1.8857,1.8999,1.8857,1.8987,1.9358,1.9045,1.9469,2.06,2.116,2.1308,2.6444,2.7475,2.8247,2.7642,2.8128,0.0,2.7089,2.6799,2.6582,2.5843,2.5772,2.5781,2.5638,2.5595,2.5574,2.5463,2.5438,2.5485,2.5583,2.5543,2.5456,2.5352,2.5337,2.5027,2.4251,2.4173,2.3889,2.3191,2.2247,2.1333,2.0525,2.0486,2.0482,2.0508,2.0566,2.0233,1.945,1.9355,1.8476,1.6834,1.6743,1.6247,1.5391,1.5407,1.5394,1.5405,1.5409,1.5409,1.5407,1.5409,1.5406,1.5407,1.541,1.4862,1.4099,1.4099,1.3051,1.1743,1.2542,1.2709,1.2702,1.3546,1.3838,1.3985,1.4773,1.4595,1.4285,1.5091,1.6432,1.7946,1.9376,1.9917,2.0115,2.025,2.0386,2.0483,2.0516,2.0508,2.0495,2.05,2.0448,2.0396,2.0339,2.0211,2.006,1.9941,1.98,1.9885,2.034,2.0433,2.0661,2.1263,2.1938,2.2078,2.1447,2.1776,2.168,2.0947,2.046,2.036,2.0657,1.9774,1.9423,1.971,1.947,1.9476,1.9714,1.9976,2.0494,2.1195,2.1245,2.1214,2.6245,2.682,2.7278,2.7456,2.723,0.0,2.6831,2.6804,2.6588,2.5846,2.621,2.6457,2.5737,2.5597,2.5354,2.4594,2.4464,2.4749,2.5499,2.5544,2.5212,2.4458,2.4338,2.4224,2.4058,2.4047,2.4014,2.3971,2.2501,2.1274,2.0458,2.0422,2.0447,2.0497,2.0566,2.0527,2.0351,1.9647,1.8785,1.7748,1.7049,1.6232,1.5404,1.5393,1.5399,1.5397,1.5392,1.5395,1.5395,1.539,1.5391,1.541,1.5406,1.486,1.4101,1.41,1.3414,1.2581,1.3392,1.3594,1.3655,1.4425,1.4698,1.4779,1.4946,1.4959,1.5044,1.5792,1.7148,1.8447,1.8704,1.9341,1.9983,2.0165,2.0282,2.039,2.054,2.0546,2.0498,2.0504,2.0496,2.0478,2.0463,2.0268,2.0095,2.0058,1.9899,2.0051,2.0843,2.0802,2.1211,2.2483,2.2608,2.2777,2.3174,2.3289,2.3155,2.2782,2.1984,2.142,2.1165,2.0305,1.9823,1.9773,2.014,2.0334,2.0315,2.0332,2.0422,2.0587,2.0783,2.0909,2.4599,2.5427,0.0,2.6566,2.683,0.0,0.0,2.6767,2.6545,2.585,2.6025,2.6152,2.5696,2.5603,2.545,2.4982,2.4476,2.4326,2.4826,2.4435,2.3929,2.3419,2.3352,2.3333,2.3314,2.3304,2.3159,2.2835,2.2427,2.1654,2.0427,2.0793,2.086,2.0467,2.0931,2.0995,2.0547,2.0154,1.9289,1.7956,1.7534,1.6656,1.5342,1.5378,1.5404,1.5399,1.5401,1.5409,1.5392,1.5391,1.541,1.539,1.5408,1.4861,1.4042,1.3613,1.3158,1.2749,1.2711,1.3181,1.3866,1.4236,1.4361,1.4422,1.4831,1.4992,1.5297,1.6431,1.7329,1.8106,1.8852,1.9518,2.0031,2.0126,2.0288,2.043,2.0536,2.0527,2.0498,2.0494,2.0506,2.0488,2.0464,2.0262,2.0093,2.0093,1.992,2.0057,2.0816,2.1131,2.1715,2.274,2.3101,2.3381,2.3714,2.3598,2.3445,2.3319,2.2625,2.22,2.2185,2.1317,2.0662,2.0334,2.0655,2.0739,2.0666,2.0999,2.1016,2.0745,2.1037,2.1276,0.0,0.0,0.0,0.0,0.0,2.6892,0.0,0.0,0.0,2.5784,2.5681,2.5613,2.5383,2.5347,2.5239,2.4896,0.0,0.0,0.0,2.272,0.0,2.2345,2.2373,2.2371,2.2331,2.263,2.2488,2.1665,2.247,2.2274,2.0598,2.1403,2.1512,2.0672,2.1411,2.1402,2.0527,2.0564,1.9698,1.7911,1.7961,1.7143,1.5566,1.5433,1.5478,1.5627,1.5475,1.5502,1.5643,1.5469,1.5409,1.539,1.5409,1.4763,1.3784,1.3242,1.2937,1.2719,1.2154,1.2882,1.4046,1.404,1.3992,1.4062,1.4711,1.4955,1.5285,1.6675,1.7171,1.7618,1.902,1.9719,2.005,2.0099,2.028,2.0471,2.0494,2.0507,2.0497,2.0497,2.0494,2.0488,2.042,2.0243,2.0093,2.0093,1.9928,2.0051,2.0685,2.1149,2.1793,2.2722,2.3194,2.3551,2.3821,2.3566,2.3364,2.3324,2.2883,2.273,2.296,2.2175,2.1559,2.1208,2.1221,2.1213,2.1087,2.1658,2.1691,2.1151,2.1448,2.1735,0.0,0.0,0.0,0.0,2.4751,0.0,0.0,0.0,2.5628,2.56,0.0,2.5364,2.459,0.0,0.0,2.238,2.2047,0.0,2.0778,2.0502,2.0671,2.1356,2.1347,2.1301,2.1358,2.2756,2.3313,2.2443,2.3195,2.2991,2.1357,2.2177,2.2327,2.1578,2.1766,2.1464,2.0597,2.0599,1.9719,1.7985,1.7994,1.7494,1.6503,1.5686,1.5721,1.6412,1.571,1.5838,1.6486,1.5715,1.5409,1.5391,1.5394,1.44,1.3027,1.3691,1.3467,1.2881,1.3431,1.4211,1.4935,1.4885,1.4859,1.4858,1.4881,1.4955,1.5171,1.5989,1.6757,1.7506,1.8378,1.9223,1.9882,2.006,2.0218,2.0357,2.0467,2.0507,2.0497,2.0501,2.0497,2.0507,2.0488,2.0262,2.0093,2.0093,1.9931,2.0107,2.0941,2.0502,2.0947,2.3101,2.2595,2.2646,2.3949,2.386,2.3646,2.3394,2.3164,2.29,2.2582,2.23,2.2167,2.2231,2.2167,2.2135,2.2119,2.2164,2.1895,2.1355,2.1705,2.1911,0.0,0.0,0.0,0.0,0.0,0.0,2.5083,0.0,2.5309,0.0,0.0,0.0,0.0,0.0,0.0,0.0,2.2014,2.1514,0.0,0.0,2.0213,2.0516,0.0,0.0,2.1145,2.1874,2.2015,2.1225,2.1962,2.2192,2.1556,2.1901,2.2216,2.2445,2.2051,2.1673,2.1304,2.0834,1.9967,1.8683,1.8225,1.7513,1.66,1.5705,1.5802,1.6616,1.5777,1.5888,1.6621,1.576,1.5097,1.4647,1.4654,1.3914,1.2849,1.2695,1.2392,1.2162,1.2928,1.3373,1.366,1.4102,1.4597,1.5006,1.5008,1.5019,1.5264,1.6508,1.7071,1.7603,1.8911,1.9568,1.9973,2.0173,2.0328,2.0441,2.0543,2.0527,2.05,2.0498,2.0494,2.0488,2.0444,2.0243,2.0093,2.0093,2.0337,2.0471,2.0358,2.0795,2.1503,2.2537,2.2508,2.2868,2.4006,2.3919,2.3728,2.3522,2.2888,2.2435,2.2255,2.2047,2.2134,2.2565,2.259,2.2456,2.2169,2.2546,2.2527,2.2153,2.2215,2.2254,2.2931,0.0,0.0,0.0,0.0,0.0,0.0,0.0,0.0,0.0,0.0,0.0,0.0,0.0,2.3622,2.2571,0.0,2.1316,2.1341,2.0653,2.022,2.0365,0.0,0.0,0.0,2.16,2.1435,2.0889,2.1444,2.1727,2.1584,2.2036,2.2421,2.2662,2.234,2.1941,2.1482,2.0875,2.0127,1.9216,1.8375,1.7623,1.6943,1.5832,1.5832,1.6664,1.6035,1.613,1.6651,1.6015,1.5232,1.4426,1.4193,1.3726,1.3103,1.2245,1.1893,1.1918,1.2498,1.2757,1.2922,1.3515,1.4289,1.4998,1.5059,1.5167,1.559,1.7018,1.7495,1.7926,1.9398,1.9907,2.0065,2.0241,2.0387,2.0511,2.0564,2.0527,2.0501,2.05,2.0497,2.0468,2.042,2.0257,2.0137,2.0112,2.0443,2.0483,1.9876,2.0736,2.1498,2.1798,2.2436,2.318,2.4062,2.4299,2.4222,2.3838,2.2882,2.2341,2.2341,2.215,2.2327,2.289,2.2935,2.279,2.2495,2.2943,2.3052,2.2859,2.2721,2.2651,0.0,0.0,0.0,2.3045,0.0,0.0,0.0,0.0,2.4765,0.0,0.0,0.0,0.0,0.0,2.2577,2.0862,2.0555,0.0,0.0,2.0363,2.0557,2.1273,2.2058,0.0,0.0,2.2524,2.2547,2.2527,2.2554,2.225,2.1531,2.316,2.3427,2.1893,2.2621,2.2277,2.0658,2.0547,2.0098,1.9292,1.8356,1.792,1.7901,1.6186,1.5863,1.6706,1.667,1.6668,1.6709,1.6674,1.6133,1.526,1.4434,1.4042,1.3867,1.3057,1.2725,1.2676,1.2698,1.3122,1.3667,1.3698,1.4252,1.493,1.4985,1.5449,1.6174,1.7198,1.7869,1.8497,1.9538,1.9943,2.0118,2.0183,2.0366,2.0506,2.0506,2.0505,2.0502,2.0504,2.0509,2.0482,2.04,2.0334,2.0238,2.0114,2.002,1.9892,1.9811,1.9844,2.0188,2.1035,2.2195,2.3253,2.4118,2.5252,2.5475,2.4448,2.348,2.2985,2.2985,2.2943,2.3084,2.336,2.3313,2.3336,2.3453,2.3336,2.3289,2.3289,2.3126,2.3095,0.0,0.0,2.2341,2.288,0.0,0.0,0.0,0.0,0.0,0.0,0.0,0.0,0.0,0.0,2.2617,2.1534,2.0884,2.048,0.0,2.0753,2.1139,2.1432,2.1637,2.1971,0.0,0.0,2.2698,2.279,2.279,2.2979,2.3392,2.342,2.3715,2.4358,2.3551,2.3105,2.3105,2.195,2.1226,2.0937,1.9451,1.8801,1.8808,1.707,1.6748,1.7535,1.6943,1.6698,1.6704,1.6699,1.5858,1.451,1.4217,1.4082,1.3953,1.3012,1.2329,1.1829,1.1743,1.2237,1.2988,1.3539,1.3914,1.4377,1.5522,1.5573,1.5696,1.7719,1.7947,1.7936,1.9509,2.0021,2.0149,2.0305,2.0441,2.0566,2.0566,2.0527,2.05,2.0502,2.0506,2.0482,2.0468,2.0454,2.0359,2.0131,2.0477,2.0528,1.9887,2.0295,2.0979,2.1872,2.2214,2.3128,2.4968,2.5147,2.4474,2.2911,2.2433,2.222,2.2268,2.222,2.2586,2.3383,2.3336,2.336,2.3494,2.3494,2.3181,2.2569,2.2579,2.2799,2.2236,2.2142,0.0,2.2538,2.2712,0.0,2.3365,0.0,2.3792,0.0,0.0,0.0,0.0,0.0,2.2244,2.1462,2.0872,2.0484,0.0,2.0738,2.1122,2.1528,2.1737,2.2192,2.3109,2.2917,2.2778,2.2894,2.2895,2.3071,0.0,0.0,2.3881,2.4744,2.3984,2.3671,2.3899,2.2818,2.2117,2.1776,2.0351,1.9546,1.9243,1.7825,1.747,1.7964,1.7405,1.6982,1.6692,1.6699,1.5839,1.4531,1.4531,1.4332,1.3917,1.2665,1.1844,1.1342,1.1205,1.1938,1.3012,1.3505,1.3906,1.4403,1.5525,1.5746,1.5922,1.7415,1.7888,1.818,1.9275,1.9819,2.0115,2.0327,2.0467,2.0562,2.059,2.0547,2.05,2.0502,2.0509,2.0495,2.0493,2.0497,2.0418,2.0139,2.0508,2.0568,1.9922,2.054,2.1286,2.1891,2.2539,2.3719,2.5725,2.5223,2.4306,2.3076,2.257,2.2388,2.2488,2.2388,2.2559,2.3066,2.3264,2.3264,2.3111,2.3328,2.3158,2.2633,2.2574,2.2753]}]]